GFSMW_prec_cloud_003.txt.gz
Cloud_Cover
5 3 0 0 0 0 0 0 0 0 0 5 30 92 100 89 46 69 5 0 0 0 4 5 5 4 5 5 5 6 17 18 24 100 100 100 74 5 5 5 5 32 60
5 5 0 0 1 7 10 65 34 3 4 5 5 5 15 5 26 12 5 0 1 1 1 5 5 5 5 5 5 5 28 42 45 100 100 100 76 75 18 5 5 13 41
76 24 23 71 93 100 83 66 89 67 29 11 5 5 10 5 4 5 3 0 4 5 0 2 5 5 5 28 46 61 57 57 98 100 100 100 100 99 100 98 85 81 37
100 100 100 100 100 31 5 9 5 6 32 74 6 5 5 5 4 0 0 0 1 5 5 6 44 57 29 49 67 95 100 100 100 92 100 97 93 100 100 100 100 100 100
91 44 66 67 76 6 5 6 5 48 56 5 5 1 0 0 0 2 4 5 7 7 14 39 22 49 92 100 100 66 14 40 93 100 100 100 100 100 100 100 100 100 100
4 5 4 8 28 6 0 0 9 34 4 0 0 0 5 5 27 91 100 100 100 74 94 100 100 93 53 5 6 5 13 24 5 5 5 23 34 81 100 98 99 100 99
4 0 0 0 0 0 0 0 0 0 0 0 5 5 11 48 77 75 98 100 100 100 98 64 28 8 14 50 40 45 12 43 11 7 12 61 6 4 8 37 20 19 5
0 0 0 0 0 0 0 0 0 0 2 5 5 5 46 86 100 100 89 59 49 46 48 88 96 99 75 34 25 53 92 99 55 14 5 9 15 33 5 8 76 85 76
0 0 0 0 0 0 0 0 5 5 5 5 30 27 6 28 76 83 66 69 41 26 16 85 93 62 53 14 5 7 5 5 4 5 2 2 4 5 5 18 40 69 100
0 1 0 0 0 0 2 5 5 5 5 5 17 75 94 62 25 7 24 22 5 5 5 5 5 6 5 5 5 4 2 0 0 0 0 1 5 5 47 100 100 100 100
5 5 5 3 1 5 24 27 6 55 34 79 96 100 80 29 29 11 5 28 54 62 46 89 68 8 5 5 4 2 0 1 3 0 0 0 5 5 13 91 100 100 100
68 5 5 5 5 5 11 60 68 95 96 98 43 40 7 10 19 37 43 93 57 84 32 5 5 0 0 0 0 0 0 0 0 0 0 1 4 5 60 97 100 98 100
100 100 100 100 100 100 76 93 98 34 6 5 5 5 14 39 81 73 100 100 92 62 5 0 0 0 0 0 0 0 0 0 0 3 5 5 77 86 100 100 86 91 78
100 100 100 100 100 100 100 100 69 17 5 5 7 31 96 96 93 69 26 6 2 0 0 0 0 0 0 0 0 0 0 0 4 4 28 43 60 68 55 71 81 74 78
100 100 100 100 100 100 40 5 5 5 5 17 16 6 2 4 1 0 0 0 0 0 0 0 0 0 0 0 0 0 0 1 3 0 0 2 3 3 5 7 5 6 19
100 100 100 62 10 25 5 5 5 5 5 23 49 1 5 5 5 5 0 0 0 0 0 0 0 0 0 0 0 0 0 1 0 0 0 0 4 4 3 5 5 39 99
17 46 43 16 5 5 5 4 5 14 97 98 12 5 5 5 5 5 5 5 5 5 5 0 0 0 0 0 0 0 0 0 0 0 0 0 0 4 5 5 5 19 19
5 5 4 3 1 5 5 9 97 91 23 5 5 5 5 5 5 5 5 5 2 0 0 5 5 5 2 0 0 0 0 3 4 5 0 5 5 5 15 40 98 90 5
5 5 5 5 5 31 74 100 93 13 6 7 5 5 5 5 5 5 3 0 0 0 0 3 5 5 31 27 5 5 5 5 5 5 5 34 8 20 95 99 92 5 5
14 20 7 60 100 100 87 6 7 72 83 10 5 5 5 4 0 0 0 0 0 0 0 0 0 0 0 0 5 5 12 57 72 74 90 5 13 98 100 100 100 100 99
52 5 14 27 66 98 91 78 69 99 29 26 5 3 0 0 0 0 0 0 0 0 0 0 0 0 1 5 5 64 96 83 100 100 31 5 45 100 96 100 100 100 99
8 5 5 5 80 94 83 82 50 5 5 1 2 0 0 0 0 0 0 0 0 0 0 0 0 3 5 5 6 92 100 100 100 98 86 100 100 100 100 91 100 100 100
5 5 24 25 13 99 100 11 5 5 5 1 0 0 0 0 0 0 0 0 0 0 1 5 16 58 5 5 5 7 96 96 90 86 100 100 50 80 5 46 100 100 99
5 5 13 85 100 84 6 1 5 5 5 0 0 0 0 0 0 0 0 0 0 0 5 66 100 79 71 68 6 91 90 12 16 100 85 5 5 58 22 63 97 100 92
100 100 100 90 45 5 5 4 5 5 0 0 0 0 0 0 0 0 0 0 0 17 100 100 100 100 97 77 100 100 100 100 100 100 8 4 52 86 99 91 98 94 100
100 100 48 5 5 5 5 4 3 0 0 0 0 0 0 0 0 0 0 1 5 23 64 100 100 100 100 100 100 100 100 100 100 98 5 36 100 100 100 99 96 100 100

GFSMW_prec_cloud_006.txt.gz
Cloud_Cover
94 95 100 5 5 0 0 0 0 1 0 0 0 0 0 0 0 5 19 37 9 5 9 19 5 0 0 0 5 52 99 95 86 100 50 27 5 10 46 47 9 2 1
99 100 100 58 2 1 0 0 2 32 5 0 0 0 0 4 5 13 26 12 4 4 4 5 6 1 11 12 18 74 96 100 100 100 100 100 69 84 12 7 5 13 5
91 86 100 48 10 4 4 25 77 50 5 5 4 2 5 6 5 5 5 5 5 3 0 1 0 0 6 12 30 29 59 67 74 100 100 100 100 86 44 56 68 85 100
34 86 100 100 100 99 100 100 100 98 30 18 5 31 62 18 5 1 0 0 0 0 0 4 5 5 6 8 15 25 33 8 6 5 9 54 86 100 100 100 87 22 100
60 8 90 100 100 100 99 85 38 67 96 75 38 5 5 5 0 0 0 1 5 5 5 5 5 5 5 5 5 5 5 5 5 5 5 5 7 6 43 33 7 56 97
87 7 87 100 97 13 19 9 60 64 18 5 5 23 5 0 0 1 5 5 5 14 24 12 5 9 5 5 5 29 31 34 71 75 48 41 8 5 18 42 37 56 10
100 7 2 2 4 0 0 0 0 0 0 0 0 0 0 2 2 5 5 5 5 5 5 10 7 5 5 5 5 5 5 5 5 5 3 5 5 5 5 5 10 45 16
100 43 0 0 0 0 0 0 0 0 0 0 0 0 0 4 5 5 5 5 16 5 5 5 13 37 34 6 5 5 5 5 5 5 5 2 2 0 0 2 80 79 30
79 20 2 0 0 0 0 0 0 0 0 0 0 4 5 5 5 13 48 12 5 6 10 17 10 5 5 5 5 5 5 5 5 5 2 4 0 0 0 5 9 98 54
31 22 5 5 4 1 0 0 5 17 5 5 4 5 6 11 42 96 50 49 63 54 17 5 5 5 5 5 10 5 3 2 2 0 0 0 0 0 1 5 5 37 100
6 1 5 8 9 32 29 79 72 16 42 56 50 78 96 100 100 86 83 12 5 5 5 5 7 6 7 1 0 0 0 0 0 0 0 0 1 44 5 5 5 5 45
5 5 6 96 100 100 100 100 100 100 100 100 100 100 98 86 17 5 5 5 5 4 5 1 0 0 0 0 0 0 0 0 0 0 0 1 0 1 1 2 4 5 87
7 31 8 58 100 100 100 100 100 100 63 5 5 7 5 5 6 5 5 5 5 5 0 0 0 0 0 0 0 0 0 0 0 5 4 1 0 0 0 0 0 5 97
79 72 98 100 100 100 100 100 81 56 12 15 5 7 27 9 5 5 3 2 0 0 0 0 0 0 0 0 0 0 0 0 3 5 89 69 35 0 0 1 4 23 25
100 100 100 100 100 100 92 87 96 74 24 9 5 8 5 5 5 0 0 4 0 0 0 0 0 0 0 0 0 0 0 0 0 5 24 99 98 4 5 37 6 32 17
100 100 100 100 100 100 99 46 17 33 20 5 10 16 5 0 4 0 0 0 0 0 0 0 0 0 0 0 0 0 0 0 0 1 2 1 8 5 5 5 38 90 100
100 100 100 100 100 97 50 31 11 5 39 66 51 5 5 5 0 0 0 0 0 0 0 0 0 0 0 0 0 0 5 5 5 5 1 5 5 74 21 10 91 64 81
100 100 97 90 84 71 23 5 5 64 70 6 6 5 5 4 0 0 0 2 0 0 0 0 0 0 0 0 2 5 5 5 5 5 5 27 64 5 100 95 64 98 10
96 94 97 62 91 14 26 59 100 51 6 5 5 5 5 0 0 0 0 0 1 0 0 0 0 0 0 0 5 17 5 5 5 5 5 99 16 42 100 100 79 5 14
53 22 83 9 5 5 5 27 24 5 5 5 5 1 0 0 4 3 0 4 0 0 0 0 0 0 0 2 34 71 92 36 5 18 72 5 50 100 100 100 100 98 5
5 5 5 5 5 15 57 76 5 5 5 0 0 0 1 5 4 1 2 0 0 0 0 0 0 0 5 5 66 100 100 84 100 99 18 5 61 100 100 100 81 99 100
5 5 5 5 36 94 49 5 5 5 1 0 4 4 36 4 1 4 0 0 0 0 0 0 2 5 72 23 62 100 100 100 100 62 5 37 100 100 14 5 96 100 99
19 17 5 5 5 5 5 5 5 0 0 1 5 5 5 5 5 0 0 0 0 0 0 5 80 99 89 32 5 40 98 99 100 44 70 97 94 6 5 16 67 76 63
31 13 8 62 95 100 20 4 0 3 16 31 5 5 5 5 1 0 0 0 0 2 7 100 97 98 90 81 10 98 86 92 57 77 100 50 5 5 20 22 47 82 100
5 24 30 96 99 25 3 3 5 5 5 4 5 5 5 1 0 0 0 0 2 37 100 94 100 98 97 61 100 100 100 100 100 100 71 5 7 79 97 97 100 96 100
14 50 96 93 8 5 5 5 5 5 5 5 5 5 5 0 0 0 0 5 5 49 7 75 100 100 100 100 100 100 100 100 93 35 12 63 97 100 100 100 100 100 100

GFSMW_prec_cloud_009.txt.gz
Cloud_Cover
82 96 100 88 100 59 5 5 0 0 0 0 0 0 0 0 0 0 0 0 5 10 65 76 12 5 5 5 0 5 5 4 44 79 33 84 10 2 4 5 5 5 14
23 94 100 99 21 36 65 60 1 0 1 1 5 0 0 0 0 0 1 4 5 10 7 5 4 3 0 0 0 0 0 5 5 29 57 7 27 10 30 52 82 100 93
5 93 88 100 39 12 96 98 89 79 93 5 2 0 0 0 3 5 5 5 5 2 0 0 0 0 0 0 0 0 0 0 3 4 12 18 3 1 26 51 52 33 8
5 8 81 10 50 6 51 100 100 93 88 5 4 5 5 3 4 5 4 5 5 0 0 0 4 5 2 0 0 0 4 3 1 5 5 3 1 0 0 0 0 1 1
5 6 99 64 5 5 5 6 49 100 100 100 100 94 60 5 5 2 4 5 0 0 0 0 0 0 0 0 0 3 5 7 5 5 5 6 22 5 4 5 0 0 0
56 55 76 100 5 36 19 5 5 4 53 98 100 99 39 4 2 0 0 0 0 0 1 1 0 2 3 38 77 36 7 5 4 2 0 14 72 90 77 4 1 0 0
5 5 5 3 5 75 100 100 22 0 0 0 0 0 0 0 0 0 0 1 4 5 5 5 12 6 6 5 5 5 5 5 4 5 8 19 4 3 3 4 5 12 42
2 5 5 0 5 77 100 100 76 5 2 5 1 5 1 0 0 4 5 17 11 7 48 62 43 83 98 16 5 5 5 5 4 4 0 0 0 0 0 3 57 67 5
3 5 0 0 0 5 13 100 90 43 49 20 5 5 39 71 62 31 33 30 70 82 100 100 99 58 12 8 5 5 5 5 0 0 0 0 0 2 5 51 67 75 48
0 1 0 0 0 0 7 9 18 98 53 43 74 74 84 60 37 6 29 80 99 79 67 66 33 41 7 5 5 5 0 0 0 0 0 0 1 5 4 1 4 11 39
0 0 0 0 0 4 5 28 68 8 8 22 91 93 56 12 77 68 56 18 5 5 4 4 5 5 5 5 2 0 0 0 0 0 0 5 4 0 0 0 0 5 11
0 0 0 0 4 5 74 10 5 5 8 91 89 100 99 88 41 56 5 5 5 3 5 5 5 5 5 0 0 0 0 0 0 0 3 3 0 0 0 0 3 5 43
0 0 0 2 63 92 18 48 83 92 100 100 100 78 12 5 5 5 5 5 5 5 5 5 5 2 0 0 0 0 0 0 0 0 0 0 0 0 1 5 5 81 80
0 5 5 5 60 96 62 79 97 100 96 89 49 9 5 9 15 5 5 5 5 5 5 3 0 0 0 0 0 0 0 0 0 0 0 0 5 5 5 5 58 85 5
5 5 5 84 90 96 98 100 84 77 94 100 92 32 50 32 27 20 5 16 5 5 0 0 0 0 0 0 0 0 0 0 0 4 4 4 5 5 55 98 84 83 82
18 31 5 55 99 99 82 70 100 100 100 99 100 84 72 12 5 5 5 5 4 0 0 0 0 0 0 0 0 5 4 5 5 5 5 5 5 18 94 95 100 100 100
100 100 100 100 99 77 82 100 100 100 100 98 86 42 5 5 5 4 5 0 0 0 0 0 0 0 0 0 2 5 5 14 5 32 5 5 38 69 86 15 75 87 39
100 100 100 100 96 80 100 100 100 100 77 33 7 5 5 4 0 0 0 0 0 0 0 0 0 0 0 0 5 13 18 6 57 65 5 88 68 88 78 89 100 11 0
100 99 99 100 40 82 88 99 95 9 5 5 2 5 0 0 0 0 0 0 0 0 0 0 0 0 0 2 6 73 21 26 60 16 97 100 36 82 100 100 34 5 5
100 94 92 36 47 78 100 41 47 94 7 5 0 0 0 0 0 0 0 0 0 0 0 0 0 0 0 5 72 98 70 39 24 83 80 19 91 100 100 100 98 41 7
98 58 8 31 100 91 70 100 94 8 5 0 0 0 1 2 0 0 2 0 0 0 0 0 0 2 5 29 83 100 100 88 97 94 40 25 26 100 100 100 43 46 100
39 57 87 100 17 60 100 52 5 5 1 0 1 4 2 2 1 0 0 4 1 0 0 0 4 5 41 68 97 100 100 100 100 78 51 56 99 100 100 33 93 100 96
98 100 55 7 42 42 77 5 5 2 0 4 5 5 5 0 0 1 5 4 1 0 0 5 40 46 5 23 31 95 100 100 100 92 100 94 6 93 33 38 89 79 76
84 51 6 6 41 59 45 63 2 5 5 5 5 5 0 2 5 0 0 4 0 4 5 67 97 72 11 57 12 100 98 99 90 88 22 5 5 99 82 7 21 95 100
50 5 5 5 22 95 59 5 8 6 5 5 0 0 4 3 0 4 5 1 5 18 84 79 97 94 98 90 100 100 100 100 100 100 5 6 92 57 14 15 97 100 100
24 84 33 59 94 18 5 5 5 5 5 5 0 2 0 3 1 5 0 5 5 30 16 91 100 100 100 100 100 100 100 100 100 83 5 68 92 99 95 100 100 100 100

GFSMW_prec_cloud_012.txt.gz
Cloud_Cover
0 0 4 5 90 94 6 8 5 5 5 2 0 4 11 1 0 0 0 0 0 0 0 0 0 0 24 5 5 5 0 0 0 0 0 0 0 0 0 75 52 5 5
0 2 5 38 98 72 68 59 39 5 18 37 58 97 51 19 0 0 0 0 2 5 20 33 22 41 5 5 0 0 0 0 0 0 0 0 13 8 5 5 5 5 5
0 1 3 5 39 96 96 100 100 99 46 100 87 20 13 2 0 0 4 5 5 5 5 5 5 5 5 1 0 0 0 1 5 4 0 0 0 0 5 5 5 4 4
0 0 0 0 13 26 54 17 88 91 62 100 36 13 5 5 5 5 5 4 5 5 5 4 4 5 0 0 0 5 5 0 0 5 5 5 1 3 2 0 1 5 5
5 5 2 5 5 5 47 97 100 100 96 7 5 2 0 5 5 5 5 5 50 7 0 2 0 0 0 2 5 5 5 5 5 5 5 5 1 0 0 2 0 0 0
43 27 5 45 64 11 5 5 40 62 87 30 6 25 29 5 3 5 1 0 0 0 0 0 0 4 3 5 5 5 5 8 5 2 0 0 1 0 2 4 4 3 0
0 5 5 5 2 0 5 5 27 49 7 24 58 48 5 5 5 2 3 5 2 0 3 5 5 17 61 26 19 14 5 5 5 0 4 5 5 3 0 0 0 0 1
0 0 0 0 0 0 0 2 3 14 8 10 48 54 12 72 33 5 5 5 5 5 19 19 75 77 47 13 5 5 5 5 4 5 5 5 5 0 0 2 5 5 9
0 0 0 0 0 0 5 0 0 1 5 2 5 5 52 88 99 45 52 69 78 89 100 90 38 5 5 5 5 5 5 1 5 5 1 0 0 0 0 5 4 5 6
0 0 0 0 0 0 0 0 6 12 0 3 3 6 89 69 70 88 97 98 99 99 59 5 5 5 3 3 4 5 4 5 0 1 0 0 0 1 0 0 0 1 15
0 0 0 0 0 0 0 0 5 16 5 72 81 26 12 50 88 93 98 94 11 5 3 0 5 5 5 5 5 5 1 0 0 0 0 0 0 2 0 0 0 5 18
0 0 0 0 0 0 0 0 0 0 28 80 5 21 51 68 29 30 57 14 5 3 5 4 5 5 5 4 3 0 0 0 0 0 0 0 0 0 1 5 5 8 88
0 0 0 0 0 0 0 0 1 5 5 14 63 55 88 66 97 75 5 29 5 5 4 5 5 5 0 0 0 0 0 0 0 0 0 0 4 5 5 23 61 84 87
0 0 0 0 0 5 5 5 5 5 32 80 77 16 18 68 71 5 41 16 5 5 5 5 3 0 0 0 0 0 0 0 0 0 5 5 17 29 38 57 94 89 69
0 0 1 3 5 5 5 5 48 85 85 67 6 49 88 91 56 99 56 3 5 5 5 5 0 0 0 0 0 0 0 3 4 5 5 6 69 57 84 96 97 80 13
0 3 5 5 5 5 8 93 98 100 82 13 76 100 91 95 91 5 5 5 2 5 0 0 0 0 0 0 0 5 5 5 8 5 13 63 67 80 99 100 100 100 99
0 0 0 5 5 62 100 88 55 61 68 83 87 97 100 98 6 4 5 5 2 0 0 0 0 0 0 0 4 6 5 57 49 60 73 51 86 99 100 82 100 100 100
4 0 25 69 100 92 87 78 97 96 86 64 100 99 29 5 0 5 3 0 0 0 0 0 0 0 0 0 5 52 45 61 78 93 98 100 100 100 100 40 80 100 100
53 92 100 96 100 100 100 90 72 86 80 96 30 5 5 5 5 0 0 0 0 0 0 0 0 0 0 0 30 74 79 77 80 94 100 100 100 100 100 100 100 89 84
84 100 100 100 100 100 94 35 29 94 79 5 5 5 5 0 0 0 0 0 0 0 0 0 0 0 0 7 71 97 100 90 96 98 100 100 100 100 100 98 96 100 5
100 100 100 100 94 82 100 55 100 100 93 6 5 5 0 2 2 4 0 0 0 0 0 0 0 0 4 11 58 99 100 99 51 92 84 93 100 100 100 100 100 100 100
100 100 98 58 96 90 92 100 100 74 6 5 0 5 5 5 5 4 0 0 0 0 0 0 0 5 5 55 77 100 100 100 100 79 73 100 100 100 100 100 100 100 100
100 64 99 83 97 100 100 100 51 5 4 5 5 5 5 5 0 0 0 0 0 0 0 0 5 5 21 76 99 100 100 100 100 100 100 100 100 100 100 100 100 100 100
100 100 100 100 80 100 89 26 5 5 5 5 5 5 5 1 0 0 0 0 0 0 0 5 5 46 85 95 100 82 46 43 94 100 96 65 100 100 100 100 74 82 99
100 100 96 42 38 5 5 5 5 5 5 4 4 0 0 0 0 0 0 0 0 4 5 5 72 92 96 100 100 100 100 95 100 100 16 98 100 97 92 81 91 85 96
100 44 12 21 5 5 5 5 3 1 4 4 1 3 0 0 0 0 0 0 5 5 6 53 97 98 100 100 100 100 100 100 100 100 100 100 97 100 95 95 98 100 100

GFSMW_prec_cloud_015.txt.gz
Cloud_Cover
0 0 0 0 0 5 28 100 81 40 97 81 11 5 0 0 18 5 3 0 0 0 0 0 0 0 0 0 1 3 13 44 5 9 5 0 0 0 0 0 5 5 5
0 0 0 0 0 8 16 100 81 92 100 88 74 58 17 25 46 40 5 0 0 0 0 2 4 5 11 32 55 59 37 5 5 5 0 0 0 0 1 3 5 5 5
0 0 0 0 0 19 12 11 96 100 87 95 100 100 100 100 88 27 8 0 0 0 0 2 5 5 5 5 5 4 0 4 5 0 0 0 0 2 5 57 82 75 80
1 0 0 1 0 1 5 10 72 66 66 35 51 14 7 5 5 1 1 3 2 5 5 4 1 0 0 0 0 0 1 0 3 4 0 0 1 0 0 5 5 6 5
0 0 3 1 2 5 8 98 100 100 93 33 32 12 7 6 5 5 5 11 21 6 5 5 5 0 4 5 5 5 5 4 3 3 2 5 5 20 6 1 0 0 0
0 0 5 5 5 59 96 95 70 2 1 4 5 5 3 2 3 5 5 17 11 31 21 11 38 70 64 20 6 5 3 1 5 4 5 2 0 0 0 0 1 0 0
4 5 5 5 11 89 92 5 5 0 0 0 0 0 0 0 0 0 2 5 5 10 6 10 51 58 57 11 5 14 10 5 4 2 0 2 0 2 2 0 0 0 0
5 5 5 3 3 5 5 1 0 0 0 0 0 0 0 0 2 2 5 5 8 5 6 6 9 6 15 56 5 5 5 3 0 0 0 5 5 5 1 0 0 2 0
5 5 2 5 4 0 0 0 0 0 0 0 0 5 4 5 2 5 5 5 28 70 34 56 76 59 6 5 5 5 5 5 5 0 5 0 0 0 0 0 5 5 0
5 1 0 2 0 1 0 0 0 0 0 0 0 0 0 0 4 5 10 85 96 68 100 100 100 76 56 26 10 29 8 2 0 1 0 0 0 0 0 0 3 4 5
0 0 0 0 5 1 0 0 0 0 0 0 0 0 2 5 5 58 100 92 99 100 100 100 71 66 99 34 10 1 0 4 1 0 0 0 0 0 0 0 2 5 40
0 0 0 0 0 0 0 0 0 0 0 0 0 4 5 6 99 100 97 100 100 76 78 99 100 100 30 1 5 5 0 0 0 0 0 0 0 0 5 5 5 8 5
0 0 0 0 0 0 0 0 0 0 0 0 4 5 12 84 32 50 70 55 36 56 77 100 42 5 5 4 0 0 0 0 0 0 0 0 5 5 5 11 5 5 45
0 0 0 0 0 0 0 0 0 2 1 4 5 53 5 16 15 36 56 42 61 57 43 32 42 6 0 0 0 0 0 0 0 0 5 5 5 15 5 5 52 88 39
0 0 0 0 0 0 0 0 5 5 5 22 82 70 5 11 56 45 5 42 68 100 33 5 0 0 0 0 0 0 0 4 5 5 5 5 62 63 100 100 98 84 83
0 0 0 0 0 0 0 4 0 5 80 100 83 22 97 100 42 9 5 33 41 5 0 0 0 0 0 0 0 0 5 5 5 5 5 5 52 83 93 100 100 100 100
0 0 0 0 0 0 0 1 13 78 100 90 78 100 100 57 5 6 9 9 5 0 0 4 2 0 0 0 0 5 5 7 5 24 61 15 5 100 37 48 96 100 97
0 5 5 5 5 2 4 49 98 99 76 94 100 100 92 5 5 5 8 2 0 4 5 3 0 0 0 0 0 8 5 5 24 62 98 65 54 63 100 100 54 100 69
3 5 5 3 5 28 89 100 100 100 100 100 96 24 5 5 5 5 0 4 5 3 0 0 0 0 0 0 5 44 29 5 5 100 100 100 98 97 100 100 93 8 5
4 12 48 84 100 100 100 100 100 100 99 100 89 11 5 5 0 0 3 5 1 0 0 0 0 0 0 0 8 65 92 56 73 67 90 92 100 100 100 100 100 95 51
37 81 99 100 100 100 100 100 88 47 5 7 50 20 5 2 0 4 3 0 0 0 0 0 0 0 0 5 21 82 100 100 88 97 60 82 100 100 100 100 100 100 100
100 100 100 100 100 100 79 81 88 12 22 48 31 5 5 5 4 0 0 0 0 0 0 0 0 0 4 5 12 96 100 100 100 98 67 90 100 100 100 100 100 100 98
100 100 100 100 98 90 73 97 98 61 98 40 5 5 5 5 5 0 0 0 0 0 0 0 0 1 5 5 63 98 100 100 100 100 100 98 95 100 74 92 100 100 70
100 100 100 94 84 100 100 100 97 99 9 5 5 5 5 5 0 0 0 0 0 0 0 1 5 5 6 8 7 11 85 83 100 99 99 35 98 79 98 97 63 50 100
90 62 76 99 100 86 100 100 100 32 5 5 5 5 5 0 0 0 0 0 0 1 5 5 28 80 82 52 100 100 100 100 100 100 59 84 38 85 90 55 97 100 100
93 99 100 100 100 100 100 100 48 5 5 5 5 1 0 0 0 0 0 0 0 2 5 48 95 88 100 100 100 100 100 100 100 100 93 99 100 99 99 100 100 100 100

GFSMW_prec_cloud_021.txt.gz
Cloud_Cover
0 0 5 88 100 100 100 100 24 73 7 35 14 8 42 44 39 70 95 79 69 94 100 100 95 52 5 5 5 0 0 0 0 0 0 0 0 2 4 5 5 5 5
0 9 55 39 34 66 25 6 24 3 5 5 5 6 56 20 5 75 83 85 82 64 33 12 5 5 2 1 0 0 0 3 0 0 0 1 4 0 0 0 0 0 1
0 86 6 5 5 5 5 4 18 5 5 4 2 5 5 1 26 9 8 5 21 18 10 10 5 5 5 4 2 0 0 0 0 0 0 0 4 4 33 37 33 9 18
5 75 6 13 45 6 26 9 1 2 5 0 4 0 0 0 5 0 0 0 0 1 2 0 0 0 0 0 0 0 0 0 0 0 0 0 0 0 0 14 83 100 100
10 47 5 40 51 5 5 0 0 0 0 0 0 5 3 60 63 5 0 0 2 0 0 0 0 0 0 0 0 2 0 0 0 0 0 0 0 0 0 0 0 0 3
6 31 11 70 18 5 4 0 0 3 0 0 5 53 48 5 2 0 0 0 0 0 0 0 0 0 5 5 5 5 5 5 4 0 0 0 0 1 3 0 0 1 2
5 8 41 68 5 5 2 0 3 4 1 5 2 0 1 0 0 0 0 0 0 0 0 0 0 5 5 5 5 5 5 5 0 0 0 0 0 0 0 0 0 0 1
5 5 49 9 5 5 0 4 5 4 5 3 0 0 0 0 0 0 0 0 0 0 3 5 5 12 5 5 5 5 5 5 0 5 5 4 5 2 5 5 0 0 0
5 15 9 5 5 5 1 0 4 3 0 0 0 0 0 0 0 0 0 0 0 5 7 5 33 54 5 5 5 5 5 5 5 5 5 5 3 5 5 5 0 0 2
5 5 5 5 5 3 5 0 0 0 4 2 4 0 0 0 0 0 0 2 5 51 81 82 73 6 5 5 5 5 5 5 18 10 5 5 5 2 0 0 0 0 3
5 5 3 0 2 0 5 5 4 1 1 5 5 0 0 0 0 0 11 61 74 93 80 76 50 56 10 5 5 5 29 91 64 8 5 4 0 0 0 0 2 4 47
5 5 0 0 1 5 5 5 5 5 5 5 0 0 0 0 0 5 22 90 99 100 84 72 61 58 5 5 7 99 90 13 4 1 0 0 0 0 0 5 5 5 5
0 0 0 0 5 5 5 5 5 4 0 0 0 0 0 5 5 5 60 59 100 55 50 80 67 90 64 64 67 5 0 2 2 0 0 0 0 1 5 5 5 41 95
0 0 0 3 5 5 5 5 2 1 0 0 0 2 5 5 5 62 23 99 97 92 100 93 89 54 65 17 5 4 3 0 0 0 0 0 1 5 42 24 93 99 72
0 0 0 0 5 5 5 5 5 5 5 0 5 3 4 35 50 82 85 93 99 100 100 60 68 52 6 5 5 0 0 0 0 0 0 0 5 6 83 100 71 96 50
0 0 0 0 5 5 3 0 5 5 5 4 5 4 50 83 97 60 100 100 100 86 81 81 6 5 2 0 0 0 0 0 0 0 2 1 5 5 64 96 100 100 100
0 0 0 5 5 5 3 4 5 5 5 5 7 37 80 97 93 100 100 100 97 100 25 5 4 0 0 0 0 0 0 0 3 5 5 5 5 21 31 9 85 85 86
0 4 5 4 1 0 5 5 5 5 10 71 95 90 100 100 100 100 92 98 74 5 5 5 3 4 5 1 0 0 5 5 5 5 43 72 38 59 100 87 96 91 94
1 0 0 0 2 5 5 5 62 85 99 73 98 100 100 100 100 100 92 6 5 5 5 5 5 4 0 0 0 5 5 5 5 5 72 100 54 86 100 100 100 87 8
5 4 5 5 5 6 51 72 93 100 100 100 100 100 100 100 100 89 48 5 5 5 5 5 0 0 0 0 5 34 74 5 5 5 11 60 87 100 100 100 100 75 5
4 5 5 5 5 8 15 76 89 100 100 93 98 100 100 100 90 15 8 10 5 5 5 0 4 4 0 0 5 75 100 95 68 58 82 19 23 100 100 100 86 82 100
5 5 5 5 28 52 96 88 74 61 97 100 100 100 96 33 8 35 77 41 5 4 5 5 2 0 0 0 4 58 100 100 100 100 12 32 100 100 100 99 100 100 100
65 59 57 48 58 15 10 57 99 100 92 100 100 79 13 82 92 73 5 5 5 5 5 0 0 0 0 2 0 5 100 100 100 93 99 88 79 43 6 62 100 100 74
66 71 53 78 100 100 100 100 100 100 95 83 17 82 99 99 66 5 5 5 5 5 0 0 0 3 5 5 10 98 93 86 68 95 90 8 5 40 55 65 94 86 100
100 100 100 100 100 100 80 38 85 68 12 32 95 96 95 20 5 6 16 5 4 0 0 0 5 5 5 8 100 100 100 100 100 100 6 6 66 98 93 100 100 100 100
100 100 100 100 86 55 22 20 5 17 84 93 98 50 5 6 37 9 5 1 0 0 0 4 5 5 34 86 100 100 100 100 100 83 41 100 100 100 100 100 100 100 100

GFSMW_prec_cloud_024.txt.gz
Cloud_Cover
0 0 0 95 100 100 100 100 100 100 100 100 100 100 100 100 100 100 92 14 5 5 22 30 15 5 5 5 6 21 32 55 5 5 0 0 0 0 0 0 0 2 0
0 0 0 16 100 100 99 99 100 100 100 100 100 79 32 81 100 62 1 1 1 2 4 4 5 3 4 4 4 0 0 0 0 0 0 0 0 0 0 0 0 0 0
0 0 0 0 4 5 15 31 5 9 73 97 75 48 93 95 5 0 0 5 3 0 0 0 0 0 0 0 0 0 0 0 0 0 0 0 0 0 25 5 6 3 0
0 0 0 0 0 5 6 7 5 5 5 3 5 5 5 0 0 2 5 5 4 0 0 0 0 0 0 0 0 0 0 0 0 3 0 0 0 0 0 2 0 0 4
0 0 0 0 5 11 73 9 5 5 5 5 5 5 0 0 1 5 5 5 0 0 0 0 0 0 0 0 0 0 0 5 4 1 0 0 0 0 0 0 0 0 4
0 0 0 0 5 5 17 5 5 5 5 5 5 4 0 2 4 0 0 0 0 0 0 0 0 0 0 0 0 3 5 5 2 0 0 0 0 0 0 0 0 0 0
0 0 0 5 5 6 59 9 5 16 5 61 5 5 2 5 0 0 0 0 0 0 0 0 0 0 0 2 5 5 5 4 0 0 0 0 0 0 0 0 0 0 0
0 0 1 5 33 16 5 5 14 13 5 5 5 5 5 0 0 0 0 0 0 0 0 0 0 0 5 5 5 5 3 5 4 4 0 0 0 0 0 0 0 0 0
0 0 5 6 5 5 5 5 5 5 0 4 5 4 0 0 0 0 0 0 0 0 0 0 1 5 5 5 5 5 5 5 5 5 3 0 0 4 5 3 0 4 5
0 0 5 7 5 10 5 5 5 5 5 0 0 0 5 5 5 0 0 0 0 0 1 4 5 5 5 5 5 5 5 5 5 5 3 5 5 5 4 0 0 0 5
0 0 0 5 5 30 5 5 5 5 5 0 0 5 5 5 0 0 0 0 0 1 1 5 5 5 5 5 5 5 5 5 5 5 5 3 0 0 0 0 0 1 5
0 2 4 5 5 5 5 5 5 5 3 0 5 5 5 0 0 0 5 5 3 3 5 5 58 17 5 5 5 5 5 5 5 5 0 0 0 0 0 0 4 5 5
0 3 4 5 5 5 5 5 5 4 2 5 5 5 0 3 3 5 4 0 5 5 11 67 8 54 33 17 53 5 5 5 2 0 0 0 4 1 0 5 5 35 85
2 0 5 5 7 62 6 5 5 5 5 5 5 4 4 5 5 5 0 5 18 77 30 38 68 55 81 27 5 4 4 0 1 1 5 1 0 0 17 73 47 99 59
1 0 0 5 8 9 5 5 5 5 5 5 5 5 5 5 5 4 5 69 70 8 68 86 74 28 5 5 5 4 0 0 4 4 0 4 5 5 85 100 100 99 97
0 0 0 5 5 5 4 5 5 5 5 5 5 5 5 5 5 65 100 68 44 86 66 50 5 5 5 5 5 5 4 5 0 1 5 5 5 6 100 98 100 100 100
0 0 3 5 5 4 0 5 2 4 5 5 5 5 11 63 78 68 67 100 100 98 72 73 50 5 5 5 5 5 3 4 4 5 5 5 5 32 5 22 94 19 69
4 3 5 5 5 0 0 0 5 5 5 8 57 69 88 66 66 92 97 97 91 74 100 80 6 5 5 5 2 4 5 5 1 0 5 34 5 5 100 99 97 93 26
5 5 5 5 5 0 0 0 5 5 40 99 97 22 56 73 67 70 94 59 95 98 9 5 18 5 5 0 2 5 5 5 3 4 27 78 53 36 100 100 81 74 7
5 5 5 5 5 2 2 5 5 49 62 94 91 76 11 77 95 92 100 100 52 8 48 61 5 5 4 2 3 30 5 5 5 21 78 84 86 100 100 100 94 45 6
5 5 5 5 5 5 5 5 28 92 100 93 4 14 98 75 37 99 96 22 8 68 28 5 5 5 0 0 5 56 99 26 86 61 74 5 49 100 100 100 67 62 100
0 4 4 4 5 5 14 88 100 78 18 5 29 85 38 93 100 61 6 34 19 5 5 5 5 1 0 0 3 85 100 100 89 84 45 73 100 100 97 86 100 100 100
5 5 5 5 58 67 33 14 9 5 5 5 5 68 100 57 6 5 38 6 5 5 5 4 0 0 0 3 4 67 100 100 100 100 100 99 71 6 5 77 100 95 98
5 5 5 6 6 22 5 5 5 7 5 30 95 76 5 5 5 5 5 5 5 5 4 0 0 5 5 5 44 85 99 92 82 74 73 5 5 5 42 60 30 82 100
21 5 5 5 5 5 5 5 5 5 43 71 41 5 5 5 5 5 7 19 5 5 0 5 5 5 5 17 100 100 100 100 100 100 5 5 35 90 71 88 93 100 100
13 5 5 5 5 5 5 5 8 59 60 56 11 5 5 5 5 67 98 23 5 5 5 2 5 5 11 66 97 100 100 100 100 69 44 99 100 100 100 100 100 100 100

GFSMW_prec_cloud_027.txt.gz
Cloud_Cover
0 0 0 0 0 0 0 81 100 100 100 100 100 100 100 100 100 100 100 100 82 100 46 4 0 0 0 0 0 0 0 0 0 0 0 0 0 0 0 0 0 0 0
0 0 0 0 0 0 0 4 100 100 100 100 100 100 100 100 100 100 100 100 6 4 4 3 0 0 0 0 0 0 0 0 0 0 0 0 0 0 0 4 5 4 4
0 0 0 0 0 0 0 0 24 100 100 100 100 100 100 100 100 100 100 66 4 0 0 0 0 0 0 0 0 0 0 0 0 0 0 0 0 0 4 4 3 1 0
0 0 0 0 0 0 0 0 0 30 100 100 97 77 41 75 100 100 6 0 0 1 0 0 0 0 0 0 0 0 0 0 0 0 0 0 0 0 0 0 0 0 0
0 0 0 0 0 0 0 0 0 2 62 46 16 33 86 98 54 5 5 5 2 0 0 0 0 0 0 0 0 0 0 0 0 0 0 0 0 0 0 0 0 0 0
0 0 0 0 0 0 0 0 0 5 32 59 44 10 5 29 18 5 5 5 1 0 0 0 0 0 0 0 0 0 0 0 0 3 0 0 0 0 0 0 0 0 0
0 0 0 0 0 0 0 0 0 5 5 6 5 5 30 73 72 75 5 5 0 0 0 0 0 1 0 0 0 0 1 4 2 0 0 0 0 0 0 0 0 0 0
0 0 0 0 0 0 0 0 3 5 5 5 5 5 5 69 9 5 5 0 0 0 0 0 0 0 0 0 0 0 0 0 0 3 0 5 0 0 0 0 0 3 0
0 0 0 0 0 0 3 5 0 5 5 5 9 8 6 5 5 1 4 5 5 0 0 0 0 0 0 0 0 0 1 4 5 5 5 5 5 5 2 0 0 5 29
0 0 0 0 0 2 5 0 0 3 5 5 5 5 5 5 2 5 5 5 1 0 0 0 3 1 0 0 1 5 5 5 5 5 5 5 2 0 0 0 0 0 5
0 0 0 0 0 2 0 5 0 5 4 5 5 46 27 5 5 5 5 0 0 0 1 0 4 0 3 5 5 5 5 6 46 10 5 4 0 0 0 0 0 5 5
1 0 0 0 0 0 1 0 3 5 5 5 42 66 62 5 5 5 0 0 0 5 0 4 3 5 5 5 5 45 81 80 10 5 5 0 0 4 0 0 4 5 5
12 0 2 5 0 0 4 0 0 5 5 22 94 71 8 5 5 4 4 5 5 5 1 5 5 5 5 38 88 90 42 5 5 4 2 0 0 1 5 5 5 12 88
35 52 5 2 0 0 1 0 5 5 6 30 62 62 5 5 5 5 5 5 5 5 5 5 38 33 77 69 14 5 5 5 5 0 0 0 1 5 5 34 66 99 63
92 5 4 0 0 0 2 4 5 5 5 53 69 29 5 5 5 5 72 5 10 5 5 89 58 50 5 5 5 5 4 5 1 0 0 0 2 5 58 100 75 79 89
60 5 0 0 0 4 4 5 5 5 8 65 57 5 5 5 46 97 64 93 81 89 24 14 5 7 5 5 5 3 5 5 3 0 0 0 0 5 36 61 100 100 100
96 5 0 1 0 1 5 5 5 5 22 11 5 5 12 92 100 100 97 86 71 5 9 11 5 5 5 5 5 5 5 3 0 0 0 0 5 5 5 6 51 100 100
14 3 5 5 5 1 5 5 5 5 5 5 5 12 97 98 100 91 90 46 12 60 79 45 24 5 5 5 1 5 5 5 0 0 3 5 5 14 100 79 97 8 5
57 5 5 5 5 5 5 5 5 5 5 5 11 92 100 98 99 85 2 53 95 65 88 7 5 5 5 0 3 5 5 4 5 5 91 78 94 83 100 100 77 77 4
26 18 5 5 4 0 2 5 5 5 5 100 96 99 100 99 5 5 81 94 82 90 7 5 5 5 3 5 5 5 5 5 6 73 6 92 97 100 100 100 97 42 7
69 60 5 5 5 5 5 5 9 66 70 84 100 100 26 5 9 64 100 98 37 5 5 12 5 5 6 5 4 5 33 5 99 17 39 5 67 100 100 100 58 48 100
100 73 5 5 4 5 5 5 6 31 78 99 54 5 5 8 98 100 54 5 5 8 12 5 79 97 26 5 5 37 88 99 97 72 5 45 98 100 79 51 99 100 99
8 5 5 5 43 23 29 68 67 84 8 5 55 38 19 77 64 8 5 5 8 5 5 11 70 9 5 5 4 7 100 100 100 72 96 95 67 6 5 52 100 91 99
28 64 66 56 66 69 31 57 61 56 26 5 5 5 5 5 5 5 18 30 5 27 71 78 75 66 5 5 7 87 100 100 99 100 56 5 5 5 6 14 66 63 100
91 93 83 89 100 85 51 16 5 5 5 5 40 16 5 5 5 5 5 29 88 94 61 50 6 5 5 20 100 100 100 100 100 100 9 5 16 70 71 66 92 100 100
100 98 51 6 5 5 5 4 5 5 12 9 5 5 5 5 23 57 89 94 77 82 47 5 5 5 5 51 99 100 100 100 100 56 25 95 100 100 100 100 100 99 100

GFSMW_prec_cloud_030.txt.gz
Cloud_Cover
0 0 0 0 0 0 0 0 0 0 0 0 4 5 96 100 100 100 100 100 100 100 41 50 100 100 25 19 5 5 0 0 0 0 0 0 0 0 0 0 0 0 0
0 0 0 0 0 0 0 0 0 0 0 0 14 75 100 100 100 100 100 100 100 100 41 100 98 89 40 5 4 0 0 0 0 0 0 0 0 0 0 0 0 0 0
0 0 0 0 0 0 0 0 0 0 0 0 2 99 100 100 100 100 100 100 100 100 100 30 42 18 5 2 2 0 0 0 0 0 0 0 0 0 0 0 0 0 0
0 0 0 0 0 0 0 0 0 0 0 0 0 98 100 100 100 100 100 100 100 59 6 5 5 5 5 5 0 0 0 0 0 0 0 0 0 0 2 1 0 0 0
0 0 0 0 0 1 2 0 0 0 0 0 0 10 36 85 100 100 100 95 36 5 5 5 5 5 5 2 0 0 0 0 0 0 0 0 0 0 0 2 0 0 2
0 0 0 0 0 0 0 0 0 0 0 0 0 48 94 100 100 100 99 5 17 5 16 14 45 10 5 0 0 0 0 0 0 0 0 0 0 0 0 0 0 0 0
0 0 0 0 0 0 0 0 0 0 0 5 97 100 100 100 100 44 3 5 5 5 26 52 5 5 0 0 0 0 0 0 0 0 0 0 0 0 0 0 0 0 0
0 0 0 0 0 0 0 0 0 0 55 100 100 100 66 30 7 3 5 5 5 5 5 5 5 0 0 0 0 0 0 0 0 2 5 2 0 4 0 0 0 2 0
0 0 0 0 0 0 0 0 0 8 67 98 92 9 25 5 5 3 5 5 19 8 5 5 0 0 0 0 0 0 0 4 5 4 2 5 5 5 5 3 2 3 5
5 0 0 0 0 0 0 0 1 3 22 39 0 5 5 2 5 5 42 40 48 28 5 4 0 0 1 0 0 4 5 5 5 5 5 5 5 2 0 0 1 4 5
5 2 0 0 3 0 0 1 47 57 56 7 1 5 5 1 5 5 42 18 36 6 5 2 5 5 5 1 5 5 5 5 5 5 5 0 0 0 0 0 4 4 5
14 6 0 0 0 0 0 11 88 86 65 5 1 5 5 3 5 5 5 5 5 5 5 5 5 5 5 5 5 5 5 5 5 5 3 0 0 0 0 0 5 5 5
20 5 0 0 4 0 1 48 98 64 5 5 0 5 5 5 14 11 5 5 5 5 5 5 5 5 5 5 5 5 5 5 5 4 0 0 0 0 0 3 5 12 76
2 3 3 0 0 2 4 16 38 6 0 0 0 5 5 5 22 9 5 7 8 5 27 60 26 48 14 5 5 5 5 5 5 5 5 3 0 0 5 59 84 100 78
87 92 24 0 0 2 4 5 5 5 4 4 5 5 5 11 48 12 14 19 5 65 90 60 37 5 3 5 5 5 5 5 5 5 4 0 0 5 36 100 98 100 16
100 94 48 94 74 79 5 5 5 5 5 9 5 5 5 6 20 20 39 32 65 87 52 55 3 3 5 5 5 5 5 5 5 1 2 5 5 5 14 30 100 100 100
100 99 100 100 100 90 5 5 5 14 52 28 52 23 5 60 62 47 62 88 98 67 8 0 5 5 5 5 5 5 5 5 5 5 5 5 5 5 5 5 62 100 81
99 93 100 100 99 8 4 5 39 47 15 41 20 62 78 39 6 82 87 99 64 7 3 5 5 5 5 5 5 5 5 24 43 77 34 5 5 5 100 41 100 17 5
100 100 100 100 99 11 5 5 35 64 34 5 5 5 5 34 85 99 100 95 7 5 5 5 47 5 5 5 5 29 96 97 80 59 6 8 36 81 100 100 82 38 5
100 100 100 99 41 5 6 5 5 10 5 5 6 28 75 92 100 100 68 5 5 5 41 49 5 5 5 5 40 49 6 10 5 63 11 6 97 100 100 100 99 68 4
100 100 100 96 100 95 8 29 63 52 6 31 83 95 86 94 39 5 5 5 14 43 5 5 5 5 5 5 14 75 25 12 92 34 24 5 74 100 100 100 64 33 100
100 100 100 100 100 99 83 78 58 17 69 90 95 79 40 5 5 3 5 42 9 5 5 5 29 76 44 48 35 5 71 82 89 74 26 68 100 100 85 31 92 100 97
100 100 100 98 62 33 35 88 93 82 93 35 34 6 5 1 5 44 14 5 5 5 5 5 56 62 93 7 5 5 35 73 100 70 96 91 76 7 5 33 100 90 18
100 100 45 34 75 91 95 94 98 100 92 37 5 5 5 21 42 5 5 5 5 5 5 5 5 5 5 3 6 31 7 40 70 78 72 5 5 5 5 12 5 5 89
97 88 96 100 100 100 100 100 100 92 13 5 5 5 12 5 5 5 5 5 5 5 5 5 5 5 5 7 88 100 100 100 100 100 5 5 10 64 44 27 38 70 100
100 100 100 100 100 100 100 96 22 5 5 5 5 5 5 5 5 5 5 5 4 4 1 0 5 5 5 30 83 100 100 100 100 70 6 89 100 100 100 100 100 99 100

GFSMW_prec_cloud_033.txt.gz
Cloud_Cover
0 0 0 0 0 0 0 0 0 2 0 0 1 3 5 58 52 99 100 100 100 100 100 100 100 100 100 100 100 100 100 84 10 5 5 0 0 0 0 0 0 0 0
0 0 0 0 0 0 0 0 0 0 0 0 0 0 25 79 23 84 100 100 100 100 100 100 100 100 100 100 100 80 38 34 91 6 1 4 0 0 0 0 0 0 0
0 0 0 0 0 0 0 0 0 0 0 0 0 0 60 72 64 99 100 100 100 100 100 100 100 100 100 100 81 48 36 8 5 5 5 5 0 0 0 0 0 0 0
0 0 0 0 0 0 0 0 0 0 0 0 0 0 1 1 25 97 100 100 100 100 100 100 100 100 80 73 44 6 5 5 5 13 5 0 0 0 3 1 0 0 0
0 0 0 0 0 0 0 0 0 0 0 0 0 0 15 0 52 100 100 100 100 100 100 100 100 100 57 5 5 5 5 5 9 6 4 0 0 0 0 5 0 3 5
0 0 0 0 0 0 0 0 0 0 0 0 0 13 4 44 100 100 100 100 70 79 5 41 14 100 43 28 5 5 5 5 5 5 0 0 0 0 0 0 0 0 0
0 0 0 0 0 0 0 0 0 0 0 1 3 70 95 100 100 100 100 97 92 5 8 16 56 87 58 5 5 5 5 5 5 0 0 0 0 0 0 0 0 0 0
0 0 0 0 0 0 0 0 0 0 2 0 6 70 95 100 100 100 100 100 8 5 5 5 70 80 5 5 5 5 5 3 0 0 0 0 0 0 0 0 0 0 0
0 0 0 0 0 1 0 0 0 0 2 1 2 56 100 100 100 99 92 5 51 8 5 18 6 5 5 5 15 5 5 5 5 3 1 0 0 0 0 0 0 0 2
5 5 4 0 0 0 0 0 0 0 2 16 94 100 100 100 97 16 5 34 49 5 5 15 19 54 27 5 5 12 5 5 5 5 0 0 0 0 0 0 0 1 5
1 5 5 5 1 0 0 0 1 4 88 99 100 100 100 34 0 0 5 64 38 5 5 5 42 9 5 5 5 5 5 5 1 0 0 0 0 0 0 0 0 5 5
0 5 5 5 5 6 17 0 26 82 100 100 100 91 12 5 2 2 5 51 14 5 5 77 66 5 5 5 5 5 5 5 4 0 0 0 0 0 0 0 0 5 5
0 2 5 5 5 13 40 63 81 100 100 100 99 96 5 9 5 5 5 5 5 5 95 100 36 6 5 5 5 5 5 0 0 0 2 0 4 4 0 1 5 5 67
1 0 4 5 20 36 74 100 100 100 100 100 100 95 77 5 5 5 5 5 8 94 100 51 44 37 42 5 5 5 0 0 2 5 5 3 0 0 5 55 85 100 99
1 0 3 12 71 91 100 100 100 100 100 100 100 84 10 5 5 5 5 10 98 100 59 11 41 71 72 5 5 2 0 5 5 5 2 0 4 5 25 100 100 100 94
43 20 5 80 100 78 100 100 100 100 100 90 100 56 18 22 5 5 29 100 100 85 71 52 84 71 5 3 3 5 5 5 3 0 5 5 5 5 91 89 100 100 100
41 11 7 100 100 73 86 81 57 34 26 100 100 98 22 5 15 95 100 100 91 82 58 95 56 5 5 5 5 5 5 4 4 5 5 4 5 5 5 10 98 94 100
100 97 82 82 89 90 52 83 99 77 100 100 76 6 19 96 100 100 93 81 67 88 81 5 5 4 5 5 5 4 4 5 5 4 1 5 5 17 100 100 88 49 15
100 100 100 100 100 100 98 100 100 100 100 88 37 96 99 73 58 63 72 82 92 18 5 3 4 5 5 5 4 5 5 5 5 4 5 6 91 100 100 98 62 98 78
100 100 100 100 100 100 100 100 100 100 100 48 12 84 75 50 56 92 94 60 5 5 5 5 5 5 5 5 5 5 5 8 15 86 89 46 100 100 100 100 98 90 5
100 100 100 100 100 100 100 100 100 67 8 23 61 49 42 94 88 91 12 5 5 5 5 5 5 3 1 0 2 5 22 82 97 99 87 86 82 100 100 100 96 85 100
100 100 100 100 100 100 100 100 100 80 89 94 78 69 72 77 18 5 5 5 5 5 5 5 5 5 0 0 3 5 65 95 97 99 64 45 100 98 78 32 82 100 100
100 100 100 100 100 100 100 100 100 100 91 87 91 77 61 70 6 5 5 5 5 5 5 5 4 0 1 4 1 5 48 75 100 61 99 97 74 7 5 16 98 95 74
100 100 100 100 100 100 100 100 100 100 100 89 96 98 62 5 5 5 5 5 5 3 5 0 0 1 5 3 6 43 14 27 98 75 88 5 4 5 5 8 7 65 97
100 100 100 100 100 100 100 100 100 100 100 100 99 33 5 5 5 5 5 3 3 0 0 5 4 5 5 6 71 91 98 100 100 100 29 5 6 27 12 32 69 97 98
100 100 100 100 100 100 100 100 100 100 100 33 5 5 5 5 4 4 5 4 3 4 4 0 4 5 5 33 87 100 100 100 100 85 8 49 97 98 98 100 99 100 100

GFSMW_prec_cloud_036.txt.gz
Cloud_Cover
0 0 0 0 0 0 0 0 0 0 0 0 0 26 88 77 24 7 40 100 99 19 100 28 39 66 100 100 100 100 100 100 100 100 100 100 100 80 51 9 5 5 5
0 0 0 0 0 0 0 0 0 0 0 0 0 6 72 91 86 86 98 64 78 25 100 34 32 100 100 100 100 100 100 100 100 100 100 95 71 46 3 5 2 5 5
0 0 0 0 0 0 0 0 0 0 0 0 1 20 18 84 100 100 90 87 87 92 100 96 100 100 100 100 100 100 100 100 100 100 99 86 26 1 5 5 5 5 4
1 0 0 0 0 0 0 0 0 0 0 0 0 2 5 44 100 100 98 72 100 100 100 98 100 100 82 90 99 100 100 100 100 98 13 4 5 10 5 5 4 0 0
1 0 0 0 0 0 0 0 0 0 0 0 0 0 4 97 100 94 100 100 100 64 71 91 100 87 65 90 100 100 99 94 27 63 19 5 5 5 7 21 5 5 0
0 0 0 0 0 0 0 0 0 0 0 0 0 0 2 18 36 50 96 100 100 98 9 3 5 12 11 6 97 100 89 33 38 5 5 5 5 5 5 5 5 5 4
0 0 0 0 0 0 0 0 0 0 0 0 0 5 2 46 25 72 86 100 25 100 13 0 5 6 2 3 81 95 16 5 5 5 5 5 17 45 21 5 5 4 2
0 0 2 0 0 0 0 0 0 0 0 0 0 4 43 100 86 76 58 100 88 87 98 0 5 5 0 5 9 5 5 5 5 8 49 50 38 18 5 0 0 0 0
0 0 5 1 0 0 0 0 0 0 0 0 0 3 75 79 100 72 100 100 100 27 26 0 4 5 3 5 5 5 5 53 69 72 31 5 5 5 0 0 0 0 0
5 0 5 15 0 0 0 0 0 0 2 3 2 14 100 100 98 100 100 100 100 80 5 5 5 5 5 5 5 5 5 8 7 5 5 5 5 3 0 0 0 0 0
71 5 28 97 3 0 0 0 0 0 5 5 5 17 100 100 100 100 100 100 41 5 2 5 5 5 5 15 79 18 20 5 5 5 5 5 5 0 0 0 0 0 0
74 10 68 65 4 1 2 0 0 5 5 5 5 72 100 100 100 100 100 100 86 6 5 47 5 5 39 100 55 5 5 5 5 5 5 4 0 0 0 0 0 0 5
56 63 19 16 0 4 5 0 0 5 5 5 5 30 100 100 100 100 99 100 75 12 74 70 10 54 100 89 67 6 37 5 5 5 2 0 0 0 0 0 5 14 54
55 74 27 35 9 8 65 32 5 54 99 14 85 100 100 84 100 100 100 100 72 69 87 75 93 100 94 66 20 70 17 5 4 2 0 0 0 0 5 5 47 83 100
50 42 51 48 67 100 100 72 91 100 100 100 100 100 99 100 100 100 100 100 75 98 100 100 100 100 71 70 66 7 5 1 3 5 4 0 0 5 6 66 91 100 100
76 43 82 71 100 100 100 100 100 100 100 100 100 100 100 100 100 100 100 95 82 94 100 100 96 64 92 95 6 5 4 5 5 4 0 0 5 5 64 97 100 100 100
100 72 77 100 100 100 100 100 100 100 100 100 100 100 100 100 100 99 90 90 99 100 100 82 93 88 88 5 5 5 5 5 2 0 1 3 5 66 92 100 100 100 100
100 62 100 100 100 100 100 100 100 100 100 100 100 100 100 100 96 100 100 100 100 91 98 99 99 43 9 30 5 5 5 1 0 2 5 5 59 87 100 100 99 100 99
93 100 100 100 100 100 100 100 100 100 95 91 100 100 100 100 100 100 100 100 81 99 99 57 27 94 42 5 5 5 0 3 3 5 16 71 86 100 100 98 96 97 100
100 100 100 100 100 85 57 21 8 44 90 100 100 100 100 100 100 100 95 94 100 79 75 100 97 6 5 5 3 5 0 2 5 5 56 82 99 100 100 100 100 84 82
100 100 100 100 100 98 100 100 100 100 100 100 100 100 100 100 100 100 100 100 96 100 97 36 5 5 5 5 4 5 5 5 19 72 72 96 100 100 100 100 97 98 100
92 100 100 100 100 100 100 100 100 100 100 100 100 100 100 100 100 100 100 100 100 86 21 5 5 5 4 0 2 5 5 66 93 92 100 99 100 100 72 41 33 99 100
100 100 100 100 100 100 100 100 100 100 100 100 100 100 100 100 100 100 100 98 12 5 5 5 4 4 5 5 5 5 60 75 85 100 100 100 100 43 5 8 94 100 99
100 100 100 100 100 100 100 100 100 100 100 100 100 100 100 87 72 66 14 5 5 4 1 4 5 5 5 3 4 20 83 98 100 100 84 87 44 5 10 9 59 95 98
100 100 100 100 100 100 100 100 100 100 100 100 97 70 54 10 5 5 5 5 4 3 2 5 5 4 5 4 56 84 99 100 97 99 82 26 8 59 25 68 98 97 100
100 100 100 100 100 100 100 100 100 100 100 54 11 5 5 5 5 5 5 5 5 5 5 5 5 5 5 52 98 100 99 100 100 94 25 51 98 97 99 98 99 99 100

GFSMW_prec_cloud_039.txt.gz
Cloud_Cover
5 5 5 4 0 0 0 0 0 0 0 0 0 0 0 92 100 100 100 22 0 82 96 0 51 100 7 46 92 99 92 26 12 45 64 94 88 100 98 100 100 100 100
100 96 81 66 5 0 0 0 0 0 0 0 0 0 77 95 100 100 62 8 33 89 58 29 87 100 87 84 98 99 89 64 55 14 22 63 100 44 100 100 97 93 48
100 100 27 5 5 3 0 0 0 0 0 0 0 9 3 25 100 100 96 100 52 100 100 98 100 100 100 99 90 86 74 68 58 24 50 53 55 93 87 12 17 4 0
92 100 78 5 2 4 5 0 0 0 0 0 0 0 0 4 74 100 100 100 91 86 100 100 71 100 100 95 100 87 76 38 41 10 34 45 33 23 76 62 4 0 0
0 4 5 5 4 1 5 1 0 0 0 0 0 0 0 0 23 100 100 100 98 100 100 100 100 99 82 5 1 20 5 5 39 6 5 5 24 63 5 0 0 0 0
0 0 0 0 0 0 3 5 0 0 0 0 0 0 0 0 35 100 100 100 100 94 100 100 100 100 84 5 5 5 2 4 4 3 10 35 5 4 0 0 0 4 3
0 0 0 0 0 0 0 4 2 0 0 0 0 0 16 0 8 60 100 100 100 100 88 100 100 100 100 20 5 1 0 1 5 5 5 4 4 5 0 0 0 0 5
0 0 0 0 0 0 0 0 0 0 0 0 0 29 14 0 17 73 100 100 100 100 100 100 100 100 87 5 0 0 0 4 4 5 5 5 3 5 5 5 0 3 5
0 0 0 0 0 0 0 0 0 0 3 0 2 28 0 2 82 100 93 88 100 100 100 100 100 100 100 82 6 4 5 5 5 5 5 5 5 5 1 0 0 0 4
0 0 0 0 0 0 0 0 0 5 7 4 26 1 5 54 100 90 100 74 95 94 100 100 100 100 100 71 5 5 5 5 5 5 5 5 5 5 5 5 4 2 0
0 0 0 0 0 0 0 3 6 30 96 5 1 5 13 59 94 85 99 100 100 100 100 100 100 93 33 5 5 5 5 17 8 5 5 5 5 5 5 4 0 0 0
0 0 0 0 0 1 49 50 69 51 81 5 5 5 5 52 100 100 100 100 65 100 98 100 100 100 35 19 59 5 46 46 5 5 5 5 5 0 0 0 0 0 0
5 0 1 7 13 93 100 100 32 34 89 5 5 50 100 100 98 100 100 100 100 100 100 100 100 100 73 82 77 68 60 53 11 5 5 5 0 0 0 0 0 3 5
5 0 83 98 31 100 100 79 96 100 49 5 11 92 100 100 100 100 90 98 90 85 100 100 100 100 96 94 69 58 74 40 5 5 5 1 5 0 0 1 5 5 5
5 12 100 100 92 100 100 100 100 84 29 54 86 100 100 100 100 100 69 70 66 96 100 100 99 97 100 98 89 83 62 53 5 5 5 5 4 0 4 33 22 28 88
16 72 100 100 100 100 100 100 96 38 78 100 96 90 100 100 100 84 99 100 89 100 100 100 100 100 99 100 80 82 31 5 5 5 5 3 0 0 9 68 94 98 100
45 100 100 100 100 100 100 100 98 91 100 100 100 100 100 100 88 81 100 100 100 100 100 100 100 100 100 99 73 10 13 21 5 5 2 0 4 5 6 53 86 90 84
100 100 100 100 100 100 100 100 100 100 100 100 100 100 100 100 100 100 100 100 100 100 100 100 100 100 97 49 70 73 40 5 5 1 0 5 5 9 72 75 26 86 89
100 100 100 100 100 100 100 100 100 100 100 100 100 100 100 100 100 100 100 100 100 100 100 100 100 100 91 100 86 20 5 4 0 0 0 5 25 40 98 100 100 88 16
100 100 100 100 100 100 100 100 100 100 100 100 100 95 88 100 94 88 100 100 100 100 100 100 100 100 100 98 13 5 0 0 0 1 4 5 48 98 100 100 93 31 5
100 100 100 100 100 100 100 100 100 100 98 93 76 66 83 98 100 100 100 100 100 100 100 100 100 100 44 5 5 5 5 5 5 5 5 5 85 99 100 100 76 22 100
100 100 100 100 100 97 99 88 75 64 70 88 100 100 100 100 100 100 100 100 100 100 100 100 83 12 5 5 5 5 8 62 46 8 6 93 99 100 99 76 67 99 100
100 100 100 100 100 100 100 100 100 100 100 100 100 100 100 100 100 100 100 100 100 100 100 52 6 5 5 4 4 5 21 54 59 90 94 100 100 92 34 19 98 100 84
100 100 100 100 100 100 100 100 100 100 100 100 100 100 100 100 100 100 100 100 95 51 45 7 5 5 5 5 5 5 5 26 92 82 44 76 66 39 5 12 7 5 64
100 100 100 100 100 100 100 100 100 100 100 100 100 100 100 100 100 100 91 67 52 34 5 7 5 5 5 5 30 68 64 96 98 100 10 5 5 5 5 5 5 5 59
100 100 100 100 100 100 100 100 100 100 100 100 100 100 100 92 87 80 49 45 42 95 50 51 34 7 5 58 82 97 100 100 100 72 5 5 5 5 5 44 72 86 99

GFSMW_prec_cloud_042.txt.gz
Cloud_Cover
5 5 5 5 9 70 24 5 0 0 0 0 0 0 0 4 100 100 100 93 3 5 0 0 0 0 0 0 0 35 87 5 45 67 98 100 100 60 9 28 100 41 44
5 5 5 5 5 5 83 100 92 5 2 0 0 0 12 34 90 100 92 98 43 5 0 5 62 98 96 85 5 20 90 26 6 57 79 93 94 74 5 80 95 75 46
5 5 5 4 5 5 60 100 100 94 5 2 0 0 0 0 21 39 96 44 48 4 5 2 45 99 100 100 99 82 62 100 69 29 5 15 31 28 5 68 96 42 5
5 5 2 0 0 4 33 78 100 100 38 5 1 0 0 0 0 1 3 45 100 86 76 39 48 100 100 100 99 100 100 98 80 5 5 5 76 50 5 8 5 5 5
7 4 5 5 5 5 4 55 96 100 98 5 5 0 0 0 4 10 0 100 100 100 100 99 73 94 100 100 100 100 100 100 100 46 0 0 3 5 1 3 5 6 3
18 33 97 73 3 0 4 3 34 67 56 5 4 0 5 0 0 15 44 100 100 100 100 100 83 68 100 100 100 100 96 94 100 41 5 20 6 0 0 1 0 0 0
41 89 98 93 5 0 0 3 5 5 10 8 5 1 0 0 0 0 30 56 100 100 100 100 100 100 100 100 100 100 100 99 100 100 97 76 5 5 5 0 0 2 4
0 0 0 0 0 0 0 0 0 0 0 0 0 0 4 4 0 0 0 14 100 100 100 100 100 42 100 100 100 100 100 100 100 100 88 35 6 5 5 2 0 0 0
1 0 0 0 0 0 0 0 0 0 0 0 0 1 0 5 3 0 42 94 100 100 100 100 98 90 100 100 100 100 100 100 100 100 100 14 13 5 5 5 2 0 0
50 75 28 26 0 2 0 0 0 0 0 0 3 65 5 1 5 22 86 100 100 100 100 97 86 97 96 100 100 100 100 100 100 100 100 58 6 5 5 5 0 0 0
57 29 86 100 100 100 30 0 0 0 31 50 98 47 6 14 71 100 100 100 100 100 100 86 48 85 92 97 100 100 100 100 100 100 89 62 5 5 5 3 0 0 0
46 84 0 9 89 46 4 0 0 96 100 100 97 35 15 8 76 100 97 100 100 100 100 100 93 96 100 80 98 96 94 100 100 100 60 6 5 5 5 4 0 0 0
42 64 5 5 12 5 38 91 76 100 100 98 38 12 17 100 100 100 100 99 96 100 100 100 100 100 100 94 98 100 100 100 100 100 83 35 5 5 5 3 0 0 0
100 92 100 91 5 4 100 100 98 100 95 5 4 55 100 100 100 100 100 100 100 100 100 100 100 96 100 100 89 100 100 100 100 100 100 67 9 5 3 0 0 4 5
63 100 100 100 72 87 100 100 100 100 99 5 86 100 100 100 100 100 100 100 100 100 100 100 100 88 100 98 100 100 100 100 100 100 100 59 5 4 2 5 5 35 88
100 100 8 4 100 100 100 100 100 100 99 21 100 100 100 100 96 100 100 100 100 100 89 100 100 100 100 100 100 100 92 100 100 100 100 11 5 5 2 5 51 86 97
53 15 31 100 100 100 100 100 100 100 100 100 100 100 100 100 100 100 100 100 100 84 100 100 100 100 100 100 81 97 100 100 100 100 98 64 7 4 1 5 63 43 52
100 100 80 97 100 100 100 100 100 100 100 100 100 100 100 100 100 100 100 100 98 93 100 100 100 100 95 93 100 100 100 100 100 100 66 6 5 4 25 19 96 92 10
100 100 100 100 100 100 100 100 100 100 100 100 100 100 100 100 100 100 100 100 100 100 100 100 100 76 92 100 100 100 100 100 100 90 16 5 2 5 85 96 58 5 5
100 100 100 100 100 100 100 100 100 100 100 100 100 100 100 100 100 100 100 100 100 100 100 97 100 100 100 100 100 100 100 86 27 5 1 4 21 72 99 100 100 96 52
100 100 100 100 100 100 100 100 100 100 100 100 100 100 100 100 100 100 100 100 100 97 100 100 100 100 100 100 100 92 14 5 10 5 5 5 15 98 100 100 93 61 100
100 100 100 100 100 100 100 100 100 100 100 100 100 100 100 100 100 100 83 92 100 100 100 100 100 100 100 99 75 77 52 11 29 5 45 5 82 100 87 78 44 94 100
100 100 100 100 100 100 100 100 99 100 100 100 100 100 100 85 95 100 100 100 100 100 100 100 100 100 48 96 100 69 52 15 5 6 52 99 86 11 27 5 69 85 5
100 100 100 100 100 100 100 100 100 100 100 100 100 100 100 100 100 100 100 100 100 100 98 59 92 100 97 75 84 78 13 5 5 10 82 54 5 5 4 4 5 5 5
100 100 100 100 100 100 100 100 100 100 100 100 100 100 100 100 94 84 79 57 33 39 100 100 100 99 94 93 54 82 72 93 100 100 8 1 5 4 5 5 5 5 6
100 100 100 100 100 100 100 100 100 100 100 100 100 100 100 97 77 64 48 20 98 100 100 100 100 100 52 67 71 83 99 100 100 53 5 5 5 5 5 5 5 5 60

GFSMW_prec_cloud_045.txt.gz
Cloud_Cover
5 47 9 5 0 0 0 0 0 0 0 0 0 0 0 0 44 100 100 0 0 0 0 0 0 0 0 2 5 5 5 2 0 0 12 69 28 5 74 71 68 45 93
5 5 5 5 5 5 2 0 1 0 3 0 4 2 5 7 90 70 100 92 0 0 0 0 1 0 3 5 4 5 5 56 73 68 88 93 100 89 16 7 5 11 27
19 5 5 5 5 5 5 5 5 5 3 10 0 0 2 20 98 100 99 94 17 0 18 28 3 5 76 5 7 44 94 100 100 100 100 100 91 71 34 13 5 3 9
5 2 3 4 5 5 5 5 26 5 5 6 37 0 1 6 5 69 19 11 5 5 98 96 8 48 11 30 19 5 100 100 100 100 100 100 95 100 92 44 5 0 0
1 0 0 2 4 3 5 5 1 5 5 5 1 0 5 7 5 21 15 98 92 57 60 18 98 97 100 88 55 36 47 100 100 100 100 75 32 78 96 94 18 5 18
76 73 40 17 21 38 22 5 19 21 5 5 2 5 5 12 5 5 4 20 27 68 17 83 100 100 100 100 83 98 98 100 100 100 100 98 88 88 89 97 100 100 95
93 98 100 90 96 88 27 5 5 4 5 0 0 0 4 5 5 5 5 5 43 68 20 68 100 100 100 100 92 100 85 98 100 100 100 100 100 100 100 100 100 100 100
20 10 10 20 11 18 15 5 5 5 5 5 3 5 0 5 5 5 6 23 38 48 41 70 100 100 100 100 100 89 76 100 100 100 100 100 100 100 100 100 100 77 100
5 0 4 5 0 0 0 5 0 0 0 0 0 0 0 4 70 66 12 54 100 95 60 84 100 100 100 100 100 73 100 24 58 94 88 100 100 100 100 100 100 95 80
25 5 3 2 0 0 0 0 0 0 0 0 0 0 0 2 5 5 5 14 98 100 62 100 100 100 100 100 100 100 57 84 100 87 84 89 100 100 100 100 96 28 5
100 49 3 4 0 0 0 0 0 0 0 0 0 0 0 4 0 1 1 2 98 98 100 100 100 100 100 100 90 99 83 98 100 96 99 71 59 80 93 75 50 13 5
86 53 21 5 4 0 0 4 0 3 2 0 0 3 0 0 0 0 6 91 100 100 100 100 100 100 100 100 99 100 84 100 93 99 100 60 54 77 9 53 80 36 5
100 87 35 5 61 5 2 1 0 0 16 1 0 82 97 61 75 89 82 100 100 100 100 100 100 100 100 100 100 94 88 100 100 92 84 68 100 34 16 5 10 49 34
100 100 100 84 94 5 5 100 4 100 100 4 43 100 100 100 100 100 100 100 100 100 100 100 100 100 100 100 100 100 99 100 100 100 89 100 95 63 7 5 8 5 5
38 6 12 65 6 98 100 100 94 100 100 100 100 100 100 100 100 100 100 100 100 100 100 100 100 100 100 100 100 100 100 100 100 100 81 100 84 5 24 5 5 5 5
60 32 35 56 99 100 100 100 100 100 100 100 100 100 100 100 100 100 100 100 100 100 100 100 100 100 100 100 100 100 100 100 98 100 100 98 100 98 100 79 5 29 70
100 100 69 67 87 98 100 100 100 100 100 100 100 100 100 100 100 100 100 100 100 100 100 100 100 100 100 100 100 100 100 100 100 100 98 100 100 100 69 6 6 36 67
100 100 100 100 98 100 100 100 100 100 100 100 100 100 100 100 100 100 100 100 100 100 100 100 100 100 100 100 100 100 100 100 100 100 100 100 100 96 87 6 80 100 38
100 100 100 100 100 100 100 100 100 100 100 100 100 100 100 100 100 100 100 100 100 100 100 100 100 100 100 100 100 100 100 100 100 100 100 100 76 40 71 91 60 10 5
100 100 100 100 100 100 100 100 100 100 100 100 100 100 100 100 100 100 100 100 100 100 100 100 100 100 100 100 100 100 100 100 100 100 100 99 33 63 97 100 96 97 46
100 100 100 100 100 100 100 100 100 100 100 100 100 100 100 100 100 100 100 100 100 100 100 100 100 100 100 100 100 100 100 100 100 100 77 96 100 100 100 100 93 49 100
100 100 100 100 100 100 100 100 100 100 100 100 100 100 100 100 100 100 100 100 100 100 100 100 100 100 100 100 100 100 100 90 56 100 100 97 95 100 90 55 25 92 92
100 100 100 100 100 100 100 100 100 100 100 100 100 100 100 100 100 100 100 100 100 100 100 100 100 100 100 100 66 12 26 98 100 75 89 100 99 23 4 4 9 10 4
100 100 100 100 100 100 100 100 100 100 100 100 100 100 100 100 100 100 100 88 76 43 8 5 62 52 5 6 44 100 100 78 22 14 99 34 3 4 3 2 4 5 5
100 100 100 100 100 100 100 100 100 100 100 100 100 100 100 97 90 91 66 16 7 12 8 5 5 12 82 100 100 97 91 100 89 91 5 0 2 5 5 5 5 5 9
100 100 100 100 100 100 100 100 100 100 100 100 100 100 100 100 72 25 6 6 5 5 5 5 19 70 79 76 76 86 98 100 100 13 2 5 5 5 5 5 5 45 89

GFSMW_prec_cloud_048.txt.gz
Cloud_Cover
100 92 52 90 28 21 5 5 5 5 0 0 1 5 0 5 30 44 63 100 99 24 0 0 0 0 0 0 0 0 0 2 0 5 5 8 7 5 56 63 85 100 78
100 100 67 8 23 17 5 4 5 5 3 0 0 0 0 2 5 45 100 100 100 96 72 72 39 3 0 6 10 1 4 5 4 5 5 42 84 99 100 100 100 86 72
100 100 100 100 100 57 15 5 2 5 0 5 4 28 52 89 79 64 86 100 100 100 100 90 14 5 7 96 25 4 5 24 5 13 60 80 95 100 100 100 100 100 100
100 100 100 100 100 83 21 5 5 0 0 1 5 5 8 12 4 0 12 69 32 22 100 100 100 100 100 73 83 53 38 32 12 56 20 80 78 100 100 100 100 100 100
100 100 100 100 86 66 5 5 5 5 0 5 5 11 33 57 74 37 39 5 25 53 100 100 100 100 100 66 61 100 100 88 73 36 100 60 9 82 100 100 100 100 100
98 87 91 54 21 3 4 4 2 2 2 1 2 3 5 19 80 100 18 4 0 4 89 100 100 100 100 100 83 100 100 100 93 100 70 80 42 95 100 100 100 100 99
20 13 16 5 5 5 44 67 34 5 5 5 5 0 4 5 10 81 85 2 4 5 61 100 100 100 100 100 100 100 100 100 48 100 69 77 58 27 48 70 99 100 100
5 5 15 40 88 86 65 75 87 93 84 29 5 5 5 1 2 18 15 7 4 9 5 48 100 100 100 100 100 100 100 100 100 100 98 99 7 11 6 6 51 100 100
53 90 41 5 5 5 5 12 5 5 5 1 4 5 5 4 1 3 5 5 7 26 10 91 100 100 100 100 100 100 100 100 100 100 100 40 5 5 5 5 5 17 61
80 87 11 5 3 3 3 1 0 0 0 0 4 5 3 0 1 1 1 4 15 53 30 91 100 100 100 100 100 100 99 100 100 100 99 19 5 5 8 19 5 5 5
1 2 3 5 3 1 0 2 0 0 7 0 0 0 3 0 0 2 0 1 12 88 94 100 100 100 100 100 100 100 100 100 100 100 98 82 58 98 90 34 27 45 10
3 3 5 5 34 5 5 4 0 0 0 0 0 0 0 1 25 41 41 42 70 100 100 100 100 100 100 100 100 100 100 100 100 100 100 79 98 83 94 80 94 87 90
17 15 5 36 70 99 77 90 58 17 1 5 28 0 0 19 28 32 5 8 22 69 100 100 100 100 100 100 100 100 100 100 100 100 100 99 100 100 100 96 99 100 100
100 35 5 14 100 100 100 100 90 58 51 100 55 5 7 29 32 99 100 100 100 100 100 100 100 100 100 100 100 100 100 100 100 100 100 83 86 100 100 100 100 100 100
100 11 5 5 55 84 75 31 17 5 73 75 90 34 84 64 94 100 100 100 100 100 100 100 100 100 100 100 100 100 100 100 100 99 91 91 100 100 100 100 100 100 100
100 30 6 5 19 77 86 100 58 73 95 100 100 100 100 100 100 100 100 100 100 100 100 100 100 100 100 100 100 100 100 100 77 100 100 100 100 86 100 100 92 100 100
100 99 100 60 43 65 19 40 100 100 100 100 100 100 100 100 100 100 100 100 100 100 100 100 100 100 100 100 100 100 100 100 100 100 100 100 100 100 96 100 99 95 100
100 67 49 32 29 81 98 100 100 100 100 100 100 100 100 100 100 100 100 100 100 100 100 100 100 100 100 100 91 100 93 100 100 100 100 100 100 73 100 100 100 100 100
100 100 100 100 100 100 100 100 100 100 100 100 100 100 100 100 100 100 100 100 100 100 100 100 100 100 100 100 100 100 94 100 100 100 100 92 100 100 100 100 100 100 33
100 100 100 100 100 100 100 100 100 100 100 100 100 100 100 100 100 100 100 100 100 100 100 100 99 94 100 90 98 86 98 100 100 100 100 99 88 99 100 100 92 71 82
100 100 100 100 100 100 100 100 100 100 100 100 100 100 100 100 100 100 100 100 100 100 100 100 100 100 100 100 100 100 100 100 99 85 91 99 100 100 100 100 100 97 100
100 100 100 100 100 100 100 100 100 100 100 100 100 100 100 100 100 100 100 100 100 100 100 100 100 100 100 100 100 100 100 49 21 97 100 100 100 100 100 92 87 84 85
100 100 100 100 100 100 100 100 100 100 100 100 100 100 97 95 66 90 99 99 71 100 97 100 95 99 98 82 46 7 5 5 32 26 95 91 62 9 5 4 18 19 5
100 100 95 97 100 100 100 100 100 100 100 100 100 100 100 100 100 100 100 100 100 98 59 86 67 24 5 5 5 5 5 5 41 39 63 27 1 4 5 4 2 5 5
100 100 89 100 100 100 96 81 100 100 98 100 100 100 100 100 100 100 100 88 99 50 10 5 5 5 18 12 71 72 28 94 82 85 4 0 2 5 5 5 5 5 8
100 100 100 100 100 100 98 88 97 100 100 100 100 100 100 100 97 58 34 52 62 66 69 76 49 24 44 83 75 82 97 96 97 8 3 5 5 5 5 34 55 66 74

GFSMW_prec_cloud_051.txt.gz
Cloud_Cover
100 65 96 41 63 39 5 5 1 5 6 5 96 100 99 44 6 11 5 31 93 5 28 47 22 5 5 5 5 5 5 4 2 0 0 0 4 5 4 5 5 31 65
100 100 84 85 100 98 13 37 56 5 5 17 6 6 5 24 5 5 5 13 10 23 69 50 79 75 100 99 43 43 10 11 5 3 0 1 0 5 5 5 5 5 47
100 100 92 56 82 88 100 100 12 5 3 8 19 22 19 46 50 34 5 37 100 97 14 53 100 100 100 100 100 100 100 80 5 16 13 4 33 27 5 46 7 5 9
100 100 100 100 100 100 100 100 100 92 87 100 88 64 66 29 16 5 5 5 5 20 10 44 88 100 100 100 100 100 100 66 36 49 18 21 34 26 51 15 5 5 5
100 100 100 100 53 22 82 94 100 100 99 96 28 57 31 90 30 6 2 15 20 7 5 5 51 96 100 100 100 100 100 100 100 100 52 35 19 58 61 78 5 5 5
99 100 100 100 99 82 47 37 70 72 62 78 61 60 5 6 44 69 64 58 50 32 70 54 84 100 100 100 100 100 100 100 100 100 100 100 47 100 94 63 83 5 5
92 97 99 94 56 37 22 13 7 5 5 5 5 5 21 58 35 35 42 80 56 89 18 26 99 100 100 85 96 100 97 100 100 100 100 100 100 100 94 7 66 5 5
5 5 5 5 5 5 5 22 72 72 26 5 15 13 5 5 6 5 8 70 10 41 99 88 10 58 79 72 100 100 96 100 100 100 100 100 91 100 100 99 43 10 10
5 5 5 1 1 5 5 6 27 24 16 54 14 47 60 52 62 54 58 12 80 74 34 87 98 53 44 88 100 100 100 100 100 100 100 100 99 100 100 98 38 11 5
0 0 4 5 14 61 70 68 87 97 100 80 18 14 7 8 8 19 47 62 80 100 100 100 100 88 91 100 100 100 100 100 100 100 100 100 100 100 100 100 95 71 84
23 91 100 100 92 35 9 5 15 5 8 6 5 20 42 26 20 20 15 10 9 43 82 51 74 99 100 100 100 100 100 100 100 100 100 100 100 100 100 100 94 100 75
9 7 8 5 5 4 4 5 7 37 78 5 11 39 49 37 38 47 48 72 76 91 71 61 96 100 100 100 100 100 100 100 100 100 100 100 100 100 100 100 100 100 92
53 100 100 72 4 4 5 5 23 94 100 100 85 40 57 66 96 100 100 100 100 100 100 100 100 100 100 100 100 100 100 100 100 100 100 100 100 100 100 100 100 100 94
100 82 81 5 2 1 5 43 82 37 100 100 100 100 100 100 100 100 100 100 100 100 100 100 100 100 100 100 100 100 100 100 100 100 100 100 100 100 100 100 92 99 70
89 47 97 5 5 5 5 5 6 5 100 100 100 100 100 100 100 100 93 100 100 100 98 100 100 100 100 100 100 100 100 100 100 100 100 100 100 100 100 100 100 100 100
100 55 74 24 7 6 48 54 99 13 68 100 100 100 100 100 100 100 100 100 100 100 100 100 100 100 100 100 100 100 100 100 100 100 100 100 100 100 100 100 100 100 100
99 100 100 82 97 95 100 100 98 98 90 100 100 100 100 100 100 100 100 100 100 100 100 100 100 100 100 100 100 100 100 100 100 100 83 98 100 100 100 100 100 100 100
100 100 89 100 100 100 100 100 100 100 100 100 100 100 100 100 100 100 100 100 100 100 100 100 100 100 100 100 100 100 100 100 100 100 100 90 99 100 100 100 100 100 100
100 100 100 100 100 100 100 100 100 100 100 100 100 100 100 100 100 100 100 100 100 100 100 100 100 100 100 100 100 100 100 100 100 100 100 100 100 100 100 100 99 100 100
100 100 100 100 100 100 100 100 100 100 100 100 100 100 100 100 100 100 100 100 100 100 100 100 100 100 99 95 96 98 65 50 50 98 100 95 64 7 72 100 100 34 7
100 100 100 100 100 100 100 100 100 100 100 100 100 100 100 100 100 100 100 100 100 100 100 100 100 98 100 100 88 16 67 94 89 35 5 5 9 96 100 99 61 6 55
64 92 100 100 100 100 100 100 100 100 100 100 100 100 100 100 100 100 100 100 100 100 100 100 100 100 79 47 93 27 11 5 5 5 5 12 84 100 76 22 10 93 96
100 100 100 100 100 94 100 100 100 100 100 100 100 100 99 100 100 100 98 53 54 9 30 82 100 68 20 37 8 42 36 8 35 5 76 14 8 10 4 5 85 76 5
99 99 100 100 100 100 100 100 100 100 100 100 100 100 100 100 100 100 100 100 98 96 84 30 46 55 75 99 80 20 8 16 32 23 5 5 2 4 5 5 5 5 6
77 74 100 100 100 100 100 100 70 100 99 90 94 100 100 100 98 73 31 11 6 30 59 100 86 60 35 34 49 43 36 94 47 40 4 0 2 5 5 5 5 5 8
83 79 100 100 100 80 34 48 96 67 100 100 100 87 35 9 9 5 32 91 97 71 60 83 70 66 70 78 64 80 74 86 75 6 3 5 5 5 6 45 53 60 60

GFSMW_prec_cloud_054.txt.gz
Cloud_Cover
100 100 100 49 70 70 6 5 5 48 13 90 100 100 100 100 100 43 71 31 42 5 5 5 5 8 100 87 25 5 6 45 65 44 100 30 5 0 4 2 0 0 0
100 100 96 100 100 100 100 100 88 5 5 6 51 51 82 100 100 100 78 67 17 8 5 5 5 20 100 100 93 100 95 92 36 48 5 17 5 5 1 4 5 5 5
80 97 100 88 100 100 100 99 94 97 94 68 100 100 100 100 100 100 54 93 8 19 5 4 5 42 50 68 97 97 100 90 94 94 30 14 5 5 18 5 5 5 5
86 15 54 73 100 88 92 100 100 100 97 100 100 100 100 100 100 100 95 56 24 9 5 5 5 23 66 35 37 95 84 100 100 100 100 93 60 90 97 57 35 6 17
100 51 9 20 99 100 100 100 100 100 100 100 100 84 98 100 100 100 100 100 100 48 40 18 37 98 33 21 97 100 65 100 100 100 100 100 100 100 100 100 100 100 100
67 10 18 37 15 16 73 100 100 100 100 100 96 32 58 91 100 100 100 99 52 58 32 39 8 73 96 100 73 91 75 97 100 99 100 100 100 100 100 100 100 100 100
100 98 90 100 100 100 100 99 93 100 100 100 100 100 100 100 93 94 100 100 100 98 94 58 100 100 75 98 100 100 100 100 100 100 100 100 100 100 100 100 100 100 100
99 100 100 98 79 73 65 53 80 92 94 90 39 14 31 46 48 32 26 39 62 98 88 59 74 91 100 79 100 100 96 100 100 100 100 100 100 100 100 100 100 100 100
5 5 5 48 60 56 18 5 5 5 5 5 5 6 7 5 5 7 5 89 96 100 100 100 100 100 100 99 100 100 100 100 100 100 100 100 100 100 100 100 100 100 100
5 5 1 1 1 3 5 5 2 5 5 5 5 2 0 2 4 16 41 33 28 32 89 100 100 100 100 100 100 100 100 100 100 100 100 100 100 100 100 100 100 100 100
5 5 5 5 2 1 0 0 1 5 5 5 5 5 27 35 40 42 53 55 70 100 100 100 100 100 100 100 100 100 100 100 100 100 100 100 100 100 100 100 100 100 100
5 5 5 5 0 0 0 0 0 0 1 5 23 59 100 100 100 99 74 78 100 100 100 100 100 100 100 100 100 100 100 100 100 100 100 100 100 100 100 100 100 100 100
87 5 5 4 0 0 0 0 2 5 5 5 51 92 100 100 100 100 100 100 100 100 100 100 100 100 100 100 100 100 100 100 100 100 100 100 100 100 100 100 100 100 100
24 18 5 64 4 0 0 2 4 4 5 5 65 100 100 100 100 100 100 100 100 100 100 100 100 100 100 100 100 100 100 100 100 100 100 100 100 100 100 100 100 100 100
6 43 58 19 5 5 5 5 5 5 5 16 84 100 100 100 100 100 100 100 100 100 100 100 100 100 100 100 100 100 100 100 100 100 100 100 100 100 100 100 100 100 100
100 50 97 39 78 5 29 92 100 91 85 100 100 100 100 100 100 100 100 100 100 100 100 100 100 100 100 100 100 100 100 100 100 100 100 100 100 100 100 100 100 100 100
100 50 5 7 43 100 100 100 100 100 100 100 100 100 100 100 100 100 100 100 100 100 100 100 100 100 100 100 100 100 100 100 100 100 100 100 100 100 100 98 91 100 100
98 64 52 74 100 100 100 100 100 100 100 100 100 100 100 100 100 100 100 100 100 100 100 100 100 100 100 100 100 100 100 100 100 100 100 74 99 100 100 83 75 42 33
33 100 100 100 100 100 100 100 100 100 100 100 100 100 100 100 100 100 100 100 100 100 100 100 100 100 100 100 100 100 100 100 100 100 93 92 100 50 24 28 81 96 82
100 100 100 100 100 100 100 100 100 100 100 100 100 100 100 100 100 100 100 100 100 100 100 100 100 100 100 100 100 99 100 100 100 65 100 76 97 75 99 100 98 6 5
32 98 100 100 94 100 100 100 100 100 100 100 100 100 100 100 100 100 100 100 100 100 100 100 100 96 89 100 82 98 89 76 77 100 100 88 72 100 92 98 65 11 76
56 96 99 100 100 100 100 100 100 100 100 100 100 100 100 100 100 100 100 100 100 100 100 100 100 100 100 100 100 100 100 100 100 97 74 54 83 69 53 12 30 97 71
100 100 100 100 100 100 100 100 100 100 100 100 100 97 72 61 97 98 100 99 100 100 100 100 100 100 100 100 100 100 100 99 92 35 24 16 6 5 4 14 68 22 5
100 97 100 100 100 100 100 100 100 100 97 84 36 26 81 100 77 39 67 76 98 98 100 100 100 87 97 98 81 83 93 23 6 9 5 5 4 5 5 5 5 5 5
55 100 100 100 100 100 100 100 100 27 63 71 12 8 5 5 30 93 93 98 100 100 100 92 63 48 26 15 60 70 63 100 58 59 3 1 5 5 5 5 5 5 5
52 99 100 100 100 100 59 24 40 58 44 59 79 17 5 22 7 13 21 23 60 50 30 36 8 5 5 50 84 90 77 75 59 5 5 5 5 5 5 12 44 20 28

GFSMW_prec_cloud_057.txt.gz
Cloud_Cover
100 100 100 100 100 87 60 78 83 100 98 100 100 100 100 100 100 100 68 37 63 66 52 100 100 100 42 36 73 19 5 21 5 33 100 100 80 20 5 5 5 5 3
100 100 100 100 100 100 100 100 100 77 88 68 97 100 95 100 80 100 100 89 95 80 28 49 88 96 84 32 74 41 42 5 8 15 25 26 73 64 10 19 46 99 74
65 70 93 100 100 95 100 100 100 100 100 100 100 100 100 100 100 100 100 100 90 95 65 98 100 100 74 28 30 16 60 21 5 13 7 58 88 89 71 83 85 100 99
34 6 9 58 86 83 100 100 100 100 100 100 100 97 100 100 100 100 100 100 100 100 100 100 100 100 100 100 100 100 100 100 96 94 75 69 32 100 100 100 100 100 100
11 5 5 24 87 89 91 80 74 82 96 99 100 100 100 100 100 100 100 100 100 100 100 84 53 48 64 100 96 87 96 100 82 91 94 100 93 100 100 100 100 100 100
76 75 70 35 36 47 46 20 58 92 100 100 92 92 97 98 100 100 100 100 100 100 100 100 98 67 89 98 100 100 100 100 100 100 100 96 100 100 100 100 100 100 100
46 75 100 100 96 75 68 28 22 34 56 100 100 100 100 100 100 100 100 100 100 100 100 100 100 100 100 100 100 100 100 100 100 100 100 100 100 100 100 100 100 100 100
100 100 100 73 80 97 96 96 99 84 24 35 71 97 100 98 100 100 100 100 100 100 100 100 100 100 82 100 100 100 100 100 100 100 100 100 100 100 100 100 100 100 100
100 100 98 94 68 29 5 5 5 6 6 47 46 29 5 5 5 5 5 60 62 48 96 100 100 100 100 100 100 100 100 100 100 100 100 100 100 100 100 100 100 100 100
68 75 67 36 16 5 6 17 57 30 22 4 2 2 5 4 2 3 4 27 54 81 95 100 100 100 100 100 100 100 100 100 100 100 100 100 100 100 100 100 100 100 100
12 6 5 5 5 5 5 5 5 0 0 0 0 31 97 96 87 81 77 96 100 100 100 100 100 100 100 100 100 100 100 100 100 100 100 100 100 100 100 100 100 100 100
31 20 30 9 5 12 5 5 0 0 0 0 1 83 100 100 100 100 100 100 100 100 100 100 100 100 100 100 100 100 100 100 100 100 100 100 100 100 100 100 100 100 100
52 5 5 5 5 1 0 0 0 0 0 0 0 39 18 92 97 99 99 100 100 100 100 100 100 100 100 100 100 100 100 100 100 100 100 100 100 100 100 100 100 100 100
62 5 5 5 5 1 0 0 0 0 0 0 6 81 89 99 100 100 100 100 100 100 100 100 100 100 100 100 100 100 100 100 100 100 100 100 100 100 100 100 100 100 100
14 11 5 5 5 5 5 3 3 0 2 0 14 35 100 100 100 100 100 100 100 100 100 100 100 100 100 100 100 100 100 100 100 100 100 100 100 100 100 100 100 100 100
35 70 5 5 5 5 5 5 5 42 95 100 100 100 100 100 100 100 100 100 100 100 100 100 100 100 100 100 100 100 100 100 100 100 100 100 100 100 100 100 100 100 100
85 8 5 5 6 54 100 100 76 100 100 100 100 92 100 100 100 100 100 100 100 100 100 100 100 100 100 100 100 100 100 100 100 100 100 100 100 100 100 100 100 100 99
98 10 35 100 99 99 100 100 94 100 100 100 100 100 100 100 100 100 100 100 100 100 100 100 100 100 100 100 100 100 100 100 100 100 100 100 100 100 100 100 100 100 100
91 81 99 100 66 97 94 100 100 100 100 100 100 100 100 100 100 100 100 100 100 100 100 100 100 100 100 100 100 100 100 100 100 100 100 100 99 100 100 100 100 100 100
37 98 100 100 100 100 100 97 100 100 100 100 100 100 100 100 100 100 100 100 100 100 100 100 100 100 100 100 100 100 100 100 100 100 100 100 100 100 100 100 100 100 31
7 85 100 100 100 100 100 100 100 100 100 100 100 100 100 100 100 100 100 100 100 98 100 100 100 100 100 100 100 100 100 100 100 100 100 100 100 100 95 82 23 6 84
90 82 98 100 100 100 100 100 100 100 100 100 100 100 100 100 100 100 100 100 100 100 100 100 100 100 100 100 100 100 100 100 100 100 100 100 92 81 73 10 46 99 68
100 100 100 100 100 100 100 100 100 100 100 96 54 22 77 100 100 100 92 65 47 41 39 62 100 100 100 100 100 100 100 100 100 100 100 100 100 45 6 18 77 23 5
100 100 100 100 100 100 100 100 100 100 99 23 27 96 55 98 99 78 13 6 5 5 55 87 100 100 90 94 98 92 100 100 100 94 65 29 40 12 5 5 5 5 8
94 96 100 92 100 100 100 100 76 33 8 32 63 29 48 20 5 5 5 6 33 13 25 31 66 87 93 100 100 98 98 96 67 66 20 5 5 5 5 5 5 5 13
87 100 100 100 100 100 100 75 94 100 97 50 84 46 5 5 5 5 10 24 7 29 51 60 72 85 89 84 87 83 85 63 73 7 5 5 5 5 9 7 27 5 59

GFSMW_prec_cloud_060.txt.gz
Cloud_Cover
100 100 100 100 100 78 37 5 5 5 5 5 100 100 100 100 100 100 49 33 66 17 7 5 5 5 60 88 100 100 100 90 100 65 76 33 36 10 5 5 5 20 19
100 100 100 100 100 100 98 65 39 49 9 5 5 5 42 100 100 100 100 100 99 47 37 29 78 74 15 11 56 82 100 100 100 69 90 96 90 100 75 74 86 86 98
100 100 97 100 100 100 100 100 99 97 100 100 53 23 15 83 100 100 100 100 92 93 95 100 100 100 100 100 66 81 98 100 100 100 100 100 100 84 37 40 51 67 100
100 100 100 100 98 95 79 100 100 100 100 100 100 100 95 36 93 100 86 61 96 100 100 100 100 100 100 100 100 98 91 100 100 99 100 100 100 100 100 100 100 100 98
17 5 5 69 100 100 100 100 74 78 86 100 100 100 100 100 100 85 100 100 100 100 100 100 100 100 100 100 100 100 100 100 100 100 100 100 100 100 100 100 100 100 100
43 45 51 86 100 100 91 95 78 64 92 85 89 62 66 97 100 100 100 100 100 100 100 100 100 100 100 100 100 100 100 100 100 100 100 100 100 100 100 100 100 100 100
55 78 50 23 5 5 5 5 5 31 85 92 99 98 100 100 100 100 100 100 100 100 100 100 100 100 100 100 100 100 100 100 100 100 100 100 100 100 100 100 100 100 100
100 88 64 14 5 5 5 5 9 5 28 98 100 100 100 100 100 100 100 100 100 100 100 100 100 100 100 100 100 100 100 100 100 100 100 100 100 100 100 100 100 100 100
60 63 58 27 8 26 14 51 86 85 67 62 49 46 64 54 44 17 58 67 68 100 100 100 100 100 100 100 100 100 100 100 100 100 100 100 100 100 100 100 100 100 100
93 66 84 58 62 68 87 87 43 13 33 19 5 10 6 5 5 5 5 5 5 4 70 100 100 100 100 100 100 100 100 100 100 100 100 100 100 100 100 100 100 100 100
100 93 95 86 87 96 96 89 84 32 4 5 25 19 9 46 86 93 81 72 72 86 95 100 100 100 100 100 100 100 100 100 100 100 100 100 100 100 100 100 100 100 100
52 64 58 21 13 12 16 10 5 5 5 5 5 2 21 32 47 98 93 100 100 52 100 100 100 100 100 100 100 100 100 100 100 100 100 100 100 100 100 100 100 100 100
99 60 63 30 10 5 5 7 5 6 2 0 0 0 21 49 68 94 100 100 100 100 100 100 100 100 100 100 100 100 100 100 100 100 100 100 100 100 100 100 100 100 100
52 47 36 5 5 5 5 2 0 0 0 0 0 0 4 77 97 99 100 100 100 100 100 100 100 100 100 100 100 100 100 100 100 100 100 100 100 100 100 100 100 100 100
49 49 38 29 5 5 4 1 2 2 5 4 0 2 29 85 100 100 100 100 100 100 100 100 100 100 100 100 100 100 100 100 100 100 100 100 100 100 100 100 100 100 100
100 100 92 5 5 8 12 5 27 8 5 5 65 74 58 98 94 100 100 97 89 100 100 100 100 100 100 100 100 100 100 100 100 100 100 100 100 100 100 100 100 100 100
100 10 5 5 5 8 31 57 60 58 57 97 74 19 82 100 100 100 100 100 100 100 100 100 100 100 100 100 100 100 100 100 100 100 100 100 100 100 100 100 100 100 100
33 100 25 7 5 5 5 28 61 76 100 100 100 100 100 100 100 98 100 100 100 100 100 100 100 100 100 100 100 100 100 100 100 100 100 100 100 100 100 100 100 100 100
5 7 73 88 78 5 14 20 72 77 100 100 100 100 100 100 100 100 100 100 100 100 100 100 100 100 100 100 100 100 100 100 100 100 100 100 100 100 100 100 100 100 100
5 5 26 99 69 100 67 22 81 100 100 100 100 100 100 100 100 100 100 100 100 100 100 100 100 100 100 100 100 100 100 100 100 100 100 100 100 100 100 100 100 100 100
5 69 30 98 76 96 91 100 100 100 100 100 100 100 100 100 100 99 91 67 100 100 100 100 100 100 100 100 100 100 100 100 100 100 100 100 100 100 100 100 100 100 100
6 6 19 100 100 99 100 100 100 100 100 100 100 100 88 51 32 5 5 5 5 8 24 66 91 100 100 100 100 100 100 100 100 100 100 100 100 100 100 100 85 97 93
90 96 87 100 100 100 100 100 100 100 100 56 26 8 5 6 5 5 5 5 5 5 5 5 5 47 100 100 100 100 100 100 100 100 96 92 71 25 7 5 19 18 5
71 22 85 100 100 100 100 100 97 100 94 6 5 5 5 5 5 5 5 5 5 5 5 5 5 6 41 68 81 88 80 75 73 75 46 7 5 5 5 4 5 5 5
66 62 100 100 100 100 100 88 85 20 5 7 55 29 5 5 5 5 5 5 5 5 5 5 5 17 43 40 56 63 36 57 25 16 5 5 5 5 5 5 5 5 6
100 99 100 100 100 100 100 100 96 43 68 95 44 75 92 20 5 5 5 5 5 5 5 8 5 5 15 71 69 69 74 19 42 5 3 5 5 5 5 5 18 81 93

GFSMW_prec_cloud_063.txt.gz
Cloud_Cover
100 100 100 100 100 100 97 73 42 100 100 100 63 89 82 100 100 67 5 17 14 30 26 45 58 21 80 85 100 97 62 10 29 23 5 39 49 90 100 100 100 100 100
100 100 100 100 100 100 100 100 100 100 100 100 99 99 100 84 100 100 100 78 84 5 6 32 100 100 100 82 69 93 100 83 11 42 26 42 73 100 99 100 100 100 98
100 100 100 100 100 100 100 100 100 100 99 100 96 52 43 6 8 14 82 100 100 28 75 67 89 49 42 93 82 100 97 90 27 99 99 100 100 100 100 100 100 100 100
100 100 100 100 100 100 100 100 100 100 94 58 5 5 5 6 5 5 2 5 12 55 92 97 100 100 99 100 99 100 100 100 100 99 100 100 100 100 100 100 100 100 100
100 100 100 100 100 100 100 100 100 100 83 99 40 5 5 5 6 28 78 100 54 48 34 100 98 89 100 100 100 100 100 100 100 100 100 100 100 100 100 100 100 100 100
77 84 94 100 100 100 100 100 99 98 74 29 33 58 73 97 98 100 100 100 100 100 100 100 100 100 100 100 99 100 100 100 100 100 100 100 100 100 100 100 100 100 100
44 39 40 64 89 98 98 100 90 15 27 6 5 5 5 11 63 95 100 100 100 100 100 100 100 100 100 100 100 100 100 100 100 100 100 100 100 100 100 100 100 100 100
95 71 37 51 25 13 21 36 25 29 59 26 5 5 17 38 100 98 94 100 100 99 89 94 100 100 100 100 100 100 100 100 100 100 100 100 100 100 100 100 100 100 100
100 83 51 19 8 7 13 28 10 5 6 11 10 23 61 81 82 38 45 85 88 99 98 96 99 100 100 100 100 100 100 100 100 100 100 100 100 100 100 100 100 100 100
100 68 51 34 40 34 43 55 19 8 10 18 48 56 16 17 29 52 81 100 62 24 8 5 15 44 100 100 100 100 100 100 100 100 100 100 100 100 100 100 100 100 100
100 100 100 100 74 90 75 74 27 8 26 23 7 94 27 33 76 64 5 22 44 75 73 84 100 100 97 99 100 100 100 100 100 100 100 100 100 100 100 100 100 100 100
100 100 98 67 84 99 71 43 23 14 78 73 35 7 4 5 5 0 0 10 79 99 100 100 100 100 100 100 100 100 100 100 100 100 100 100 100 100 100 100 100 100 100
100 100 100 100 100 100 100 94 21 5 7 16 5 4 2 0 0 44 16 14 21 50 66 100 100 100 100 100 100 100 100 100 100 100 100 100 100 100 100 100 100 100 100
52 11 42 66 97 100 62 51 5 5 3 5 3 0 0 6 3 94 100 100 93 65 100 100 100 100 100 100 100 100 100 100 100 100 100 100 100 100 100 90 98 95 100
78 99 19 5 4 9 9 4 4 1 5 0 4 21 49 90 96 87 100 97 42 44 98 99 100 100 100 100 100 100 100 100 100 100 100 100 100 100 100 100 100 100 100
18 100 82 38 5 5 6 17 40 22 5 5 16 18 50 64 82 100 100 100 100 99 100 100 98 98 100 100 100 100 100 100 100 100 100 100 100 100 100 100 100 100 100
64 99 60 13 5 5 13 27 51 81 61 73 50 30 54 67 87 100 100 100 100 100 100 100 100 100 100 100 100 100 100 100 100 100 100 100 100 100 100 100 100 100 100
100 22 5 13 5 5 5 24 95 100 100 100 100 99 94 94 100 100 100 100 100 100 100 100 100 100 100 100 100 100 100 100 100 100 100 100 100 100 100 100 100 100 100
67 90 27 13 89 63 5 21 87 100 100 100 100 100 100 100 100 100 100 100 100 100 100 100 100 50 23 67 100 100 100 100 100 100 100 100 100 100 100 100 100 100 100
10 31 5 30 100 78 42 70 99 100 100 100 100 100 100 100 100 100 100 100 100 91 73 28 33 43 32 67 96 100 100 100 100 100 100 100 100 100 100 100 100 100 100
18 54 66 12 58 16 89 100 100 100 100 100 100 100 100 100 100 95 94 22 2 3 0 2 4 5 5 48 100 100 100 100 100 100 100 100 100 100 100 100 92 76 66
48 62 21 12 64 100 100 100 100 100 100 100 100 99 93 48 4 1 0 0 0 0 3 0 0 0 4 5 24 61 78 70 61 60 82 56 20 5 6 16 35 81 86
35 24 47 100 100 100 100 100 100 100 84 61 29 16 5 5 5 1 0 0 0 0 5 3 0 1 5 5 5 5 5 12 5 5 5 5 5 5 5 5 5 5 5
34 19 39 100 100 100 100 100 100 71 33 5 36 32 5 5 8 6 5 5 0 5 5 5 5 0 5 5 5 5 11 25 35 30 26 26 5 5 5 5 5 5 5
89 6 43 100 100 100 100 77 36 49 57 22 5 5 5 7 32 37 5 5 5 5 5 5 5 5 5 5 10 49 58 66 63 69 59 13 5 5 5 5 5 5 5
81 22 100 100 100 100 99 37 88 94 87 60 5 5 5 42 59 52 5 5 5 10 23 5 5 5 5 5 65 19 63 81 76 54 25 6 5 5 5 5 7 63 91

GFSMW_prec_cloud_066.txt.gz
Cloud_Cover
100 100 100 100 100 20 5 5 5 5 22 87 100 100 94 31 100 100 100 100 19 8 5 5 6 26 17 5 5 5 5 29 100 34 12 12 81 98 100 53 70 100 60
100 100 100 100 100 100 100 100 97 89 96 100 55 87 100 100 79 46 26 34 78 88 8 6 45 31 5 5 4 5 53 48 100 86 98 99 100 100 69 100 100 100 100
100 100 100 100 100 100 100 96 93 99 100 98 58 76 98 100 100 58 62 11 12 5 5 11 54 32 36 54 76 81 5 44 29 100 74 85 98 100 100 100 100 100 100
100 100 100 100 100 100 100 100 100 100 100 100 100 100 38 22 100 100 54 15 5 4 0 0 0 98 100 100 100 100 92 100 100 100 100 100 98 96 100 100 100 100 100
100 100 100 100 100 100 100 100 100 100 100 64 62 41 65 5 5 82 52 18 5 5 14 40 7 5 10 84 100 100 100 100 98 100 100 100 100 87 100 100 100 100 100
100 100 100 100 100 100 100 100 100 100 100 99 72 37 72 55 74 6 5 5 5 24 92 98 100 100 86 93 100 100 100 100 100 100 100 100 100 100 100 100 100 100 100
100 100 100 100 100 100 100 100 100 100 100 100 90 95 98 31 32 5 5 5 5 5 57 99 100 100 100 100 100 100 100 100 100 100 100 100 100 100 100 100 100 100 100
100 100 100 100 100 100 100 72 34 5 36 28 57 72 92 25 53 32 15 6 6 39 97 99 100 100 100 100 100 100 98 100 100 100 100 100 100 100 100 100 100 100 100
100 99 98 94 90 81 38 6 20 41 31 60 98 89 97 54 46 13 8 44 25 63 59 9 7 39 99 100 100 91 100 100 100 100 100 100 100 100 100 100 100 100 100
72 53 14 5 5 5 5 23 33 62 54 46 77 48 98 60 62 73 57 37 26 24 52 9 5 3 12 1 94 100 100 100 100 100 100 100 100 100 100 100 100 100 100
100 89 72 60 61 85 71 37 66 63 37 84 96 73 56 48 55 33 63 75 21 67 23 62 87 100 100 100 100 100 100 100 100 100 100 100 100 100 100 100 100 100 100
100 100 100 100 100 100 100 100 100 100 97 80 98 53 75 8 36 21 7 33 5 0 0 0 0 41 76 100 100 100 100 100 100 100 100 100 100 100 100 100 100 100 100
100 100 100 100 100 100 100 100 100 100 91 35 99 66 38 22 25 5 5 8 2 0 0 0 22 65 73 100 100 100 100 100 100 100 100 100 100 100 100 100 100 95 100
100 100 100 100 100 100 100 100 100 84 87 75 80 70 58 28 23 18 63 100 69 0 25 81 86 62 17 92 100 100 100 100 100 100 100 100 100 100 100 100 100 100 99
100 100 88 100 100 56 11 7 9 12 24 5 4 4 2 100 100 100 92 100 100 94 40 41 50 46 36 97 100 100 100 100 100 100 100 100 100 100 100 100 100 100 100
100 100 100 98 89 78 99 100 15 6 7 17 3 2 71 100 100 100 100 100 100 100 100 100 100 100 100 95 79 90 100 100 100 100 100 100 100 100 100 100 100 100 100
100 100 98 77 95 100 99 30 5 6 44 52 28 59 100 100 100 100 100 100 100 100 100 100 100 100 100 100 100 91 93 97 100 100 100 100 100 100 100 100 100 100 100
100 100 100 100 100 63 17 8 7 100 100 100 100 100 100 100 100 100 100 100 100 100 100 100 98 92 96 89 58 35 39 62 72 97 98 100 93 100 100 100 100 100 100
87 99 100 80 5 62 73 5 86 100 100 100 100 100 100 100 100 100 100 100 100 100 100 97 12 5 8 6 5 5 5 87 100 100 100 100 100 100 100 100 100 100 100
100 100 93 69 20 95 5 26 100 100 100 100 100 100 96 100 100 100 100 100 91 55 36 90 5 5 5 5 5 0 0 0 6 93 99 99 99 100 96 98 82 70 54
69 6 9 5 12 15 54 97 100 100 100 100 100 100 98 100 94 75 26 4 0 0 0 2 2 3 3 5 7 5 0 1 5 5 5 5 6 5 6 19 5 5 5
65 29 5 46 95 100 100 100 100 100 100 100 93 59 20 6 4 5 3 0 0 0 0 0 0 0 0 4 4 5 5 5 5 5 5 5 13 34 68 74 73 72 64
52 54 78 84 100 100 100 100 100 100 100 100 100 10 5 5 5 5 5 5 14 5 5 3 2 0 0 0 4 5 5 5 5 5 23 38 30 40 61 71 63 5 5
100 96 75 100 100 100 100 100 100 56 52 100 100 98 37 20 5 26 9 14 60 10 5 5 5 5 5 5 5 5 5 5 33 88 98 76 65 86 73 33 5 5 5
100 82 59 99 100 100 100 100 74 5 55 100 100 100 98 67 20 26 43 76 100 62 13 5 5 5 5 5 5 14 59 61 23 32 42 31 38 43 5 5 5 5 6
95 65 13 96 100 100 100 81 9 5 5 91 100 100 94 85 87 75 97 100 100 98 40 47 5 5 10 10 5 6 27 100 100 100 76 34 27 22 5 5 5 6 93

GFSMW_prec_cloud_069.txt.gz
Cloud_Cover
75 5 48 100 100 96 19 5 54 100 18 0 5 21 5 15 8 61 100 89 81 100 73 12 5 5 11 5 10 5 5 3 0 10 100 88 5 15 100 100 96 100 100
100 44 97 100 100 100 100 39 5 10 54 98 53 10 13 9 5 5 51 96 100 100 60 100 100 94 91 80 5 5 5 5 30 88 100 100 73 99 100 100 100 84 91
100 100 100 100 100 74 88 41 5 5 5 24 42 61 99 100 100 94 100 40 6 75 93 92 88 94 13 28 8 5 5 16 78 86 60 70 78 66 51 59 100 100 100
100 100 100 100 100 100 100 100 100 89 91 96 100 100 100 100 100 100 100 98 31 5 5 5 6 36 21 5 3 3 100 100 100 100 100 100 100 100 100 100 100 100 100
100 100 100 100 100 100 100 100 100 89 100 99 65 32 94 97 23 59 95 32 7 8 5 4 0 17 12 3 11 5 9 33 73 100 100 100 100 100 100 100 100 100 100
100 100 100 100 100 100 100 100 100 100 76 60 59 79 68 34 24 5 10 90 22 5 5 5 4 4 6 100 58 33 27 97 100 100 100 100 83 93 100 100 100 100 100
100 99 98 100 100 100 100 100 100 100 100 97 32 34 43 38 75 75 11 5 5 4 5 5 80 29 62 66 94 100 100 100 89 74 96 100 86 100 90 100 100 100 100
100 100 100 100 100 100 100 100 100 100 100 99 99 100 100 26 58 86 48 5 5 5 5 10 34 31 64 100 99 100 51 100 100 66 96 100 79 100 100 98 100 100 100
100 100 100 100 100 100 100 100 100 100 100 86 100 100 100 100 95 22 5 11 34 50 29 23 96 88 41 16 70 100 59 28 52 98 100 100 100 100 100 100 100 100 100
100 100 100 100 100 100 100 100 100 100 100 93 96 100 88 82 56 75 83 39 57 29 36 25 57 98 25 22 5 28 46 66 100 100 100 100 100 100 100 100 100 100 100
100 75 97 100 100 100 100 100 100 100 100 100 100 100 61 58 82 59 64 88 93 90 100 54 28 5 6 5 3 23 100 100 100 100 100 100 100 100 100 100 100 100 100
100 100 90 67 92 100 100 100 100 100 100 100 94 100 94 81 100 100 88 100 100 100 100 28 6 5 0 0 0 0 48 100 100 100 100 100 100 100 100 100 100 100 100
100 100 100 98 64 90 100 48 36 74 99 99 89 97 100 100 100 100 100 95 22 5 2 4 0 0 0 0 0 6 97 100 100 100 100 100 100 100 100 99 100 100 100
100 100 100 100 100 100 100 95 98 100 100 82 58 100 100 95 100 84 72 45 6 0 0 0 27 77 0 4 62 89 98 100 100 100 100 100 100 100 100 100 100 100 100
100 100 100 100 100 100 100 100 100 100 78 100 97 72 76 100 100 100 100 100 90 100 96 100 98 53 53 33 19 84 96 100 100 100 100 100 100 100 100 100 100 100 100
100 100 100 100 100 100 100 100 100 100 99 76 5 4 100 100 100 100 100 100 100 100 100 100 100 100 100 92 53 36 79 86 100 100 100 100 100 88 100 100 100 100 100
99 100 100 100 100 100 100 100 100 100 79 38 17 100 100 100 100 100 100 100 100 100 100 100 100 100 100 100 90 62 33 52 53 50 40 78 62 70 99 100 100 100 100
100 100 100 98 100 100 58 63 72 100 100 100 100 100 100 100 100 100 100 100 100 100 97 87 68 56 23 9 8 10 21 24 15 4 2 2 5 5 49 82 98 100 100
100 100 100 100 97 100 100 100 95 100 100 100 100 100 100 100 100 100 100 100 100 100 8 20 2 1 5 5 2 5 5 5 3 0 0 0 0 5 43 5 5 5 5
100 100 100 100 100 100 100 100 87 100 100 100 100 100 100 100 100 100 100 84 58 98 100 30 6 5 5 5 5 0 0 0 0 0 0 5 5 76 76 6 5 14 45
100 100 100 92 98 68 51 23 51 100 100 100 100 95 100 100 100 98 25 44 4 5 4 2 3 2 5 5 5 5 1 2 0 2 0 5 60 5 5 17 15 38 59
75 31 84 26 78 57 20 78 100 100 100 100 100 99 83 54 64 87 66 11 8 42 5 4 5 5 3 2 5 5 5 4 4 5 5 8 21 62 66 57 52 78 57
95 70 14 10 34 28 92 100 100 100 100 100 57 95 100 100 100 100 55 35 5 16 5 29 63 20 5 5 5 5 5 5 5 5 5 66 75 43 16 25 67 73 50
100 100 100 100 78 100 100 100 100 100 94 75 10 91 100 100 100 100 100 10 5 5 5 11 87 39 11 7 5 5 5 5 5 5 11 68 100 100 98 60 31 5 5
100 81 44 61 99 100 100 100 99 92 14 5 4 5 84 100 100 100 54 11 65 62 10 15 90 100 77 7 8 5 5 5 5 5 29 36 47 40 5 5 5 5 5
60 70 94 100 100 100 100 100 97 13 5 0 5 15 83 98 54 62 37 61 65 85 34 59 100 100 97 100 59 6 5 8 10 40 20 6 5 5 5 5 5 5 87

GFSMW_prec_cloud_072.txt.gz
Cloud_Cover
100 100 100 21 5 55 100 100 75 5 66 100 99 97 88 59 56 14 6 5 17 5 5 5 91 100 96 88 44 96 80 19 8 56 74 100 92 69 53 30 88 100 100
100 100 100 93 29 18 55 18 62 44 5 5 41 94 100 88 45 56 23 16 20 5 46 100 100 78 87 22 9 5 5 7 5 7 37 60 58 98 9 6 5 12 92
100 100 100 100 100 73 35 77 100 100 99 26 5 36 68 96 65 69 100 92 83 98 100 100 100 100 72 5 8 10 5 5 32 5 17 63 75 18 100 100 94 76 77
81 100 100 100 100 100 100 100 98 31 51 100 100 98 99 60 78 62 39 56 19 39 8 9 17 23 23 9 5 20 8 15 15 38 8 77 56 55 88 91 100 100 100
99 100 100 100 100 100 100 100 100 100 100 94 83 87 100 100 100 100 100 100 52 77 9 3 7 20 28 15 36 20 26 45 71 70 25 29 53 95 100 97 74 63 96
100 100 100 100 100 100 100 100 100 100 100 100 96 45 67 86 85 100 99 91 53 23 76 30 15 7 11 24 23 15 79 59 54 98 100 97 100 67 89 99 72 83 74
57 94 100 100 100 100 100 100 100 100 100 100 81 34 26 13 67 83 17 5 50 100 100 66 85 21 5 5 5 10 85 100 60 61 84 71 98 100 100 100 92 100 87
99 99 99 100 100 100 99 100 100 100 100 96 80 67 18 14 25 43 70 79 71 61 100 100 38 42 23 35 97 100 96 53 36 68 98 97 97 100 96 100 100 100 100
100 100 100 100 100 100 100 93 100 100 100 100 100 99 59 18 51 23 32 44 84 20 50 69 66 9 98 100 100 70 38 23 100 100 97 99 100 98 100 100 100 100 100
100 100 100 99 100 100 98 100 99 100 100 100 99 100 100 90 93 81 96 51 79 88 100 17 57 97 55 58 71 30 64 100 100 100 92 95 100 100 100 100 100 100 100
100 100 100 100 100 100 100 100 100 100 100 100 100 100 100 100 100 100 100 100 100 78 100 72 93 71 100 63 27 5 36 98 89 98 100 100 100 100 100 100 100 100 100
100 100 100 100 100 100 100 100 100 100 100 100 100 100 100 100 98 100 100 100 100 100 100 94 99 100 100 34 5 2 53 99 87 79 100 100 100 100 100 100 100 100 100
100 100 100 100 100 100 100 100 100 100 100 100 100 100 100 100 100 100 100 100 100 100 99 100 88 14 3 0 0 0 27 54 91 100 99 98 100 100 100 88 87 100 100
100 100 100 100 95 100 100 100 100 86 70 76 99 75 72 93 96 99 100 100 100 100 100 11 2 0 0 0 2 55 48 77 100 89 100 99 100 94 61 86 95 100 100
100 100 100 100 100 100 100 98 99 98 85 70 74 92 100 100 100 100 100 100 100 100 100 100 71 19 5 3 3 35 96 100 100 100 100 100 97 91 80 99 100 100 100
100 100 100 100 100 100 100 100 100 100 100 100 100 100 100 100 100 100 100 100 100 100 100 100 100 100 100 100 81 13 19 19 78 100 59 57 55 40 91 100 96 100 100
100 100 100 100 100 100 100 100 100 100 100 100 100 100 100 100 100 100 100 100 100 100 100 100 100 100 100 100 82 16 10 7 10 7 5 5 18 61 60 6 4 4 5
100 100 100 100 100 100 100 100 100 100 100 100 100 100 100 100 100 100 100 100 100 100 97 72 16 5 5 5 5 5 5 5 5 5 2 2 4 5 6 5 5 5 5
100 100 100 100 95 100 100 100 100 100 100 100 100 100 100 100 100 100 100 100 62 5 32 9 2 0 3 5 5 4 4 2 0 1 4 1 5 19 61 5 5 5 5
83 90 87 92 74 49 78 100 97 100 100 100 100 100 100 100 100 100 100 100 100 14 13 5 5 5 5 10 5 1 5 3 5 5 5 5 5 5 5 5 5 5 5
95 100 77 75 100 100 100 100 100 100 100 100 100 100 100 100 100 100 60 39 24 43 5 20 59 10 5 5 5 5 5 5 5 5 5 5 13 5 5 5 34 100 100
100 100 100 100 100 100 100 100 100 100 100 100 100 92 96 100 100 27 5 5 5 46 94 59 19 5 6 5 5 5 32 59 60 5 5 5 5 5 5 5 15 82 29
100 100 100 100 100 100 100 87 96 95 100 100 100 100 100 27 16 56 81 100 100 100 100 93 60 11 25 5 5 31 24 6 5 5 5 5 5 5 5 5 55 11 5
100 100 100 100 100 84 54 47 100 100 100 100 94 38 16 5 11 82 100 100 100 100 100 53 23 52 20 5 5 18 89 34 5 5 5 6 5 5 5 5 5 5 5
100 98 99 98 86 84 72 100 100 100 100 100 44 7 4 5 62 100 97 100 100 94 31 39 5 5 13 36 12 61 39 11 5 22 37 37 34 24 37 14 10 5 5
99 82 85 86 95 99 92 100 100 100 94 49 50 5 0 4 5 8 47 65 61 54 41 32 57 44 14 5 5 5 5 5 5 5 5 7 52 74 69 38 6 18 25

GFSMW_prec_cloud_075.txt.gz
Cloud_Cover
100 100 100 100 100 100 100 100 86 71 24 5 5 69 100 100 100 99 39 20 5 5 11 80 93 68 55 32 99 69 100 100 94 30 12 5 6 53 31 13 5 5 5
88 100 100 100 100 100 80 58 57 15 52 99 100 100 100 100 100 100 100 100 100 89 85 100 90 75 100 100 89 100 97 61 53 39 64 79 20 5 5 5 5 3 5
100 100 100 100 100 100 100 100 99 84 76 93 100 100 100 100 100 100 100 100 100 95 95 93 100 100 100 100 100 29 9 13 54 23 82 80 25 5 45 33 6 79 96
100 100 100 100 100 100 100 100 100 100 96 56 36 80 100 100 100 100 100 100 100 100 100 100 100 100 100 100 100 99 92 60 56 86 66 100 98 96 92 50 100 86 26
100 100 90 93 100 100 100 100 100 100 100 100 100 93 75 61 95 76 63 97 83 98 95 95 98 92 95 67 25 43 97 82 47 74 75 89 100 100 100 100 100 100 69
80 100 100 91 100 100 100 100 100 100 100 100 100 100 100 100 100 100 100 100 92 10 5 28 24 43 42 32 30 88 52 42 50 40 91 100 100 100 100 100 100 100 17
16 23 98 100 100 99 99 100 100 100 100 100 100 100 100 100 100 100 100 100 100 89 66 28 16 58 96 80 55 71 97 30 41 66 99 86 86 100 100 100 100 100 100
20 89 54 77 76 41 33 100 100 100 100 100 100 100 100 100 100 94 80 100 100 100 95 97 91 90 46 100 99 73 29 24 93 90 100 100 90 100 100 100 94 99 100
7 40 100 100 98 100 100 65 59 83 95 100 99 99 100 100 100 91 95 94 95 97 80 83 70 90 98 100 100 92 96 100 100 99 100 100 99 100 100 100 100 100 100
89 100 99 46 29 43 60 97 70 56 29 46 83 99 100 100 100 100 100 100 100 100 100 100 100 100 100 100 76 99 100 100 100 96 100 100 96 53 55 69 98 100 100
86 18 44 97 69 79 78 85 100 93 71 85 95 100 100 100 100 100 100 100 100 100 98 100 100 100 98 81 95 100 100 100 100 80 75 82 46 76 81 100 100 97 100
84 94 70 100 100 100 100 80 85 100 97 100 100 100 100 100 100 99 81 44 78 96 50 71 42 35 100 100 92 100 100 100 100 100 84 100 100 100 100 100 100 100 97
100 100 100 100 100 100 100 100 100 99 100 89 69 63 81 74 28 35 30 84 66 50 68 53 72 100 100 100 100 88 67 100 100 86 100 99 97 100 98 96 71 46 78
100 100 100 100 100 100 99 100 100 100 74 77 98 79 90 81 95 100 100 100 93 79 95 96 100 100 100 100 99 97 100 100 100 81 67 100 100 100 69 75 26 40 100
100 100 100 100 100 100 100 100 100 100 100 100 100 100 100 100 100 100 100 100 100 100 100 100 100 100 100 100 86 100 100 100 100 100 100 100 100 98 62 8 5 5 10
100 100 100 100 100 100 100 100 100 100 100 100 100 100 100 100 100 100 100 100 100 100 100 100 100 100 100 100 68 16 19 85 97 47 65 63 14 30 74 79 29 70 8
100 100 100 100 100 100 100 100 100 100 100 100 100 100 100 100 100 100 100 100 100 100 100 100 100 100 100 100 83 11 5 5 5 5 5 4 4 5 5 5 5 4 5
100 100 100 100 100 100 100 100 100 100 100 100 100 100 100 100 100 100 100 100 100 100 100 100 100 100 5 5 5 5 5 5 5 5 5 5 5 12 5 5 5 5 5
100 100 100 100 100 100 100 100 100 100 100 100 100 100 100 100 100 100 100 100 100 100 100 100 48 5 5 5 5 4 0 5 4 2 5 5 5 16 20 5 18 12 5
90 82 99 100 100 100 100 100 100 100 100 100 100 100 100 100 100 100 100 100 100 79 41 81 5 5 5 5 5 2 5 5 2 5 5 34 54 53 51 44 22 5 5
100 100 100 100 100 100 99 100 100 100 100 100 100 100 100 100 100 100 100 100 72 78 5 5 5 5 5 5 5 32 14 5 5 9 39 49 55 10 5 5 5 15 6
100 100 96 78 81 96 91 81 79 60 85 100 100 100 100 100 100 98 24 8 23 12 5 5 5 5 5 6 69 58 13 5 5 26 70 48 46 5 5 19 56 74 46
100 100 100 98 93 80 100 100 100 96 98 100 100 100 100 100 100 13 42 39 5 5 22 30 26 30 96 100 100 67 5 6 34 80 30 5 5 5 5 5 31 7 8
100 100 100 100 100 100 100 100 100 100 100 100 100 100 100 81 83 82 35 5 65 62 90 100 100 100 100 100 91 34 54 54 26 31 6 5 5 5 5 5 5 5 5
100 100 100 100 100 100 100 100 100 100 100 100 100 100 72 99 84 45 5 5 5 5 5 5 34 70 100 85 97 44 42 42 5 5 5 5 5 5 5 5 5 15 56
100 100 100 100 100 100 100 75 100 100 100 100 100 92 83 100 80 53 5 1 5 5 5 31 51 62 58 44 54 44 18 5 5 5 28 38 5 66 79 26 32 44 82

GFSMW_prec_cloud_078.txt.gz
Cloud_Cover
100 100 100 100 83 23 5 53 70 89 100 100 100 100 100 81 100 100 100 100 100 100 100 100 100 100 79 29 5 6 30 95 19 58 55 30 26 24 5 24 5 5 5
100 92 100 100 100 100 100 100 100 100 100 100 100 100 91 92 100 86 37 44 60 73 74 91 80 100 99 91 100 100 66 91 92 88 100 100 98 50 5 24 71 21 6
100 99 98 100 100 100 100 100 100 100 100 91 81 97 100 100 100 56 33 19 39 66 96 100 100 100 100 100 100 71 100 99 92 32 100 100 100 100 97 59 53 11 7
100 100 100 100 100 100 100 100 100 100 100 100 100 100 100 100 100 98 78 63 72 84 78 99 100 96 92 100 100 100 100 80 97 97 87 100 100 100 100 100 100 96 76
100 100 100 100 100 100 100 100 100 100 100 100 100 100 100 100 100 100 100 100 100 100 100 100 100 100 100 100 99 100 96 100 99 100 100 100 93 100 100 100 100 100 100
100 93 81 36 100 100 100 100 100 100 100 100 100 100 100 100 100 100 100 100 100 100 100 81 82 100 100 99 85 94 85 99 100 100 99 56 72 100 80 89 100 100 100
93 97 27 88 6 76 100 100 100 100 100 100 100 100 100 100 93 100 100 100 94 93 88 96 100 98 100 100 100 100 99 100 100 100 100 96 98 75 100 100 100 91 84
90 76 100 98 55 6 32 98 100 100 100 100 100 100 100 100 100 100 100 100 100 100 100 100 99 92 96 100 100 100 100 100 100 100 91 41 72 63 100 100 100 92 90
76 24 5 53 90 63 5 56 96 57 39 64 84 98 100 100 100 100 100 100 100 100 100 100 100 100 100 100 100 100 100 100 100 100 100 100 100 100 100 94 96 100 100
100 100 99 5 5 5 10 5 5 6 10 28 43 69 92 100 100 100 100 100 100 100 100 100 100 100 100 100 100 100 100 100 88 92 100 100 100 100 88 57 61 86 100
100 100 100 26 11 5 5 5 4 5 18 86 100 100 100 100 100 100 100 100 100 100 100 100 100 100 100 100 100 89 100 100 100 100 100 100 100 100 95 57 89 100 98
100 100 100 99 20 42 41 5 5 3 5 15 74 100 100 100 100 100 100 100 100 100 100 100 100 100 81 96 92 88 100 100 100 100 100 100 100 100 100 100 100 100 100
100 100 84 36 80 50 100 93 46 11 5 8 5 64 44 26 63 81 86 100 99 100 100 100 97 100 100 100 80 95 100 100 100 100 100 100 99 83 100 93 82 90 21
100 100 100 98 100 100 100 100 96 98 96 100 100 90 53 79 94 100 78 97 100 100 100 92 98 94 67 100 100 100 100 100 100 100 100 100 100 100 90 12 9 13 10
5 5 5 92 100 100 100 100 100 100 100 99 95 94 92 100 100 100 100 100 100 100 100 99 86 62 100 100 100 100 100 100 100 100 100 100 100 95 64 6 5 5 5
19 5 5 98 100 100 100 100 100 100 100 100 100 100 100 100 100 100 100 100 100 100 100 100 100 100 100 100 100 100 100 100 100 100 70 5 6 28 42 44 37 5 5
72 100 93 100 100 100 100 57 88 100 100 100 100 100 100 100 100 100 100 100 100 100 100 100 100 100 100 100 100 100 38 100 100 100 5 5 5 5 5 5 6 7 14
100 100 100 100 100 100 100 100 99 96 88 99 100 100 100 100 100 100 100 100 100 100 100 100 100 100 100 100 100 94 100 100 100 6 5 5 5 7 5 5 6 6 5
93 100 100 100 100 99 100 100 100 100 100 100 100 100 100 100 100 100 100 100 100 100 100 100 100 100 100 100 100 95 69 39 7 5 5 5 5 5 8 5 5 5 5
100 100 100 100 100 100 100 98 100 100 100 100 100 100 100 100 100 100 100 100 100 100 100 100 100 98 56 79 53 6 5 5 5 5 5 8 7 8 20 8 5 5 5
100 100 100 100 100 100 100 100 100 100 100 100 100 100 100 100 100 100 100 100 100 96 100 84 99 45 57 38 5 5 7 5 14 81 47 6 35 23 5 5 5 14 5
100 100 100 100 100 100 100 100 100 100 100 100 100 100 100 100 100 100 100 100 100 99 100 92 25 5 5 6 53 74 16 84 100 100 29 18 42 6 5 5 5 70 5
81 100 100 100 100 78 19 100 100 100 100 100 100 100 100 100 100 100 100 100 100 97 9 5 5 15 100 70 11 78 100 100 88 66 43 44 17 5 5 5 5 5 5
86 100 100 76 100 90 100 100 100 100 88 74 100 100 100 100 100 100 100 100 78 20 5 21 86 96 62 92 82 95 95 73 59 52 58 18 5 5 5 5 5 5 5
93 95 88 90 100 94 100 100 100 100 100 100 100 100 100 100 100 100 100 81 91 55 10 5 5 4 6 5 5 52 70 65 50 43 27 14 6 5 5 5 5 5 5
100 100 100 100 100 100 99 100 100 100 100 100 100 100 100 100 100 100 100 100 69 40 5 5 5 5 4 5 5 5 5 10 6 5 10 43 9 5 12 6 5 5 10

GFSMW_prec_cloud_081.txt.gz
Cloud_Cover
100 100 100 100 98 100 100 100 97 100 100 100 100 100 100 100 100 100 97 82 100 100 100 100 89 63 92 66 78 72 100 100 100 100 25 9 5 15 5 5 5 5 5
100 100 100 100 100 98 100 100 91 80 100 100 100 100 100 100 100 100 100 100 100 100 100 100 100 100 100 85 88 100 100 98 46 9 71 82 87 30 37 8 11 13 35
100 100 100 100 100 100 100 100 97 54 69 91 100 100 100 100 100 100 100 100 100 100 100 100 100 100 100 98 100 100 88 45 100 47 100 100 77 99 44 74 84 100 87
100 100 100 100 100 100 100 100 100 73 96 79 89 100 100 100 100 100 100 100 100 100 100 100 100 100 100 100 91 77 57 92 100 100 97 95 100 98 100 100 100 100 100
100 100 100 100 100 100 100 100 100 100 100 100 100 100 100 100 100 100 100 100 100 100 100 100 100 100 100 100 100 100 100 100 100 100 100 97 100 100 100 100 91 96 100
100 100 100 100 100 100 100 100 100 100 100 100 99 100 100 100 100 100 100 100 100 100 91 100 100 100 100 100 100 100 100 100 100 100 100 100 100 100 93 96 86 62 99
100 87 94 100 100 100 100 100 100 79 57 87 83 100 100 100 100 100 100 100 100 100 100 100 100 100 100 100 100 100 100 100 100 100 100 100 100 100 100 100 100 92 97
100 100 100 100 100 100 100 100 100 100 100 100 71 90 98 100 100 100 100 100 100 81 100 100 100 100 100 100 100 100 100 100 100 100 100 100 100 96 100 100 77 67 100
100 100 100 100 97 97 77 79 96 100 100 100 100 100 100 100 100 100 100 100 100 100 100 100 100 100 100 100 100 100 100 100 100 100 100 100 100 100 99 100 100 100 100
100 100 100 100 99 41 6 5 5 53 98 100 100 100 100 100 100 100 100 100 100 100 100 100 100 100 100 100 100 100 100 100 100 100 100 90 99 90 100 100 100 100 100
100 100 100 100 100 100 85 75 26 9 95 100 64 76 100 100 100 100 100 100 100 100 100 100 100 100 100 100 100 100 100 100 100 100 100 100 100 100 100 100 100 99 100
100 100 100 100 100 100 92 24 14 3 5 17 93 83 72 92 100 100 100 100 100 100 100 100 100 100 100 100 100 100 100 100 100 100 100 100 100 100 100 100 100 100 100
100 100 100 100 100 100 100 63 17 11 5 5 5 5 5 5 10 51 99 96 100 97 100 100 100 100 100 100 100 100 100 100 100 100 100 100 100 100 100 100 95 62 39
100 100 100 64 20 97 42 54 6 5 77 90 9 5 77 31 15 61 71 80 22 11 5 41 75 92 100 100 100 100 100 100 100 100 100 100 100 100 100 67 5 13 5
100 100 100 85 27 53 58 10 37 35 24 100 95 23 90 100 99 100 100 100 100 100 96 97 100 100 100 100 100 100 100 100 100 100 100 100 100 100 100 83 5 5 5
0 3 5 18 68 57 7 37 56 5 23 68 53 57 93 100 100 100 100 100 100 100 100 100 100 100 100 100 100 100 100 100 100 100 100 100 100 100 100 26 6 5 1
5 6 5 5 5 29 100 98 99 92 77 41 37 51 81 99 100 100 100 100 100 100 100 100 100 100 100 100 100 100 100 100 100 97 100 100 100 100 27 5 5 5 5
5 5 5 12 64 75 100 100 92 99 97 59 71 31 74 97 100 100 100 100 100 100 100 100 100 100 100 100 100 100 100 100 100 100 100 79 51 6 5 5 3 5 5
32 86 98 55 93 98 99 100 100 100 100 98 98 98 100 100 100 100 100 100 100 100 100 100 100 100 100 100 100 100 100 100 100 100 88 39 5 30 5 1 5 1 5
55 100 100 100 100 72 88 100 100 100 100 100 100 100 100 100 100 100 100 100 100 100 100 100 100 100 100 100 100 100 100 100 100 17 14 5 5 5 5 10 5 5 15
73 100 56 100 100 100 100 100 100 100 100 100 100 100 100 100 100 100 100 100 100 100 100 100 100 100 100 100 100 100 82 78 47 27 54 42 12 98 42 5 5 37 48
100 22 37 100 100 100 100 100 100 100 100 100 100 100 100 100 100 100 100 100 100 100 100 100 100 100 100 100 99 54 36 100 99 95 54 99 76 30 25 19 25 58 49
7 6 8 68 100 100 100 100 100 100 100 100 100 100 100 100 100 100 100 100 100 100 100 100 100 98 100 95 11 10 81 99 100 99 26 33 61 90 64 18 90 75 20
54 95 96 100 100 100 100 93 93 99 98 83 99 100 100 100 100 100 100 100 100 100 100 100 100 98 53 5 6 17 45 23 34 66 56 60 41 40 58 42 15 5 5
100 100 100 82 100 88 100 100 95 93 78 99 95 100 100 100 100 100 100 100 100 100 100 100 100 48 37 5 5 5 5 17 75 55 5 5 6 5 5 5 23 27 40
100 100 100 100 94 100 100 100 100 100 100 100 100 100 100 100 100 100 100 100 100 100 100 100 100 59 16 21 5 18 32 81 72 69 38 59 64 50 64 90 74 80 60

GFSMW_prec_cloud_084.txt.gz
Cloud_Cover
100 100 100 100 100 98 61 100 100 100 100 100 100 100 100 100 100 100 84 84 75 66 63 58 10 58 100 100 100 100 100 100 100 87 100 100 32 5 5 6 29 82 42
100 100 100 100 100 100 100 100 100 100 100 100 100 100 100 100 100 100 100 100 100 100 100 100 100 59 89 100 100 100 100 100 100 100 100 100 80 84 54 84 15 27 44
100 100 100 100 100 100 100 100 100 100 100 100 100 100 100 100 100 100 100 100 100 100 100 100 100 100 100 100 100 100 100 100 100 92 98 76 100 100 100 100 98 91 14
100 100 100 100 100 100 100 100 100 100 100 100 100 100 100 100 100 100 100 100 100 100 100 100 100 100 100 100 100 100 100 100 100 100 100 88 99 100 100 100 100 100 57
72 100 100 100 100 100 100 100 92 100 100 100 100 100 100 98 98 97 100 100 100 100 100 100 100 100 100 100 100 100 100 100 100 100 100 100 100 100 100 100 100 100 67
99 100 100 99 100 95 99 100 100 100 99 100 100 100 100 100 100 100 100 100 100 100 100 100 100 100 100 100 100 100 100 100 100 100 100 100 100 100 100 100 100 100 100
100 100 100 100 100 100 100 100 100 100 100 100 100 100 100 100 100 100 100 100 100 100 100 100 100 100 100 100 99 100 100 100 100 100 100 100 100 100 100 100 100 100 100
100 100 100 100 100 100 100 100 100 100 98 100 100 98 100 100 88 100 98 100 100 100 100 100 100 100 100 100 100 100 100 100 100 100 100 100 100 100 100 100 100 100 80
91 100 91 100 100 100 100 100 100 100 100 100 100 100 100 92 98 91 72 83 81 100 100 100 100 100 100 100 100 100 100 100 100 100 100 100 100 100 100 100 97 97 100
93 94 100 100 100 100 100 100 100 100 96 100 100 100 100 100 100 96 96 69 93 100 100 100 100 100 100 100 100 100 100 100 100 100 100 100 100 100 100 100 91 100 100
100 100 100 100 100 100 100 100 100 100 100 100 99 90 100 100 100 100 100 100 100 100 100 100 100 100 100 100 100 100 100 100 100 100 100 100 100 100 100 86 100 100 100
100 100 100 100 100 100 100 100 100 100 97 71 89 94 47 98 90 100 100 100 100 100 100 100 100 100 100 100 100 100 100 100 100 100 100 100 100 100 100 100 100 100 100
100 99 100 100 100 100 100 100 100 100 89 92 70 6 5 5 10 41 68 70 94 100 100 100 100 100 100 100 100 100 100 100 100 100 99 99 100 100 100 100 100 100 100
100 100 92 57 96 100 100 100 100 88 100 98 83 40 49 5 4 2 7 11 17 23 95 100 100 100 100 100 100 100 100 100 100 100 100 100 100 100 100 100 100 100 100
7 71 100 100 100 100 99 98 100 100 100 59 100 100 100 100 10 38 57 52 94 100 44 71 84 97 100 100 100 100 100 100 100 100 100 100 100 100 100 100 100 100 61
5 3 0 19 91 51 100 100 95 52 97 100 100 100 100 100 92 100 96 100 100 100 100 100 100 100 100 100 100 100 100 100 100 100 100 100 100 100 100 100 100 67 42
0 0 0 0 0 0 6 55 84 29 13 21 12 23 5 66 77 75 84 100 100 100 100 100 100 100 100 100 100 100 99 100 100 100 100 100 100 100 100 100 98 45 34
0 4 0 0 2 4 25 79 58 64 33 5 44 95 100 88 91 100 100 100 100 100 100 100 100 100 100 100 100 100 100 100 100 100 100 100 100 100 100 92 93 18 10
5 0 3 14 5 35 24 90 100 97 100 68 70 83 100 98 100 100 100 100 100 100 100 100 100 100 100 100 100 100 100 100 100 100 100 100 56 86 100 29 18 8 3
6 5 80 44 100 14 30 77 45 98 100 100 100 100 95 98 100 100 100 100 100 100 100 100 100 100 100 100 100 100 100 100 100 98 100 100 93 74 6 20 5 54 62
41 81 99 85 14 81 100 88 95 86 100 98 98 99 100 100 99 100 100 100 100 100 100 100 100 100 100 100 100 100 100 100 100 100 100 85 79 49 84 28 46 5 5
100 79 94 6 60 23 10 97 99 97 78 99 99 100 100 100 100 100 100 100 100 100 100 100 100 100 100 100 100 100 100 100 100 56 80 78 90 36 5 5 5 30 7
43 94 45 100 75 5 20 100 100 100 100 100 100 100 100 100 100 100 100 100 100 100 100 100 100 100 100 100 100 100 100 79 98 20 9 7 5 5 5 5 5 18 5
81 63 13 12 34 71 63 97 97 100 100 97 100 100 100 100 100 100 100 100 100 100 100 100 100 100 100 100 100 100 100 72 49 24 5 5 5 6 9 5 5 5 5
60 47 96 88 59 87 64 88 98 92 97 96 97 100 100 100 100 100 100 100 100 100 100 100 100 100 100 100 100 100 70 49 95 80 18 44 50 55 43 49 42 26 52
37 73 94 100 100 100 100 100 100 85 96 99 100 98 100 100 100 100 100 100 100 100 100 100 100 100 100 100 100 92 56 31 22 8 20 40 31 66 81 68 42 55 62

GFSMW_prec_cloud_087.txt.gz
Cloud_Cover
100 100 100 100 100 100 100 100 90 31 19 100 100 100 100 100 100 100 100 100 100 100 100 92 41 65 42 39 40 50 100 100 100 100 100 100 100 100 30 36 60 61 39
1 100 100 100 100 100 100 100 100 90 98 74 100 100 100 100 100 100 100 100 100 100 100 100 100 100 100 100 100 100 100 100 100 100 100 100 100 100 83 100 36 54 78
26 21 100 100 100 100 100 100 100 100 98 100 100 100 94 100 100 100 100 100 100 100 100 100 100 100 100 100 100 100 100 100 100 100 100 100 100 100 100 100 83 100 98
0 5 10 100 100 100 100 100 100 100 100 100 100 100 100 100 100 100 100 100 100 100 100 100 100 100 100 100 100 100 100 100 100 100 100 100 87 78 91 93 100 100 100
0 17 2 5 100 100 100 100 78 100 100 100 100 100 100 100 100 100 100 100 100 100 100 100 100 100 100 100 100 100 100 100 100 100 100 100 100 100 59 100 100 100 91
1 45 22 5 40 100 100 100 98 92 98 100 100 100 100 100 100 100 100 100 100 100 100 100 100 100 100 100 100 100 100 100 100 100 100 100 100 100 100 100 100 100 100
3 8 88 16 16 96 100 100 100 100 80 100 100 100 100 100 100 100 100 100 100 100 100 100 100 100 100 100 100 100 100 100 100 100 100 100 100 100 100 100 100 100 100
0 7 83 88 85 99 100 100 100 100 97 100 100 100 100 100 100 100 100 100 100 100 100 100 100 100 100 100 100 100 100 100 100 100 100 100 100 100 100 100 100 100 100
6 25 97 90 93 89 100 100 100 100 100 100 100 100 100 100 100 100 100 100 100 100 100 100 100 100 100 100 100 100 100 100 100 100 100 100 100 100 100 100 100 99 100
23 100 100 100 100 100 99 95 100 100 100 100 100 100 100 100 100 100 100 100 100 100 100 100 100 100 100 100 100 100 100 100 100 100 100 100 100 100 100 100 100 97 98
2 19 100 29 100 100 100 100 100 100 100 100 100 100 100 100 100 100 100 100 100 100 100 100 100 100 100 100 100 100 100 100 100 100 100 100 100 100 100 100 100 100 99
0 0 97 97 90 100 100 100 64 94 100 100 100 100 100 100 100 100 100 100 100 100 100 100 100 100 100 100 100 100 100 100 100 100 100 100 100 100 100 100 62 80 97
0 12 95 100 12 98 100 100 100 100 100 100 100 100 100 100 100 96 94 95 88 91 99 100 100 100 100 100 100 100 100 100 100 100 100 100 100 100 97 100 100 100 100
0 30 100 100 100 93 26 100 82 100 100 100 100 100 100 100 100 99 100 98 100 100 100 100 96 99 92 97 100 100 100 100 100 100 99 66 100 88 100 100 100 100 100
0 2 7 96 100 100 100 100 100 76 100 100 100 100 100 100 100 100 100 100 96 14 8 7 16 80 99 100 100 100 100 100 100 100 96 74 100 99 100 100 100 100 100
5 5 5 5 5 83 100 100 100 100 93 100 55 35 100 100 100 100 99 100 61 35 58 100 100 100 100 100 100 100 100 100 100 99 96 100 100 100 100 100 100 100 100
2 0 3 6 5 2 0 55 85 87 36 83 100 36 7 8 89 95 100 100 71 89 100 100 100 100 100 100 100 100 100 100 99 95 100 100 100 100 100 100 100 100 100
5 0 0 0 3 3 5 0 0 0 0 1 3 5 5 4 52 95 100 86 100 100 100 100 100 100 100 100 91 72 73 100 100 99 100 100 100 100 100 100 100 100 100
5 3 5 5 0 0 0 0 0 0 1 4 5 5 5 11 100 100 100 99 100 100 100 100 100 100 83 96 98 100 100 100 100 100 100 100 100 100 100 100 100 100 60
5 5 2 5 0 0 5 36 100 21 27 5 9 28 5 8 90 100 100 91 100 100 100 100 90 99 100 100 100 100 100 100 100 100 100 100 100 100 100 100 100 53 41
10 20 53 23 0 3 5 26 100 100 100 10 26 10 32 82 100 100 100 100 100 100 100 100 100 100 100 100 100 100 100 100 100 100 100 100 100 100 100 68 19 87 5
48 12 22 92 5 5 17 90 15 99 60 100 80 43 100 100 100 100 100 100 100 100 100 100 100 100 100 100 100 100 100 100 100 100 100 90 94 100 24 20 23 6 4
24 100 100 90 99 59 26 25 37 8 5 94 100 100 100 100 100 100 100 100 100 100 100 100 100 100 100 100 100 100 100 100 100 100 100 100 100 81 34 5 5 5 5
5 5 19 84 83 100 86 100 82 8 35 85 100 100 100 100 100 100 100 100 100 100 100 100 100 100 100 100 100 100 100 100 100 100 100 100 100 100 100 100 83 6 6
5 28 18 5 67 87 63 61 58 70 69 30 64 99 100 100 100 100 100 100 100 100 100 100 100 100 100 100 100 100 100 100 100 100 100 100 100 100 100 100 82 6 25
12 9 28 52 65 52 44 88 99 100 86 67 93 100 100 100 100 100 100 100 100 100 100 100 100 100 100 100 100 100 100 99 100 100 98 95 53 64 60 43 24 76 76

GFSMW_prec_cloud_090.txt.gz
Cloud_Cover
51 100 100 100 100 100 100 100 100 100 100 5 4 60 100 100 100 100 100 100 100 100 100 100 100 100 100 100 100 100 100 99 100 100 100 100 100 100 100 99 98 94 87
1 0 87 100 100 99 95 98 98 100 95 99 79 6 76 96 100 100 100 100 100 100 100 100 100 100 100 100 100 100 100 100 100 100 100 100 100 100 100 100 88 13 43
2 2 1 13 100 100 86 100 98 100 100 100 55 58 94 100 100 100 100 100 100 100 100 100 100 100 100 100 100 100 100 100 100 100 100 100 100 100 100 100 100 85 94
5 0 0 0 1 100 100 100 99 57 100 99 98 100 100 100 100 100 100 100 100 100 100 100 100 100 100 100 100 100 100 100 100 100 100 81 100 100 100 100 100 100 100
6 2 0 0 0 0 90 100 95 94 29 100 100 77 100 100 100 100 100 100 100 100 100 100 100 100 100 100 100 100 100 100 100 100 100 100 100 100 100 100 100 100 100
57 18 0 0 0 0 0 56 100 97 69 100 100 100 100 100 100 100 100 100 100 100 100 100 99 98 100 100 100 100 99 100 100 100 100 100 100 100 100 100 100 100 100
53 75 0 0 0 0 0 0 6 100 100 100 94 100 100 100 100 100 100 100 100 100 100 100 100 100 100 100 98 94 78 98 100 100 100 100 100 100 100 100 100 100 100
9 51 4 0 0 0 0 24 16 5 85 100 100 99 100 95 100 100 100 100 100 100 100 100 100 100 100 100 100 100 100 100 100 100 100 100 100 100 100 100 100 100 100
49 43 6 0 0 3 5 93 100 68 100 99 100 100 100 91 100 100 100 100 100 100 100 100 100 100 100 100 100 100 100 100 100 100 100 100 100 100 100 100 100 100 100
2 3 5 0 0 1 30 100 100 98 100 99 100 100 100 100 100 100 100 100 100 100 100 100 100 100 100 100 100 100 100 100 100 100 100 100 100 100 100 100 100 100 100
5 11 6 0 1 56 48 52 100 100 100 100 100 100 100 100 100 100 99 87 100 100 100 100 100 100 100 100 100 100 100 100 100 100 100 100 100 100 100 100 100 100 100
28 67 5 0 4 28 100 99 100 100 100 100 100 100 100 100 100 100 100 100 100 91 94 90 100 100 100 100 100 100 100 100 100 100 100 100 100 100 100 100 100 100 100
23 5 1 0 0 13 80 12 91 100 100 100 100 97 100 100 100 100 100 100 100 100 100 81 60 79 97 99 100 100 100 100 100 100 100 100 100 100 100 100 97 49 55
69 45 0 0 28 95 100 100 94 100 100 100 100 100 100 100 100 100 100 100 100 100 100 100 100 92 96 60 41 85 86 100 100 100 100 100 100 89 97 24 89 100 100
95 100 32 0 0 5 100 100 100 100 100 100 100 92 97 100 100 100 100 100 100 100 100 100 100 99 99 100 100 100 100 100 100 100 100 71 74 79 91 89 99 100 100
100 84 3 5 0 0 0 78 99 65 83 100 100 100 100 100 100 100 100 100 100 100 100 85 69 100 100 100 100 100 100 100 100 100 100 100 100 100 99 79 95 100 100
99 20 5 5 5 5 5 5 6 61 98 100 100 100 99 100 100 100 22 19 97 100 100 86 89 100 100 100 100 100 100 100 100 100 100 98 95 99 100 100 100 100 100
77 33 5 62 41 4 5 5 14 5 5 5 12 14 15 12 8 32 69 100 16 31 61 95 100 100 100 100 100 100 100 100 100 100 100 99 99 100 97 100 100 100 100
100 89 22 5 1 5 5 2 2 1 4 1 0 0 0 4 4 0 70 97 96 100 99 100 100 100 100 83 59 98 100 100 100 100 100 100 100 100 100 100 100 100 100
14 12 55 8 5 5 5 5 5 7 34 6 5 5 5 5 4 35 100 100 79 100 100 100 100 100 100 100 100 100 100 100 100 100 100 100 100 100 100 100 100 100 100
2 2 1 4 4 5 5 5 5 5 5 5 5 14 81 91 10 98 100 100 65 100 100 100 100 100 100 100 94 96 100 100 100 100 100 100 100 100 100 100 100 100 93
84 35 74 52 76 20 5 6 5 5 5 5 35 91 32 97 100 98 100 100 100 100 100 100 100 100 100 100 100 100 100 100 100 100 100 100 100 100 100 100 100 100 100
100 100 100 100 100 100 42 6 46 58 9 78 27 36 13 98 100 100 100 100 100 100 100 100 100 100 100 100 100 100 100 100 100 100 100 100 100 100 100 100 100 100 100
100 92 84 83 89 100 100 100 100 73 81 9 49 5 93 100 100 100 100 100 100 100 100 100 100 100 100 100 100 100 100 100 100 100 100 100 100 100 100 100 100 100 100
5 5 10 5 5 5 34 96 100 100 99 100 100 94 46 100 100 100 100 100 100 100 100 100 100 100 100 100 100 100 100 100 100 100 100 100 100 100 100 100 100 89 41
65 30 8 12 5 5 5 5 10 80 100 100 100 93 76 98 100 100 100 100 100 100 100 100 90 87 81 100 100 100 100 100 100 100 100 100 100 100 100 100 100 86 60

GFSMW_prec_cloud_093.txt.gz
Cloud_Cover
100 100 100 100 100 100 100 100 100 100 100 100 100 100 76 100 100 100 100 100 100 100 100 100 100 100 100 100 100 100 100 100 100 100 100 100 100 100 100 81 100 48 71
66 98 100 100 100 100 100 100 99 100 100 100 100 100 100 100 91 99 100 100 100 100 100 100 100 100 100 100 100 100 100 100 100 100 100 99 99 13 51 90 83 96 100
67 21 74 100 100 100 100 100 100 100 100 100 100 100 80 100 93 98 100 100 100 100 100 100 100 100 100 100 100 100 100 100 100 100 86 69 100 100 100 100 100 100 100
0 92 100 72 100 100 100 100 100 100 85 90 96 100 100 97 81 100 100 100 100 100 100 100 100 100 100 100 100 100 100 100 100 100 94 69 85 100 100 99 100 100 100
0 52 100 100 12 2 40 96 100 100 98 100 99 41 39 87 100 100 100 100 100 100 100 100 100 100 100 99 100 100 100 99 100 100 100 100 100 57 99 100 100 100 100
2 16 86 100 100 37 5 0 0 31 99 97 98 37 28 71 100 100 100 100 100 100 100 100 100 100 100 100 100 100 100 99 93 90 100 91 100 100 100 100 100 100 100
0 0 2 43 100 100 100 29 0 0 0 17 94 78 33 63 72 100 100 100 100 100 100 100 100 100 100 100 100 100 100 99 100 100 99 73 64 98 95 100 100 100 100
0 0 1 5 100 100 100 83 5 0 0 0 0 37 100 28 99 100 100 73 100 100 100 100 100 100 100 100 100 100 100 100 100 100 100 100 100 100 100 100 100 100 100
0 0 0 46 94 99 100 99 60 0 0 0 0 33 44 66 100 100 60 97 100 100 100 100 100 100 100 100 100 100 100 100 100 100 100 100 100 100 100 100 100 100 100
4 33 4 1 4 54 18 40 5 11 14 13 10 57 97 100 88 100 96 100 100 100 100 100 100 100 100 100 100 100 100 100 100 100 100 100 100 100 100 100 100 100 100
16 22 91 97 64 69 55 7 4 76 100 65 95 100 100 100 100 92 100 97 100 100 100 100 100 94 91 83 86 100 100 100 100 100 100 100 100 100 100 100 100 100 100
7 96 17 31 100 100 94 1 0 33 100 100 35 91 100 100 96 99 84 100 100 100 100 100 100 100 100 100 86 18 48 79 88 100 80 81 98 100 100 100 100 100 100
40 10 5 5 77 94 52 1 0 0 5 96 19 100 100 100 100 100 100 99 100 100 100 100 100 100 100 100 99 94 81 76 83 33 99 37 91 100 98 79 100 96 92
48 5 5 5 15 80 93 1 0 2 76 5 100 100 93 100 100 100 100 91 87 96 86 100 97 98 100 100 100 100 100 100 100 100 100 100 100 97 100 94 99 100 48
6 40 42 59 100 100 99 1 9 10 58 100 100 65 100 100 100 100 100 100 100 100 100 100 97 100 99 99 100 100 100 100 100 100 100 100 100 100 100 100 38 30 95
91 91 100 100 100 100 90 1 0 1 95 100 100 100 100 100 100 100 100 100 100 100 100 100 100 100 71 100 100 100 100 100 100 100 100 100 100 100 99 100 100 100 100
100 100 83 100 100 100 96 5 0 0 0 7 94 100 100 100 100 100 100 100 100 100 100 100 100 96 100 100 100 100 100 100 100 100 100 100 100 97 100 100 100 99 100
88 100 100 100 100 100 100 30 5 5 0 4 1 2 18 26 78 100 100 100 100 100 100 100 100 100 100 100 100 100 100 100 100 100 100 100 100 100 100 100 98 100 100
100 100 100 100 84 96 98 46 12 5 5 5 4 5 5 5 4 2 5 68 100 96 95 86 92 100 100 100 100 100 100 100 98 83 93 86 100 100 100 100 100 100 100
100 100 100 99 66 38 99 55 17 5 5 5 5 5 9 91 44 23 42 58 100 100 89 100 100 100 100 86 80 44 11 97 96 88 86 99 100 100 100 100 100 100 100
97 93 78 91 94 100 35 57 82 70 22 69 81 87 100 91 17 100 69 100 100 74 80 100 100 100 100 72 73 80 100 100 100 100 100 100 100 100 100 100 100 100 100
5 5 5 5 5 8 5 8 25 30 54 66 89 57 12 5 26 29 94 100 100 99 100 100 100 100 89 93 100 100 100 100 100 100 100 100 100 100 100 100 100 100 100
38 34 33 44 46 85 61 100 100 29 8 64 16 84 62 68 14 40 100 100 100 100 100 100 100 100 100 100 98 100 100 100 100 100 100 100 100 100 100 100 100 100 100
100 100 100 100 100 100 100 100 100 100 100 95 89 70 56 59 76 100 100 100 100 100 100 100 100 100 96 99 100 100 100 100 100 100 100 100 100 100 100 100 100 100 100
100 100 100 100 100 100 75 71 84 100 100 100 100 100 100 100 100 100 100 100 91 84 100 100 100 100 100 99 76 100 100 100 100 100 100 100 100 100 100 100 100 100 100
100 89 63 52 29 5 5 5 11 20 12 41 100 100 100 100 100 100 100 99 92 100 100 100 100 100 100 94 100 100 100 100 100 100 100 100 100 100 100 100 100 100 100

GFSMW_prec_cloud_096.txt.gz
Cloud_Cover
99 25 92 97 100 100 94 100 100 100 100 100 100 100 100 100 100 100 100 100 100 100 100 100 100 100 100 100 100 100 100 100 100 100 100 100 100 86 98 92 11 5 20
100 100 100 100 100 100 100 100 100 100 100 100 100 100 100 94 100 100 100 100 100 100 100 100 100 100 100 100 100 100 100 100 100 100 100 100 100 100 38 24 8 9 89
22 100 100 100 100 100 100 100 100 100 100 100 97 100 100 100 100 76 81 93 100 100 100 100 100 100 100 100 100 100 100 100 100 100 66 99 100 95 81 84 69 53 78
1 1 24 75 100 100 100 100 100 100 95 80 84 100 99 92 100 100 93 93 100 100 100 100 100 100 100 100 100 100 100 100 100 98 100 100 82 89 93 100 100 80 94
0 2 5 53 18 100 100 100 77 6 5 80 86 42 99 100 100 100 100 100 100 100 100 100 100 100 100 100 100 100 100 100 100 98 87 100 100 100 100 99 100 100 100
64 0 1 8 4 4 43 100 100 100 96 82 100 35 5 40 99 100 91 100 100 100 100 100 100 100 100 100 100 100 100 100 100 100 99 100 100 100 88 99 92 94 100
4 5 3 1 4 2 5 63 92 70 100 100 100 100 100 68 98 80 100 100 100 100 100 100 100 100 100 100 100 100 100 100 100 100 100 100 100 100 100 100 100 100 100
6 1 0 1 5 4 4 63 56 11 5 14 21 100 100 100 100 100 100 100 100 100 100 100 93 100 100 100 100 100 100 100 100 100 100 100 100 100 100 100 100 100 100
2 1 0 0 4 85 50 50 100 78 5 5 1 0 0 30 78 82 100 100 100 100 100 100 100 100 100 100 100 100 100 100 100 100 100 100 100 100 100 100 100 100 100
4 0 0 0 0 7 66 34 36 58 38 13 5 5 5 6 14 9 5 87 83 91 35 100 96 100 100 100 100 100 100 100 100 100 100 100 100 100 100 100 100 100 100
16 5 1 0 3 0 2 4 3 4 62 100 90 23 15 91 90 50 69 8 21 44 82 93 100 100 100 100 100 100 97 87 98 82 77 46 73 99 100 100 100 100 100
100 97 83 6 69 15 0 0 0 0 8 100 100 100 58 87 35 89 76 72 41 60 99 100 76 100 99 100 100 100 100 92 93 94 75 94 99 72 100 100 100 100 100
44 5 4 93 64 32 16 4 18 18 6 10 24 31 17 72 62 78 100 100 100 99 99 100 100 82 69 45 42 99 99 100 100 100 100 96 100 100 100 100 100 100 100
2 22 11 100 100 100 100 100 44 41 39 88 79 26 4 2 38 48 100 100 100 94 100 100 97 94 100 50 94 49 52 84 100 78 100 96 100 100 100 100 91 100 77
24 42 100 98 100 95 100 100 99 42 15 11 9 2 0 6 86 29 100 100 98 70 100 100 99 100 100 95 76 56 85 17 85 93 100 100 100 100 100 100 99 100 100
5 4 19 99 100 100 100 100 100 97 97 63 5 0 4 5 78 8 100 22 100 100 100 100 100 100 100 100 100 100 100 100 100 100 100 100 100 100 100 100 93 88 44
5 2 5 5 5 25 100 100 98 58 100 100 2 0 0 1 5 41 43 98 100 100 100 100 100 100 100 100 100 100 100 100 100 100 100 100 100 100 100 100 100 100 100
5 5 14 46 73 62 100 100 100 100 100 100 28 0 0 0 0 1 5 24 80 100 100 100 100 100 100 100 100 100 100 100 100 100 100 100 100 100 98 99 100 100 100
88 98 100 100 100 100 100 100 100 100 100 100 100 5 5 0 1 0 0 57 95 92 95 85 52 73 100 100 100 100 100 100 100 100 100 100 98 38 98 100 100 100 100
100 100 100 100 100 100 100 100 100 100 100 100 100 19 5 5 5 5 10 100 100 100 100 42 83 99 100 100 100 100 100 100 98 90 36 23 92 100 100 100 100 100 100
100 100 100 100 100 100 100 100 98 100 100 98 99 45 22 6 13 79 100 64 41 100 70 32 70 100 100 100 100 61 9 5 17 83 82 87 97 100 100 100 100 100 100
100 100 100 99 100 100 100 100 100 99 100 100 100 100 100 100 100 100 100 100 84 100 100 94 100 100 100 100 99 39 21 6 5 37 84 100 100 100 100 100 100 100 100
92 94 88 82 97 96 99 100 100 100 100 82 57 100 100 100 100 94 67 99 100 100 100 100 97 97 100 100 99 69 51 35 71 44 100 96 100 100 100 100 100 100 100
19 9 41 78 65 51 56 75 100 100 95 84 100 100 100 100 77 58 80 100 100 100 100 97 100 100 100 100 100 100 96 73 68 100 100 100 100 100 100 100 100 100 100
100 100 100 100 100 100 79 100 89 68 99 100 100 100 100 100 100 100 100 100 100 100 100 84 100 100 100 100 100 100 71 99 100 100 97 98 100 100 100 100 100 100 100
100 100 100 100 100 100 100 100 100 100 86 70 62 73 100 100 100 100 100 99 100 100 97 100 100 100 100 100 70 78 76 99 100 100 100 100 100 100 100 100 100 100 100

GFSMW_prec_cloud_099.txt.gz
Cloud_Cover
100 100 100 100 100 100 100 100 100 100 100 100 100 100 100 83 89 54 94 87 92 92 100 100 100 100 100 100 100 100 100 100 98 100 100 100 100 42 22 65 98 88 100
81 100 100 100 100 100 100 100 100 92 100 100 100 100 100 98 97 91 65 84 100 100 100 100 100 100 100 100 100 100 100 99 100 98 100 100 100 97 25 39 57 46 12
41 30 88 100 100 100 100 100 100 98 80 100 98 96 100 100 70 98 88 30 62 100 100 100 100 100 100 100 100 100 100 100 100 89 88 100 100 90 63 98 5 71 87
100 89 45 19 100 100 100 100 100 100 100 100 97 89 73 90 100 96 51 64 90 100 93 99 100 100 100 100 100 100 100 100 100 100 93 100 100 100 100 100 88 98 100
91 99 100 52 49 81 94 97 89 96 88 100 100 100 100 82 96 100 100 100 100 100 100 100 100 100 100 100 100 100 100 100 100 100 100 100 100 100 100 100 100 100 100
26 7 58 100 100 96 86 82 62 87 98 94 100 100 100 100 100 100 100 100 100 100 100 100 100 100 100 100 100 100 100 100 100 100 100 100 100 100 100 94 85 100 100
90 57 5 13 94 100 100 100 100 100 100 44 73 82 63 88 99 100 100 100 100 100 100 100 100 100 100 100 100 100 100 100 100 100 100 100 100 100 100 100 100 100 100
13 35 30 5 5 3 32 100 100 100 100 94 89 94 100 100 54 99 100 100 99 89 100 100 100 100 100 100 100 100 100 100 100 100 100 100 100 100 100 100 100 100 100
100 52 40 3 2 5 5 0 0 1 32 88 98 100 100 82 41 45 100 37 100 100 100 100 100 100 100 100 100 100 100 96 100 99 99 100 100 100 100 100 100 100 100
98 77 18 5 5 5 5 4 0 0 1 3 1 3 0 31 74 99 61 76 100 100 100 93 79 100 100 100 100 97 100 90 99 100 100 99 96 97 92 100 100 100 97
100 96 23 11 6 1 0 5 2 0 0 2 5 5 5 2 5 5 3 5 7 20 98 92 57 99 90 84 100 100 100 98 98 100 100 100 100 100 93 100 100 100 100
100 100 100 71 5 4 0 10 67 6 5 5 2 5 5 5 5 13 97 99 96 98 93 68 61 13 5 5 76 84 99 75 99 98 100 100 100 100 100 100 99 100 100
100 100 100 100 100 40 5 5 4 2 0 4 5 2 0 5 5 5 67 5 68 95 38 76 70 96 90 98 55 86 87 92 21 26 92 100 99 100 100 100 100 100 100
100 100 100 100 100 100 98 20 1 1 11 49 6 0 3 6 11 8 44 59 79 8 100 100 100 95 97 96 100 45 90 74 85 41 45 71 57 100 100 100 100 100 100
100 98 100 100 100 98 99 47 5 32 27 1 20 55 92 99 74 35 47 43 56 4 7 28 80 75 100 100 100 100 100 96 88 87 80 86 100 100 100 100 100 100 50
85 100 100 100 100 100 96 77 22 76 89 57 79 100 100 100 83 32 27 31 0 5 5 5 5 44 86 100 100 100 99 70 99 100 100 100 100 100 100 100 100 100 98
100 100 100 59 98 61 77 99 100 92 100 98 52 51 85 78 63 20 5 0 0 12 28 95 100 100 100 100 100 100 100 100 100 100 100 100 100 100 100 100 100 100 86
5 35 89 99 5 3 5 36 84 100 100 100 100 100 100 40 94 93 20 4 2 0 2 4 55 74 53 5 86 100 100 100 100 100 100 100 100 100 100 100 100 100 100
29 5 5 52 41 9 4 0 10 100 99 98 100 100 100 80 100 100 97 51 95 91 95 80 90 0 0 30 100 100 100 100 100 100 100 100 100 100 100 100 70 69 68
90 100 100 100 100 100 46 54 49 88 100 100 100 100 99 100 100 100 100 100 100 100 100 100 34 17 23 93 100 100 100 100 100 100 100 100 99 94 75 46 96 100 100
100 100 100 100 100 100 100 95 94 100 100 100 100 100 100 100 100 100 100 100 100 100 98 98 31 25 76 100 100 100 99 63 71 34 14 5 5 49 70 100 100 100 100
100 100 100 100 100 100 100 100 78 97 100 100 100 100 100 100 100 100 100 100 73 82 98 100 91 68 100 95 100 100 95 16 8 5 5 7 40 70 99 99 100 100 100
100 100 100 100 100 100 100 100 100 100 100 100 100 100 100 100 96 95 96 100 100 100 100 100 100 100 94 99 100 100 97 98 75 34 31 66 67 90 100 87 98 100 100
100 100 100 100 100 66 83 80 76 80 100 100 100 100 99 97 99 100 54 51 100 100 100 100 94 62 100 100 100 100 100 100 100 100 69 63 90 85 95 100 100 100 100
100 99 98 100 100 100 97 65 67 86 100 100 100 83 95 100 99 55 52 75 100 100 100 88 97 100 98 100 100 100 93 100 100 92 79 64 76 75 96 94 100 100 100
100 100 70 96 100 96 76 57 77 98 97 100 100 100 76 55 98 100 100 100 100 100 100 99 100 100 100 100 100 100 95 88 60 73 53 90 85 90 100 100 100 100 100

GFSMW_prec_cloud_102.txt.gz
Cloud_Cover
100 100 100 100 100 100 100 100 100 100 100 100 100 100 100 94 91 100 99 80 99 86 99 100 88 99 100 100 99 100 100 100 100 48 29 18 93 76 54 5 86 54 37
100 100 100 100 100 100 100 100 100 100 100 100 100 100 100 98 98 100 91 86 83 49 100 93 100 99 100 100 100 100 100 100 97 83 98 96 69 41 12 5 5 54 28
98 100 100 100 100 100 100 100 100 100 100 100 100 100 100 100 100 100 100 100 100 100 100 100 100 100 100 100 100 100 100 100 100 100 100 88 100 57 5 6 83 72 32
100 100 100 100 100 100 100 100 100 100 100 100 100 100 100 100 100 100 100 100 100 100 100 100 100 100 100 100 100 100 100 100 100 100 100 100 100 100 80 80 100 84 100
55 100 100 100 100 100 100 100 100 100 100 100 100 100 100 100 100 100 100 100 100 100 100 100 100 100 100 100 100 100 100 100 100 100 100 100 100 100 100 99 100 100 100
64 65 33 100 100 100 98 100 100 100 100 100 100 100 100 100 100 100 100 100 100 100 100 100 100 100 100 100 100 100 100 100 100 99 99 96 100 100 100 100 100 100 100
91 89 84 26 82 100 100 100 100 100 100 100 100 100 100 100 100 100 100 100 100 100 100 100 100 100 100 100 100 100 100 100 100 100 98 100 100 99 100 100 100 100 100
5 97 100 98 52 99 90 100 100 100 100 100 100 100 100 100 100 100 100 100 100 100 100 100 100 100 100 100 100 100 100 100 100 66 85 89 69 98 100 100 100 98 100
98 100 100 100 100 60 20 5 46 75 100 100 100 100 100 100 100 100 100 100 100 100 100 100 100 98 100 100 100 100 100 100 100 100 93 81 100 82 66 89 96 100 96
11 96 100 93 85 100 98 14 5 5 12 28 47 68 57 58 91 100 90 72 75 66 10 34 90 78 100 100 100 97 77 100 100 70 97 95 67 99 96 92 100 100 100
54 84 86 100 100 83 79 87 100 100 100 81 48 27 5 57 100 100 100 100 93 100 100 100 85 14 25 31 63 98 72 100 86 100 94 49 90 100 92 100 78 99 91
100 100 99 83 94 100 99 17 97 100 100 100 100 100 100 100 100 100 100 100 99 67 97 73 100 87 53 58 53 40 5 8 39 7 8 6 20 99 33 11 98 100 94
100 99 100 99 100 100 100 100 72 6 7 50 93 98 100 98 85 31 7 5 5 5 5 5 5 11 24 100 91 61 81 75 36 40 64 5 5 16 27 95 70 68 87
100 100 100 100 78 55 35 5 4 4 2 0 3 3 2 1 5 18 5 5 5 5 15 8 41 8 48 100 86 60 67 78 83 65 56 71 5 5 6 98 100 100 100
96 100 100 77 45 30 5 5 5 2 94 8 4 0 0 0 0 0 5 12 36 5 9 5 4 5 5 5 5 3 1 10 32 68 58 81 77 95 94 98 100 100 100
100 100 100 100 100 100 100 56 100 25 6 8 15 3 6 2 24 90 98 19 5 5 59 100 100 100 94 5 3 5 5 5 9 80 83 86 100 100 100 100 100 100 100
100 100 100 100 100 100 100 95 100 88 2 93 7 64 100 86 100 42 25 5 35 100 100 100 72 11 5 0 0 4 8 78 98 97 94 99 100 100 100 100 100 100 100
57 97 100 100 100 100 100 100 100 86 28 84 93 97 100 97 93 100 67 95 85 100 99 97 95 23 5 0 18 20 81 100 100 100 100 100 100 100 100 100 100 100 100
100 100 100 100 100 91 29 92 100 100 61 5 29 100 100 100 100 100 38 97 100 100 100 100 100 80 5 4 96 51 56 100 100 100 100 100 100 100 100 100 100 100 100
100 100 100 97 72 14 53 90 85 5 10 40 100 100 100 100 100 100 100 100 100 100 100 100 100 95 74 19 36 56 72 100 100 100 100 100 100 100 100 100 99 49 17
100 97 57 8 34 56 6 5 5 5 5 5 5 86 89 100 100 100 100 100 100 100 100 100 100 100 83 100 100 62 100 100 84 100 95 86 34 5 5 5 5 7 5
100 84 32 78 100 100 100 92 78 23 46 96 100 100 100 93 72 94 100 100 100 100 100 100 100 100 100 96 86 95 100 100 82 16 10 6 5 54 5 5 78 44 29
100 100 100 100 100 100 100 100 100 79 100 100 100 100 100 100 100 100 100 100 100 100 100 100 100 75 60 43 97 100 100 100 84 37 94 41 24 51 34 62 71 99 71
100 100 100 100 100 100 100 100 100 100 100 100 100 100 100 100 100 100 100 100 100 100 100 93 100 31 62 100 100 100 100 100 83 99 100 100 92 82 91 90 92 71 88
100 100 100 100 100 100 100 100 100 100 100 100 100 100 100 100 100 100 100 100 99 92 100 100 88 29 80 99 100 99 100 100 99 100 86 82 82 93 96 85 92 84 88
100 100 100 100 100 100 100 100 100 100 100 100 100 100 100 100 97 100 100 99 100 100 91 81 96 100 100 100 100 97 100 100 100 52 79 58 47 7 90 93 68 100 100

GFSMW_prec_cloud_105.txt.gz
Cloud_Cover
100 100 100 100 100 100 100 100 100 100 100 100 100 100 74 88 98 100 96 79 95 100 100 100 100 60 63 81 100 100 100 100 100 100 100 81 50 32 31 10 20 4 0
100 100 100 100 100 100 100 100 100 100 100 100 100 100 100 100 99 100 40 100 48 96 100 60 56 80 100 100 100 100 100 100 100 100 100 100 37 19 26 75 53 5 5
100 100 100 100 100 100 100 100 100 100 100 100 100 100 100 100 100 100 93 98 100 100 100 46 100 100 100 100 100 100 100 100 100 100 100 100 100 98 76 63 68 14 5
100 100 100 100 100 100 100 100 100 100 100 100 100 100 100 100 100 100 100 100 100 100 100 100 100 100 100 100 100 100 100 100 100 100 100 94 94 100 100 84 94 91 82
100 100 100 100 100 100 100 100 100 100 100 100 100 100 100 100 100 100 100 100 100 100 100 92 100 100 100 100 100 100 100 100 100 100 100 94 10 89 95 74 82 98 97
100 100 100 100 100 100 100 100 100 100 100 100 100 100 100 100 100 100 100 100 100 100 100 86 100 100 100 100 100 100 100 100 100 100 100 100 100 82 29 72 54 95 100
100 100 98 100 100 100 100 100 100 100 100 100 100 100 100 100 100 100 100 100 100 100 100 100 100 100 100 100 100 100 100 100 100 100 100 100 100 97 97 100 88 93 99
100 100 100 100 100 100 100 100 100 100 100 100 100 100 100 100 100 100 100 100 100 100 100 100 100 100 100 100 100 100 100 100 100 100 100 100 100 100 100 99 100 79 96
100 100 100 100 100 100 100 100 100 100 100 100 100 100 100 100 100 100 100 100 100 100 100 100 100 100 100 100 100 100 100 100 100 100 100 100 100 100 100 100 98 100 67
100 100 100 100 100 100 100 100 100 100 100 100 100 100 100 100 100 100 100 100 100 100 100 100 100 100 100 100 100 100 100 100 100 100 100 84 7 5 11 36 49 99 100
100 100 100 100 100 100 100 100 100 100 100 100 99 100 100 100 100 100 100 100 100 100 100 100 100 100 100 100 100 100 100 100 80 43 37 18 9 66 61 45 53 71 94
100 100 100 100 100 100 100 100 100 100 100 100 100 100 100 100 100 100 100 100 100 100 100 100 100 100 100 100 100 100 6 5 5 56 20 7 90 56 6 15 36 46 99
100 100 95 60 73 36 92 100 100 98 100 100 100 100 100 100 100 100 100 100 100 100 100 100 100 100 100 100 42 5 5 8 51 44 87 6 5 5 5 5 32 74 64
100 100 100 89 79 100 100 100 100 100 82 88 49 57 51 24 44 100 100 100 99 100 100 93 81 62 31 67 20 6 8 48 5 5 2 1 2 0 3 3 16 100 100
100 100 100 100 66 67 95 99 100 100 100 100 100 100 100 100 100 100 96 100 94 64 88 80 26 64 41 20 5 5 3 3 4 0 0 0 0 0 39 22 50 99 100
100 100 100 100 100 100 100 100 89 75 13 14 38 72 100 100 100 100 100 100 100 100 100 100 84 7 5 5 0 2 1 5 4 1 19 72 86 91 100 100 100 100 100
91 99 100 100 100 100 100 100 100 100 100 91 82 5 5 52 5 5 5 5 10 15 5 8 64 41 53 16 5 11 51 10 5 56 100 100 100 100 100 100 100 100 100
100 88 74 97 100 100 100 100 92 99 7 13 52 7 4 5 2 5 43 2 3 20 96 100 73 100 97 13 62 86 86 26 39 84 100 100 100 100 100 100 100 100 100
86 5 31 62 100 100 75 58 96 100 99 60 95 93 100 100 100 100 100 49 94 100 100 100 100 96 100 98 98 59 31 47 37 100 100 100 100 100 100 87 98 100 100
18 82 96 100 100 38 72 100 99 100 100 100 100 100 100 98 100 100 90 100 100 100 100 100 100 100 78 100 100 100 100 100 100 100 100 100 100 100 95 96 99 100 100
50 41 70 100 100 100 100 100 99 69 83 92 39 82 94 100 100 100 100 100 100 100 100 100 100 57 100 100 100 100 52 93 100 100 100 100 98 99 43 16 5 5 10
100 100 100 100 100 100 100 100 100 32 5 2 2 91 100 100 100 100 100 100 100 100 100 98 100 100 100 95 77 100 100 100 100 100 82 41 28 6 25 35 25 8 85
100 100 100 100 100 100 100 36 6 5 8 20 97 100 18 13 31 100 100 100 100 90 74 98 96 100 84 80 100 100 100 100 100 100 85 19 59 53 16 20 20 43 75
100 100 100 100 100 98 38 84 64 100 92 97 100 100 100 100 100 100 100 100 100 100 100 100 100 100 100 100 100 100 52 98 100 100 76 94 72 71 71 35 31 40 97
100 100 100 100 100 100 100 100 100 100 100 100 100 100 100 100 100 100 100 100 100 100 100 100 100 100 100 99 63 30 18 56 100 100 73 100 100 81 78 36 11 11 56
100 97 100 91 100 100 100 100 100 99 100 100 100 100 100 100 100 100 100 100 100 100 100 100 100 100 100 99 98 78 58 80 100 98 92 96 74 52 24 12 45 50 45

GFSMW_prec_cloud_108.txt.gz
Cloud_Cover
100 100 100 100 100 100 100 100 100 100 100 100 100 100 100 100 100 100 100 100 100 88 61 89 95 93 100 100 98 100 100 100 100 100 100 100 62 46 10 20 31 29 29
100 100 100 100 100 100 100 100 100 100 100 100 100 100 100 100 100 100 100 100 97 84 100 74 96 100 99 97 74 66 78 100 100 100 100 100 100 100 92 72 5 5 10
100 100 100 100 100 100 100 100 100 100 100 100 100 100 100 100 100 100 100 87 82 86 91 100 77 98 100 100 100 100 100 100 100 98 100 100 86 85 100 98 45 73 87
100 100 100 100 100 100 100 100 100 100 100 100 100 100 100 100 100 100 100 100 98 94 100 98 100 100 100 100 100 100 100 100 100 100 100 100 100 100 100 94 50 100 100
100 100 100 100 100 100 100 100 100 100 100 100 100 100 100 100 100 100 100 100 100 100 100 100 100 100 100 100 100 100 100 100 100 100 100 100 100 100 100 100 100 92 100
100 100 100 100 100 100 100 100 100 100 100 100 100 100 100 100 100 100 100 100 100 100 100 100 100 100 100 100 100 100 100 100 100 100 100 100 100 100 100 100 100 100 100
100 100 100 100 100 100 100 98 100 100 100 100 100 100 100 100 100 100 100 100 100 100 100 100 100 100 100 100 100 100 100 100 100 100 100 100 100 100 100 100 100 100 100
100 100 100 100 100 100 100 100 100 100 100 100 100 100 100 100 100 100 100 100 100 100 100 100 100 100 100 100 100 100 100 100 100 100 100 100 100 100 100 100 100 100 100
100 100 100 100 100 100 100 100 100 100 100 100 100 100 100 100 100 100 100 100 100 100 100 100 100 100 100 100 100 100 100 100 100 100 100 100 100 99 100 100 100 100 100
100 100 100 100 100 100 100 100 100 100 100 100 100 100 100 100 100 100 100 100 100 100 100 100 100 100 100 100 100 100 100 100 100 100 100 100 100 100 100 97 73 93 100
100 100 100 100 100 100 100 100 100 98 99 100 99 100 100 100 100 100 100 100 100 100 100 100 100 100 100 100 100 100 100 100 100 100 98 100 93 100 38 36 23 84 100
100 100 100 100 100 100 100 100 100 100 100 100 100 100 100 100 100 100 100 100 100 100 100 100 100 100 100 100 100 100 100 100 100 100 100 96 96 27 83 30 71 94 100
100 100 100 100 100 100 100 100 100 100 100 100 100 100 100 100 100 100 100 100 100 100 100 100 100 100 100 100 100 100 100 100 100 100 100 24 95 98 65 18 50 68 53
40 100 100 100 100 100 100 100 100 100 100 100 100 100 100 100 100 100 100 100 100 100 100 100 100 100 100 100 100 100 100 100 100 100 100 99 58 76 31 35 33 61 60
100 99 98 100 100 99 100 100 100 100 100 100 100 100 100 100 100 100 100 100 100 100 100 100 100 100 100 100 100 100 100 100 100 100 100 100 85 1 3 4 75 47 26
100 27 89 95 92 100 100 100 98 100 100 100 100 100 100 100 100 100 100 100 100 100 100 100 100 100 100 100 100 100 100 100 100 57 49 64 21 1 0 32 46 41 84
100 100 100 71 27 70 99 100 100 100 100 100 100 100 100 100 100 100 100 100 100 100 100 100 100 100 100 100 100 100 100 64 6 21 29 8 7 91 27 30 100 97 100
100 100 100 98 100 100 99 100 100 100 100 100 100 100 100 100 100 100 100 100 100 100 100 100 100 100 100 99 83 88 44 2 3 35 97 46 62 87 83 82 61 67 100
100 89 94 100 100 100 88 67 59 100 100 100 98 100 100 100 100 100 100 100 100 100 100 100 100 96 27 5 52 5 5 5 5 5 80 76 100 100 100 100 56 44 98
82 58 52 100 100 100 100 100 96 48 100 99 100 93 99 100 100 100 100 98 100 100 60 73 100 70 11 25 100 60 23 5 8 87 97 100 100 100 91 97 100 59 60
100 74 9 99 93 22 28 64 89 89 100 99 98 59 100 100 100 100 100 100 100 92 100 97 20 99 50 6 62 100 90 100 95 100 100 95 100 100 100 78 100 89 39
100 100 91 76 58 96 20 98 99 30 60 100 96 100 100 100 100 100 100 96 79 66 59 51 53 27 29 51 50 87 97 95 100 100 66 72 80 78 100 69 95 94 65
100 100 100 100 97 99 65 100 100 72 70 22 14 6 31 94 100 100 100 100 100 73 33 18 37 31 41 37 55 74 98 100 88 100 85 98 70 48 17 56 57 33 5
100 100 95 99 100 100 100 100 100 100 100 100 100 100 100 100 47 64 100 83 99 86 95 96 36 32 96 90 98 89 88 100 100 100 100 100 72 22 22 12 11 17 5
100 100 100 100 100 100 96 100 100 100 100 55 72 84 93 99 100 100 100 100 100 100 100 100 100 100 100 100 100 100 100 100 100 100 99 100 32 59 11 48 17 5 8
100 100 100 100 100 62 98 82 100 100 100 98 100 100 100 100 100 100 100 100 100 100 100 100 100 100 100 100 100 100 100 100 100 53 100 100 74 87 57 96 60 5 14

GFSMW_prec_cloud_111.txt.gz
Cloud_Cover
100 100 100 100 100 100 100 100 100 100 100 100 100 100 100 100 100 100 100 100 100 100 100 100 100 100 100 100 74 28 88 100 100 100 89 68 100 63 40 59 50 78 5
100 100 100 100 100 100 100 100 100 100 100 100 100 100 100 100 100 100 100 100 100 100 100 100 100 100 93 99 50 98 96 82 96 100 62 100 99 100 82 50 64 100 83
100 100 100 100 100 100 100 100 100 100 100 100 100 100 100 100 100 100 100 100 100 100 100 100 100 100 100 100 100 78 99 100 100 100 99 100 100 100 80 92 100 97 100
100 100 100 100 100 100 100 100 100 100 100 100 100 100 100 100 100 100 100 100 100 100 100 100 100 100 97 94 92 100 100 100 99 96 100 100 100 96 100 100 76 17 24
100 100 100 100 100 100 100 100 100 100 100 100 100 100 100 100 100 100 100 100 100 100 100 100 100 100 100 100 100 100 100 100 100 100 100 100 100 100 100 100 100 100 100
100 100 100 100 100 100 100 100 100 100 100 100 100 100 100 100 100 100 100 100 100 100 100 100 100 100 100 100 100 100 100 100 100 100 100 100 100 100 94 98 100 100 100
100 100 100 100 100 100 100 100 100 100 100 100 100 100 100 100 100 100 100 100 100 100 100 100 100 100 100 100 100 100 100 100 100 100 100 100 100 100 88 100 100 100 100
100 100 100 100 100 100 100 100 100 100 100 100 100 100 100 100 100 100 100 100 100 100 100 100 100 100 100 100 100 100 100 98 98 100 100 100 100 100 100 100 100 100 100
100 100 100 100 100 100 100 100 100 100 100 100 100 100 100 100 100 100 100 100 100 100 100 100 100 100 100 100 100 100 100 100 100 100 100 100 100 100 100 100 100 100 100
100 100 100 100 100 100 100 100 100 100 100 100 100 100 100 100 100 100 100 100 100 100 100 100 100 100 100 100 100 100 100 100 100 100 100 100 72 100 100 98 100 100 84
100 100 100 100 100 100 100 100 100 100 100 100 100 100 100 100 100 100 100 100 100 100 100 100 100 100 100 100 100 100 100 100 96 99 100 100 87 100 77 94 66 100 100
100 100 100 100 100 100 100 100 100 100 100 100 100 100 100 100 100 100 100 100 100 100 100 100 100 100 100 100 100 100 100 100 100 100 100 100 21 100 100 100 88 85 100
100 100 100 100 100 100 100 100 100 100 100 100 100 100 100 100 100 100 100 100 100 100 100 100 100 100 100 100 100 100 100 100 100 100 83 100 100 100 96 31 16 43 100
100 100 100 100 100 100 100 100 100 100 100 100 100 100 100 100 100 100 100 100 100 100 100 100 100 100 100 100 100 100 100 100 100 100 100 100 100 100 99 100 100 63 100
100 100 100 100 100 100 100 100 100 100 100 100 100 100 100 100 100 100 100 100 100 100 100 100 100 100 100 100 100 100 100 100 100 100 100 100 100 100 100 100 58 96 100
100 100 100 100 100 100 100 100 100 100 100 100 92 100 100 100 100 100 100 100 100 100 100 100 100 100 100 100 100 100 100 100 100 100 100 100 100 100 100 100 100 45 31
87 100 100 100 100 100 100 100 100 100 100 100 100 100 100 100 100 100 100 100 100 100 100 100 100 100 100 100 100 100 100 100 100 100 100 100 100 100 97 97 10 33 67
99 33 24 91 100 100 100 100 100 100 100 100 100 100 100 100 100 100 100 100 100 100 100 100 100 100 100 100 100 100 100 100 100 100 100 100 100 80 93 73 93 17 67
100 100 100 94 48 100 100 100 100 100 100 100 100 100 100 100 100 100 100 100 100 100 100 100 100 100 100 100 100 100 100 100 75 100 96 100 100 100 91 46 55 36 6
92 99 100 100 100 100 83 91 100 100 100 100 100 100 100 100 100 100 100 100 100 100 100 100 100 100 100 100 100 100 100 100 100 98 92 100 87 99 100 95 94 83 5
100 100 97 92 82 97 98 41 91 100 100 100 100 100 100 100 100 100 100 100 100 100 100 100 100 100 100 100 100 100 100 100 100 100 78 85 86 99 100 100 92 37 5
100 86 67 100 100 24 67 52 5 5 36 31 99 100 100 100 100 100 100 100 100 100 100 100 100 100 100 100 100 100 97 100 100 100 100 86 92 89 60 34 6 15 25
26 10 22 69 92 78 56 34 17 75 50 5 66 92 38 90 100 100 100 100 100 100 100 100 100 100 100 100 95 69 94 85 80 48 94 43 78 7 24 52 29 78 40
24 62 100 100 80 76 97 89 92 100 99 83 62 76 100 80 82 100 100 90 85 98 100 97 98 93 86 33 52 93 100 100 100 100 100 67 100 100 100 100 77 8 5
54 45 24 60 100 94 100 97 100 100 100 99 100 100 100 100 100 98 100 55 76 100 100 100 100 100 100 100 100 100 100 100 100 100 100 100 100 100 99 33 5 5 5
100 100 79 33 78 88 90 99 100 98 100 100 100 100 100 99 99 100 100 100 100 100 100 100 100 100 100 100 100 100 100 100 100 100 100 100 100 100 45 5 5 5 5

GFSMW_prec_cloud_114.txt.gz
Cloud_Cover
100 99 100 83 6 100 100 100 100 100 100 100 98 100 100 100 100 100 100 100 100 100 100 100 100 100 100 100 95 100 100 100 100 96 80 100 93 11 21 48 5 5 18
100 100 55 7 53 100 100 100 100 100 100 100 100 100 100 100 100 100 99 100 100 100 100 100 100 100 100 100 100 100 100 100 99 100 100 100 66 9 96 78 64 7 5
100 100 84 46 100 100 100 100 100 100 100 100 100 100 100 100 100 100 100 100 100 100 100 100 100 100 100 100 100 100 100 100 100 85 100 87 88 100 85 97 58 5 30
100 100 100 83 100 100 100 100 100 100 100 100 100 100 100 100 100 100 100 100 100 100 100 100 100 100 100 100 100 100 100 100 100 100 100 99 91 100 100 93 62 98 90
100 100 99 100 100 100 100 100 100 100 100 100 100 100 100 100 100 94 100 100 100 100 100 100 100 100 100 100 100 100 100 100 100 100 100 100 100 100 98 62 55 77 2
100 100 100 100 100 100 100 100 100 100 100 100 100 100 100 100 100 100 100 100 100 100 100 100 100 100 100 100 100 100 100 100 100 100 100 100 83 100 100 82 53 92 100
100 100 100 100 100 100 100 100 100 100 100 100 100 100 100 100 100 100 100 100 100 100 100 100 100 100 100 100 100 100 100 100 100 100 100 100 100 100 99 100 100 100 100
97 100 100 100 100 100 100 100 100 100 100 100 100 100 100 100 100 100 100 100 100 100 100 100 100 100 100 100 100 100 100 100 100 100 100 100 100 100 100 100 100 100 100
98 100 100 100 100 100 100 100 100 100 100 100 100 100 100 100 100 100 100 100 100 100 100 96 100 100 100 100 100 100 100 100 100 100 100 100 100 100 100 97 100 100 99
100 92 100 100 100 100 100 100 100 100 100 100 100 100 100 100 100 100 100 100 100 100 100 100 100 100 100 100 100 100 100 100 100 100 100 100 100 92 97 100 100 100 100
100 100 100 100 100 100 100 100 100 100 100 100 100 100 100 100 100 100 100 100 100 100 100 100 100 100 100 100 100 100 100 100 100 100 100 100 100 100 100 100 100 100 100
100 100 100 100 100 100 100 100 100 100 100 100 100 100 100 100 100 100 100 100 100 100 98 100 100 100 100 100 100 100 100 100 100 100 100 100 100 100 100 100 100 100 100
100 100 100 100 100 100 100 100 100 100 100 100 100 100 100 100 100 100 100 100 100 100 100 100 100 100 100 100 100 100 100 100 100 100 100 100 100 100 100 100 100 100 44
100 100 100 100 100 100 100 100 100 100 100 100 100 100 100 100 100 100 100 100 100 100 100 100 100 100 100 100 100 100 100 100 100 100 100 100 100 100 100 100 100 100 100
63 100 100 100 100 100 100 100 100 100 100 100 100 100 100 100 100 100 100 100 100 100 100 100 100 100 100 100 100 100 100 100 100 100 100 100 100 100 100 90 100 100 100
49 100 100 100 100 100 100 100 100 100 100 100 100 100 100 100 100 100 100 100 100 100 100 100 100 100 100 100 100 100 100 100 100 100 100 100 100 100 100 100 100 100 100
6 83 100 100 100 100 100 100 100 100 100 100 100 100 100 100 100 100 100 100 100 100 100 100 100 100 100 100 100 100 100 100 100 100 100 100 100 100 100 100 100 100 100
100 93 94 100 100 100 100 100 100 100 100 100 100 100 100 100 100 100 100 100 100 100 100 100 100 100 100 100 100 100 100 100 100 100 100 100 100 100 100 100 100 100 57
5 21 89 100 98 100 100 100 100 100 100 100 100 100 100 100 100 100 100 100 100 100 100 100 100 100 100 100 100 100 100 100 100 100 100 100 100 100 100 100 98 22 89
5 5 5 74 94 93 67 99 94 92 100 100 100 100 100 100 100 100 100 100 100 100 100 100 100 100 100 100 100 100 100 100 100 100 100 100 100 100 100 99 83 98 100
94 5 50 25 31 100 72 71 100 95 99 100 100 100 100 100 100 100 100 100 100 100 100 100 100 100 100 100 100 100 100 100 100 100 100 100 100 100 90 83 100 93 49
5 17 5 9 5 5 45 100 100 92 100 97 100 99 100 100 100 100 100 100 100 100 100 100 100 100 100 100 100 85 100 100 100 100 100 100 100 99 100 100 97 100 96
5 5 21 17 19 5 70 5 12 30 61 89 100 80 92 70 100 100 100 100 100 100 100 100 100 100 100 100 100 100 100 100 100 100 100 100 100 100 100 100 100 100 50
91 64 100 63 7 5 5 5 6 24 25 51 44 84 100 100 100 100 100 100 100 100 100 100 100 100 100 100 100 100 100 100 100 100 100 100 100 100 100 100 100 74 70
32 100 98 8 14 5 8 5 95 100 100 100 99 94 100 100 100 100 100 100 100 100 100 100 100 100 100 100 100 100 100 100 100 100 100 100 100 100 100 100 100 94 19
6 100 100 100 98 100 59 69 24 100 78 26 73 95 100 100 100 100 100 100 100 100 100 100 100 100 100 100 100 100 100 100 100 96 98 100 100 100 100 100 100 14 5

GFSMW_prec_cloud_117.txt.gz
Cloud_Cover
100 100 100 100 100 100 40 90 100 100 100 100 100 100 100 100 100 100 84 100 100 100 100 100 100 100 100 100 100 100 100 100 100 100 88 100 46 15 47 7 73 5 4
100 100 100 100 100 48 10 100 100 100 100 100 100 100 100 100 100 100 100 100 100 100 100 100 100 100 100 100 100 100 100 100 100 100 100 100 71 97 62 22 5 5 8
100 100 100 100 100 94 83 100 100 100 100 100 100 100 100 100 99 100 100 100 100 100 100 100 100 100 100 100 100 100 100 100 100 100 100 100 100 74 43 28 6 5 25
100 100 100 100 100 100 92 100 100 100 100 100 100 100 100 100 100 100 100 100 100 100 100 100 100 100 100 100 100 100 100 100 100 100 100 100 100 98 92 22 5 62 100
100 100 100 100 100 97 100 78 100 100 100 100 100 100 100 100 100 100 100 100 100 100 100 100 100 100 100 100 100 100 100 100 100 100 100 100 100 100 100 99 78 11 9
100 100 100 100 100 100 100 100 100 100 100 100 100 100 100 100 100 100 100 100 100 100 100 100 100 100 100 100 100 96 100 100 100 100 100 100 100 100 100 84 93 98 64
100 100 100 100 100 100 100 100 100 100 100 100 100 100 100 100 100 100 100 100 100 100 100 100 100 100 100 100 100 100 100 100 100 100 100 100 100 100 100 100 100 100 100
100 100 100 100 100 100 100 100 100 100 100 100 100 100 100 100 100 100 100 100 100 100 100 100 100 100 100 100 100 100 100 100 100 100 100 100 100 100 100 100 100 100 100
100 100 100 100 100 100 100 100 100 100 100 100 100 100 100 100 100 100 100 100 100 100 100 100 100 100 100 100 100 100 100 100 100 100 100 100 100 100 100 100 100 100 100
100 100 100 100 100 100 100 100 100 100 100 100 100 100 100 100 100 100 100 100 100 100 100 100 100 100 100 100 100 100 100 100 100 100 100 100 100 100 100 100 100 100 100
100 100 100 100 100 100 100 100 100 100 100 100 100 100 100 100 100 100 100 100 100 100 96 100 100 100 100 100 100 100 100 100 100 100 100 100 100 100 99 100 100 100 100
100 100 100 100 100 100 100 100 100 100 100 100 100 100 100 100 100 100 100 100 100 100 100 100 100 100 100 100 100 100 100 100 100 100 100 100 100 100 99 100 100 100 100
100 100 100 100 100 100 100 100 100 100 100 100 100 100 100 100 100 100 100 100 100 100 100 100 100 100 100 100 100 100 100 100 100 100 100 100 100 100 100 100 100 100 100
100 100 100 100 100 100 100 100 100 100 100 100 100 100 100 100 100 100 100 100 100 100 100 100 100 100 100 100 100 100 100 100 100 100 100 99 100 100 100 100 100 100 99
6 81 99 100 100 100 100 100 100 100 100 100 100 100 100 100 100 100 100 100 100 100 100 100 100 100 100 100 100 100 100 100 100 100 100 100 100 100 100 100 100 100 100
5 88 100 100 100 100 100 100 100 100 100 100 100 100 100 100 100 100 100 100 100 100 100 100 100 100 100 100 100 100 100 100 100 100 100 100 100 100 100 100 100 100 100
5 5 5 63 98 82 100 100 100 100 100 100 100 100 100 100 100 100 100 100 100 100 100 100 100 100 100 100 100 100 100 100 100 100 100 100 100 100 100 100 100 100 100
5 5 5 5 39 47 69 100 100 100 100 100 100 100 100 100 100 100 100 100 100 100 100 100 100 100 100 100 100 100 100 100 100 100 100 100 100 100 100 100 100 100 100
5 5 5 5 5 5 5 6 100 100 100 100 100 100 100 100 100 100 100 100 100 100 100 100 100 100 100 100 100 100 100 100 100 100 100 100 100 100 100 100 100 100 100
5 2 3 1 4 3 47 24 97 55 100 100 100 100 100 100 100 100 100 100 100 100 100 100 100 100 100 100 100 100 100 100 100 100 100 100 100 100 100 100 99 100 100
5 5 5 5 5 5 2 3 62 100 99 100 84 100 100 100 100 100 100 100 100 100 100 100 100 100 100 100 100 100 100 100 100 100 100 100 100 100 100 100 100 100 100
5 5 5 5 3 4 0 1 5 14 100 100 100 100 100 100 100 100 100 100 100 100 100 100 100 100 100 100 100 100 100 100 100 100 100 100 100 100 100 100 100 100 100
2 5 5 5 5 5 5 5 3 1 5 2 8 26 79 100 100 100 100 100 100 100 100 100 100 100 100 100 100 100 100 100 100 100 100 100 100 100 100 100 100 100 100
0 4 24 4 5 5 5 3 0 0 0 0 4 4 28 100 100 100 100 100 100 100 100 100 100 100 100 100 100 100 100 100 100 100 100 100 100 100 100 100 100 100 100
0 4 100 44 2 0 0 0 3 5 5 1 5 93 100 100 100 100 100 100 100 100 100 100 100 100 100 100 100 100 100 100 100 100 100 100 100 100 100 100 100 100 100
3 4 17 100 100 62 16 5 3 6 5 51 42 93 100 100 100 100 100 100 100 100 100 100 100 100 100 100 100 100 100 100 100 100 100 100 100 88 90 100 99 100 100

GFSMW_prec_cloud_120.txt.gz
Cloud_Cover
53 100 94 49 100 100 100 100 100 100 100 100 100 100 100 100 100 100 67 100 99 98 46 100 100 100 100 100 100 100 100 100 100 100 100 100 100 100 100 100 5 11 12
100 100 100 100 100 100 100 100 100 100 100 100 100 100 100 100 100 100 100 99 100 80 18 14 100 100 100 100 100 100 100 100 100 100 100 100 99 33 10 31 98 92 49
100 100 100 100 100 100 48 100 100 100 100 100 100 100 100 100 100 100 100 100 98 100 100 98 87 100 100 100 100 100 100 100 100 100 100 100 27 49 80 93 100 100 89
100 100 100 100 100 100 100 100 100 100 99 100 100 100 100 100 100 100 100 100 100 100 100 100 100 100 100 100 100 100 100 100 100 100 100 94 96 92 99 100 72 24 7
100 100 100 100 100 100 100 100 100 100 100 100 100 100 100 100 100 100 100 100 100 100 100 100 100 100 100 100 100 100 100 100 100 100 100 100 94 100 100 98 75 95 95
100 100 100 100 100 100 100 100 100 100 100 100 100 100 100 100 100 100 100 100 100 100 100 100 100 100 100 100 100 100 100 100 100 100 100 95 100 100 100 98 82 94 62
100 100 100 100 100 100 97 100 100 100 100 100 100 100 100 100 100 100 100 100 100 100 100 100 100 100 100 100 100 100 100 100 100 100 100 100 100 100 100 100 100 100 99
100 100 100 100 100 100 100 100 100 100 100 100 100 100 100 100 100 100 100 100 100 100 100 100 100 100 100 100 100 100 100 100 100 100 100 100 100 100 100 100 100 100 100
100 100 100 100 100 100 100 100 100 100 100 100 100 100 100 100 100 100 100 100 100 100 100 100 100 100 100 100 100 100 100 100 100 100 100 87 100 100 100 100 100 100 100
100 100 100 100 100 100 100 100 100 100 100 100 100 100 100 100 100 100 100 100 100 100 100 100 100 100 100 100 100 100 100 100 99 100 100 100 100 100 100 100 100 100 100
100 100 100 100 100 100 99 100 100 100 100 100 100 100 100 100 100 100 100 100 100 100 100 100 100 100 100 100 100 99 100 100 100 100 100 100 100 100 100 100 100 100 100
100 100 100 100 93 100 100 100 100 100 100 100 100 100 100 100 100 100 100 100 100 100 100 100 100 100 100 100 100 97 100 100 100 100 100 100 100 100 100 100 100 100 100
100 81 99 100 97 63 97 100 100 100 100 100 100 100 100 100 100 100 100 100 100 100 100 100 100 100 100 100 100 100 100 100 100 100 100 100 100 100 100 100 100 100 100
100 84 56 45 100 100 100 100 100 100 100 100 100 100 100 100 100 100 100 100 100 100 100 100 100 100 100 100 100 100 100 100 100 100 100 100 100 100 100 100 100 100 100
98 74 100 83 43 86 51 100 100 100 100 100 100 100 100 100 100 100 100 100 100 100 100 100 100 100 100 100 100 100 100 100 100 100 100 100 100 100 100 100 100 100 100
6 26 34 97 41 99 36 88 100 100 100 100 100 100 100 100 100 100 100 100 100 100 100 100 100 100 100 100 100 100 100 100 100 100 100 100 100 100 100 100 100 100 100
10 25 77 10 6 83 99 100 100 99 100 100 100 100 100 100 100 100 100 100 100 100 100 100 100 100 100 100 100 100 100 100 100 100 100 100 100 100 100 100 100 100 100
1 5 20 90 72 12 14 96 91 92 91 100 100 100 100 100 100 100 100 100 100 100 100 100 100 100 100 100 100 100 100 100 100 100 100 100 100 100 100 100 100 100 100
5 1 0 1 3 19 55 80 99 97 100 100 100 100 100 100 100 100 100 100 100 100 100 100 100 100 100 100 100 100 100 100 100 100 100 100 100 100 100 100 100 100 100
5 5 3 0 0 0 0 0 3 74 100 100 100 100 100 100 100 100 100 100 100 100 100 100 100 100 100 100 100 100 100 100 100 100 100 100 100 100 100 100 100 100 100
4 2 5 5 5 1 0 0 0 0 4 5 86 100 100 100 100 100 100 100 100 100 100 100 100 100 100 100 100 100 100 100 100 100 100 100 100 100 100 100 100 100 100
2 4 0 2 5 2 2 0 0 0 0 0 5 95 93 100 99 99 100 100 100 100 100 100 100 100 100 100 100 100 100 100 100 100 100 100 100 100 100 100 100 100 100
0 1 5 5 3 5 2 0 0 0 0 3 3 4 3 10 100 100 100 100 100 100 100 100 100 100 100 100 100 100 100 100 100 100 100 100 100 100 100 100 100 100 100
0 0 3 5 5 5 4 0 0 0 0 0 0 2 43 69 96 99 100 100 100 100 100 100 100 100 100 100 100 100 100 100 100 100 100 100 100 100 100 100 100 100 100
0 0 2 5 5 5 5 5 4 4 3 5 5 50 100 100 86 99 100 100 100 100 100 100 100 100 100 100 100 100 100 100 100 100 100 100 100 100 100 100 100 100 100
2 0 0 4 5 17 95 96 74 5 5 6 95 96 100 100 100 100 100 100 99 100 100 97 100 100 100 100 100 100 100 100 100 100 100 100 100 100 100 100 100 100 100

GFSMW_prec_cloud_123.txt.gz
Cloud_Cover
82 67 5 1 69 85 100 100 100 100 100 100 100 100 100 100 100 100 100 100 88 8 97 100 6 100 100 100 100 100 100 100 100 100 100 100 100 100 100 100 100 98 11
100 84 22 99 98 41 14 60 100 100 100 100 100 100 100 100 100 100 100 100 99 86 91 87 78 80 21 100 100 100 100 100 100 100 100 100 91 100 100 79 68 6 29
100 99 99 93 92 90 100 99 100 100 100 100 100 100 100 100 100 100 100 100 100 100 100 28 94 100 11 36 100 100 100 100 100 100 100 100 96 100 100 88 6 5 8
100 100 100 100 100 96 100 100 100 100 100 100 100 100 100 100 100 100 100 100 100 100 100 100 100 91 94 92 54 100 100 100 100 100 100 99 100 100 100 94 87 100 6
100 100 100 74 29 82 90 100 100 100 100 100 100 100 100 100 100 100 100 100 100 100 100 100 100 100 100 100 100 100 100 100 100 100 100 100 100 100 100 100 100 100 37
100 100 100 100 99 85 100 100 100 100 100 100 100 100 100 100 100 100 100 100 100 100 100 100 100 100 100 100 100 100 100 100 100 100 100 100 100 100 100 100 100 98 72
100 100 100 100 100 100 100 100 89 100 100 100 100 100 100 100 100 100 100 100 100 100 100 100 100 100 100 100 100 100 100 100 100 100 100 100 100 100 100 100 100 100 84
100 100 100 100 100 100 100 100 100 100 100 100 99 100 100 100 100 100 100 100 100 100 100 100 100 100 100 100 100 100 100 100 100 100 100 100 100 100 100 100 100 100 100
100 100 100 100 100 100 100 100 100 100 100 100 100 100 100 100 100 100 100 100 100 100 100 100 100 100 100 100 100 100 100 100 100 100 100 100 100 100 100 100 99 100 100
100 100 100 100 100 100 100 100 100 100 100 100 100 100 100 100 100 100 100 100 100 100 100 100 100 100 100 100 100 100 100 100 100 100 100 88 96 100 100 100 100 100 100
100 100 100 100 100 100 100 100 100 100 100 100 100 100 100 100 100 100 100 100 100 100 100 100 100 100 100 100 100 100 100 100 100 100 100 100 100 99 100 100 100 100 100
100 100 100 100 100 100 100 100 100 100 100 100 100 100 100 100 100 100 100 100 100 100 100 100 100 100 100 100 100 100 100 100 100 100 100 98 100 100 100 100 100 100 100
100 100 100 100 100 100 99 100 100 100 100 100 100 100 100 100 100 100 100 100 100 100 100 100 100 100 100 100 100 100 100 100 100 100 100 100 99 100 100 100 100 100 100
100 100 100 100 100 100 71 100 100 100 100 100 100 100 100 100 100 100 100 100 100 100 100 100 100 100 100 100 100 100 100 100 100 100 100 100 100 100 100 100 100 100 100
84 100 100 84 95 100 100 100 100 100 99 100 100 100 100 100 100 100 100 100 100 100 100 100 100 100 100 100 100 100 100 100 100 100 100 100 100 100 100 100 100 100 100
100 100 48 100 100 66 98 100 99 100 56 53 70 100 100 100 100 100 100 100 100 100 100 100 100 100 100 100 100 100 100 100 100 100 100 100 100 100 100 100 100 100 100
26 95 43 88 96 100 97 100 58 70 92 99 67 100 100 100 100 100 100 100 100 100 100 100 100 100 100 100 100 100 100 100 100 100 100 100 100 100 100 100 100 100 100
6 95 10 39 73 61 83 93 83 88 54 54 91 100 100 100 100 100 100 100 100 100 100 100 100 100 100 100 100 100 100 100 100 100 100 100 100 100 100 100 100 100 100
4 0 0 0 3 52 100 63 97 98 100 100 99 83 97 100 100 100 100 100 100 100 100 100 100 100 100 100 100 100 100 100 100 100 100 100 100 100 100 100 100 100 100
0 5 1 0 0 0 0 0 0 4 86 98 100 100 100 100 100 100 100 100 100 100 100 100 100 100 100 100 100 100 100 100 100 100 100 100 100 100 100 100 100 100 100
0 0 0 0 0 0 0 0 0 0 2 0 0 8 68 100 100 100 100 100 100 100 100 100 100 100 100 100 100 100 100 100 100 100 100 100 100 100 100 100 100 100 100
0 0 4 0 2 0 0 0 0 0 0 0 0 0 0 0 2 64 100 100 100 100 100 100 100 100 100 100 100 100 100 100 100 100 100 100 100 100 100 100 100 100 100
0 0 0 5 5 0 0 0 0 0 0 0 0 0 0 0 0 0 0 4 98 96 100 100 100 100 100 100 100 100 100 100 100 100 100 100 100 100 100 100 100 100 100
0 0 0 0 14 5 5 2 0 0 0 0 0 0 0 7 31 4 26 96 100 100 100 100 100 100 100 100 100 100 100 100 100 100 100 100 100 100 100 100 100 100 100
0 0 0 0 3 4 4 5 5 5 5 5 5 4 11 88 93 100 75 40 94 90 100 100 100 100 100 100 100 100 100 100 100 100 100 100 100 100 100 100 100 100 100
3 0 0 0 0 5 5 5 35 77 31 5 5 5 6 33 100 100 66 84 89 100 100 100 100 100 100 100 100 100 100 100 100 100 100 100 100 100 100 100 100 100 100